[[{"header":{"parameterUnit":"m.s-1","parameterCategory":1,"la1":31.0,"la2":29.5877,"lo1":-88.7671,"lo2":-86.6584,"dy":0.0162,"dx":0.0185,"nx":115,"ny":88,"refTime":"2023-11-01T06:00:00:Z","depth":0,"parameterNumber":2,"parameterNumberName":"U-component_of_WINDS"},"data":[0.0,0.0,0.0,0.0,0.0,0.0,0.0,0.0,0.0,0.0,0.0,0.0,0.0,0.0,0.0,0.0,0.0,0.0,0.0,0.0,0.0,0.0,0.0,0.0,0.0,0.0,0.0,0.0,0.0,0.0,0.0,0.0,0.0,0.0,0.0,0.0,0.0,0.0,0.0,0.0,0.0,0.0,0.0,0.0,0.0,0.0,0.0,0.0,0.0,0.0,0.0,0.0,0.0,0.0,0.0,0.0,0.0,0.0,0.0,0.0,0.0,0.0,0.0,0.0,0.0,0.0,0.0,0.0,0.0,0.0,0.0,0.0,0.0,0.0,0.0,0.0,0.0,0.0,0.0,0.0,0.0,0.0,0.0,0.0,0.0,0.0,0.0,0.0,0.0,0.0,0.0,0.0,0.0,0.0,0.0,0.0,0.0,0.0,0.0,0.0,0.0,0.0,0.0,0.0,0.0,0.0,0.0,0.0,0.0,0.0,0.0,0.0,0.0,0.0,0.0,0.0,0.0,0.0,0.0,0.0,0.0,0.0,0.0,0.0,0.0,0.0,0.0,0.0,0.0,0.0,0.0,0.0,0.0,0.0,0.0,0.0,0.0,0.0,0.0,0.0,0.0,0.0,0.0,0.0,0.0,0.0,0.0,0.0,0.0,0.0,0.0,0.0,0.0,0.0,0.0,0.0,0.0,0.0,0.0,0.0,0.0,0.0,0.0,0.0,0.0,0.0,0.0,0.0,0.0,0.0,0.0,0.0,0.0,0.0,0.0,0.0,0.0,0.0,0.0,0.0,0.0,0.0,0.0,0.0,0.0,0.0,0.0,0.0,0.0,0.0,0.0,0.0,0.0,0.0,0.0,0.0,0.0,0.0,0.0,0.0,0.0,0.0,0.0,0.0,0.0,0.0,0.0,0.0,0.0,0.0,0.0,0.0,0.0,0.0,0.0,0.0,0.0,0.0,0.0,0.0,0.0,0.0,0.0,0.0,0.0,0.0,0.0,0.0,0.0,0.0,0.0,0.0,0.0,0.0,0.0,0.0,0.0,0.0,0.0,0.0,0.0,0.0,0.0,0.0,0.0,0.0,0.0,0.0,0.0,0.0,0.0,0.0,0.0,0.0,0.0,0.0,0.0,0.0,0.0,0.0,0.0,0.0,0.0,0.0,0.0,0.0,0.0,0.0,0.0,0.0,0.0,0.0,0.0,0.0,0.0,0.0,0.0,0.0,0.0,0.0,0.0,0.0,0.0,0.0,0.0,0.0,0.0,0.0,0.0,0.0,0.0,0.0,0.0,0.0,0.0,0.0,0.0,0.0,0.0,0.0,0.0,0.0,0.0,0.0,0.0,0.0,0.0,0.0,0.0,0.0,0.0,0.0,0.0,0.0,0.0,0.0,0.0,0.0,0.0,0.0,0.0,0.0,0.0,0.0,0.0,0.0,0.0,0.0,0.0,0.0,0.0,0.0,0.0,0.0,0.0,0.0,0.0,0.0,0.0,0.0,0.0,0.0,0.0,0.0,0.0,0.0,0.0,0.0,0.0,0.0,0.0,0.0,0.0,0.0,0.0,0.0,0.0,0.0,0.0,0.0,0.0,0.0,0.0,0.0,0.0,0.0,0.0,0.0,0.0,0.0,0.0,0.0,0.0,0.0,0.0,0.0,0.0,0.0,0.0,0.0,0.0,0.0,0.0,0.0,0.0,0.0,0.0,0.0,0.0,0.0,0.0,0.0,0.0,0.0,0.0,0.0,0.0,0.0,0.0,0.0,0.0,0.0,0.0,0.0,0.0,0.0,0.0,0.0,0.0,0.0,0.0,0.0,0.0,0.0,0.0,0.0,0.0,0.0,0.0,0.0,0.0,0.0,0.0,0.0,0.0,0.0,0.0,0.0,0.0,0.0,0.0,0.0,0.0,0.0,0.0,0.0,0.0,0.0,0.0,0.0,0.0,0.0,0.0,0.0,0.0,0.0,0.0,0.0,0.0,0.0,0.0,0.0,0.0,0.0,0.0,0.0,0.0,0.0,0.0,0.0,0.0,0.0,0.0,0.0,0.0,0.0,0.0,0.0,0.0,0.0,0.0,0.0,0.0,0.0,0.0,0.0,0.0,0.0,0.0,0.0,0.0,0.0,0.0,0.0,0.0,0.0,0.0,0.0,0.0,0.0,0.0,0.0,0.0,0.0,0.0,0.0,0.0,0.0,0.0,0.0,0.0,0.0,0.0,0.0,0.0,0.0,0.0,0.0,0.0,0.0,0.0,0.0,0.0,0.0,0.0,0.0,0.0,0.0,0.0,0.0,0.0,0.0,0.0,0.0,0.0,0.0,0.0,0.0,0.0,0.0,0.0,0.0,0.0,0.0,0.0,0.0,0.0,0.0,0.0,0.0,0.0,0.0,0.0,0.0,0.0,0.0,0.0,0.0,0.0,0.0,0.0,0.0,0.0,0.0,0.0,0.0,0.0,0.0,0.0,0.0,0.0,0.0,0.0,0.0,0.0,0.0,0.0,0.0,0.0,0.0,0.0,0.0,0.0,0.0,0.0,0.0,0.0,0.0,0.0,0.0,0.0,0.0,0.0,0.0,0.0,0.0,0.0,0.0,0.0,0.0,0.0,0.0,0.0,0.0,0.0,0.0,0.0,0.0,0.0,0.0,0.0,0.0,0.0,0.0,0.0,0.0,0.0,0.0,0.0,0.0,0.0,0.0,0.0,0.0,0.0,0.0,0.0,0.0,0.0,0.0,0.0,0.0,0.0,0.0,0.0,0.0,0.0,0.0,0.0,0.0,0.0,0.0,0.0,0.0,0.0,0.0,0.0,0.0,0.0,0.0,0.0,0.0,0.0,0.0,0.0,0.0,0.0,0.0,0.0,0.0,0.0,0.0,0.0,0.0,0.0,0.0,0.0,0.0,0.0,0.0,0.0,0.0,0.0,0.0,0.0,0.0,0.0,0.0,0.0,0.0,0.0,0.0,0.0,0.0,0.0,0.0,0.0,0.0,0.0,0.0,0.0,0.0,0.0,0.0,0.0,0.0,0.0,0.0,0.0,0.0,0.0,0.0,0.0,0.0,0.0,0.0,0.0,0.0,0.0,0.0,0.0,0.0,0.0,0.0,0.0,0.0,0.0,0.0,0.0,0.0,0.0,0.0,0.0,0.0,0.0,0.0,0.0,0.0,0.0,0.0,0.0,0.0,0.0,0.0,0.0,0.0,0.0,0.0,0.0,0.0,0.0,0.0,0.0,0.0,0.0,0.0,0.0,0.0,0.0,0.0,0.0,0.0,0.0,0.0,0.0,0.0,0.0,0.0,0.0,0.0,0.0,0.0,0.0,0.0,0.0,0.0,0.0,0.0,0.0,0.0,0.0,0.0,0.0,0.0,0.0,0.0,0.0,0.0,0.0,0.0,0.0,0.0,0.0,0.0,0.0,0.0,0.0,0.0,0.0,0.0,0.0,0.0,0.0,0.0,0.0,0.0,0.0,0.0,0.0,0.0,0.0,0.0,0.0,0.0,0.0,0.0,0.0,0.0,0.0,0.0,0.0,0.0,0.0,0.0,0.0,0.0,0.0,0.0,0.0,0.0,0.0,0.0,0.0,0.0,0.0,0.0,0.0,0.0,0.0,0.0,0.0,0.0,0.0,0.0,0.0,0.0,0.0,0.0,0.0,0.0,0.0,0.0,0.0,0.0,0.0,0.0,0.0,0.0,0.0,0.0,0.0,0.0,0.0,0.0,0.0,0.0,0.0,0.0,0.0,0.0,0.0,0.0,0.0,0.0,0.0,0.0,0.0,0.0,0.0,0.0,0.0,0.0,0.0,0.0,0.0,0.0,0.0,0.0,0.0,0.0,0.0,0.0,0.0,0.0,0.0,0.0,0.0,0.0,0.0,0.0,0.0,0.0,0.0,0.0,0.0,0.0,0.0,0.0,0.0,0.0,0.0,0.0,0.0,0.0,0.0,0.0,0.0,0.0,0.0,0.0,0.0,0.0,0.0,0.0,0.0,0.0,0.0,0.0,0.0,0.0,0.0,0.0,0.0,0.0,0.0,0.0,0.0,0.0,0.0,0.0,0.0,0.0,0.0,0.0,0.0,0.0,0.0,0.0,0.0,0.0,0.0,0.0,0.0,0.0,0.0,0.0,0.0,0.0,0.0,0.0,0.0,0.0,0.0,0.0,0.0,0.0,0.0,0.0,0.0,0.0,0.0,0.0,0.0,0.0,0.0,0.0,0.0,0.0,0.0,0.0,0.0,0.0,0.0,0.0,0.0,0.0,1.8239,0.0,0.0,0.0,0.0,0.0,0.0,0.0,0.0,0.0,0.0,0.0,0.0,0.0,0.0,0.0,0.0,0.0,0.0,0.0,0.0,0.0,0.0,0.0,0.0,0.0,0.0,0.0,0.0,0.0,0.0,0.0,0.0,0.0,0.0,0.0,0.0,0.0,0.0,0.0,0.0,0.0,0.0,0.0,0.0,0.0,0.0,0.0,0.0,0.0,0.0,0.0,0.0,0.0,0.0,0.0,0.0,0.0,0.0,0.0,0.0,0.0,0.0,0.0,0.0,0.0,0.0,0.0,0.0,0.0,0.0,0.0,0.0,0.0,0.0,0.0,0.0,0.0,0.0,0.0,0.0,0.0,0.0,0.0,0.0,0.0,0.0,0.0,0.0,0.0,0.0,0.0,0.0,0.0,0.0,0.0,0.0,0.0,0.0,0.0,0.0,0.0,0.0,0.0,0.0,0.0,0.0,0.0,0.0,0.0,0.0,1.9599,1.9452,1.9342,1.9219,1.9083,0.0,0.0,0.0,0.0,0.0,0.0,0.0,0.0,0.0,0.0,0.0,0.0,0.0,0.0,0.0,0.0,0.0,0.0,0.0,0.0,0.0,0.0,0.0,0.0,0.0,0.0,0.0,0.0,0.0,0.0,0.0,0.0,0.0,0.0,0.0,0.0,0.0,0.0,0.0,0.0,0.0,0.0,0.0,0.0,0.0,0.0,0.0,0.0,0.0,0.0,0.0,0.0,0.0,0.0,0.0,0.0,0.0,0.0,0.0,0.0,0.0,0.0,0.0,0.0,0.0,0.0,0.0,0.0,0.0,0.0,0.0,0.0,0.0,0.0,0.0,0.0,0.0,0.0,0.0,0.0,0.0,0.0,0.0,0.0,0.0,0.0,0.0,0.0,0.0,0.0,0.0,0.0,0.0,0.0,0.0,0.0,0.0,0.0,0.0,0.0,0.0,0.0,0.0,0.0,0.0,0.0,0.0,0.0,0.0,0.0,0.0,0.0,2.0092,1.9862,1.9721,0.0,0.0,0.0,0.0,0.0,0.0,0.0,0.0,0.0,0.0,0.0,0.0,0.0,0.0,0.0,0.0,0.0,0.0,0.0,0.0,0.0,0.0,0.0,0.0,0.0,0.0,0.0,0.0,0.0,0.0,0.0,0.0,0.0,0.0,0.0,0.0,0.0,0.0,0.0,0.0,0.0,0.0,0.0,0.0,0.0,0.0,0.0,0.0,0.0,0.0,0.0,0.0,0.0,0.0,0.0,0.0,0.0,0.0,0.0,0.0,0.0,0.0,0.0,0.0,0.0,0.0,0.0,0.0,0.0,0.0,0.0,0.0,0.0,0.0,0.0,0.0,0.0,0.0,0.0,0.0,0.0,0.0,0.0,0.0,0.0,0.0,0.0,0.0,0.0,0.0,0.0,0.0,0.0,0.0,0.0,0.0,0.0,0.0,0.0,0.0,0.0,0.0,0.0,0.0,0.0,0.0,0.0,0.0,0.0,0.0,2.0437,2.0816,2.0204,0.0,1.9447,0.0,0.0,0.0,0.0,0.0,0.0,0.0,0.0,0.0,0.0,0.0,0.0,0.0,0.0,0.0,0.0,0.0,0.0,0.0,0.0,0.0,0.0,0.0,0.0,0.0,0.0,0.0,0.0,0.0,0.0,0.0,0.0,0.0,0.0,0.0,0.0,0.0,0.0,0.0,0.0,0.0,0.0,0.0,0.0,0.0,0.0,0.0,0.0,0.0,0.0,0.0,0.0,0.0,0.0,0.0,0.0,0.0,0.0,0.0,0.0,0.0,0.0,0.0,0.0,0.0,0.0,0.0,0.0,0.0,0.0,0.0,0.0,0.0,0.0,0.0,0.0,0.0,0.0,0.0,0.0,0.0,0.0,0.0,0.0,0.0,0.0,0.0,0.0,0.0,0.0,0.0,0.0,0.0,0.0,0.0,0.0,0.0,0.0,0.0,0.0,0.0,0.0,0.0,0.0,0.0,0.0,0.0,0.0,0.0,0.0,2.0868,2.1361,2.0997,2.0492,0.0,0.0,0.0,0.0,0.0,0.0,0.0,0.0,0.0,0.0,0.0,0.0,0.0,0.0,0.0,0.0,0.0,0.0,0.0,0.0,0.0,0.0,0.0,0.0,0.0,0.0,0.0,0.0,0.0,0.0,0.0,0.0,0.0,0.0,0.0,0.0,0.0,0.0,0.0,0.0,0.0,0.0,0.0,0.0,0.0,0.0,0.0,0.0,0.0,0.0,0.0,0.0,0.0,0.0,0.0,0.0,0.0,0.0,0.0,0.0,0.0,0.0,0.0,0.0,0.0,0.0,0.0,0.0,0.0,0.0,0.0,0.0,0.0,0.0,0.0,0.0,0.0,0.0,0.0,0.0,0.0,0.0,0.0,0.0,0.0,0.0,0.0,0.0,0.0,0.0,0.0,0.0,0.0,0.0,0.0,0.0,0.0,0.0,0.0,0.0,0.0,0.0,0.0,0.0,0.0,0.0,0.0,0.0,0.0,0.0,2.1097,2.1283,2.1621,2.17,2.1228,2.0243,0.0,0.0,0.0,0.0,0.0,0.0,0.0,0.0,0.0,0.0,0.0,0.0,0.0,0.0,0.0,0.0,0.0,0.0,0.0,0.0,0.0,0.0,0.0,0.0,0.0,0.0,0.0,0.0,0.0,0.0,0.0,0.0,0.0,0.0,0.0,0.0,0.0,0.0,0.0,0.0,0.0,0.0,0.0,0.0,0.0,0.0,0.0,0.0,0.0,0.0,0.0,0.0,0.0,0.0,0.0,0.0,0.0,0.0,0.0,0.0,0.0,0.0,0.0,0.0,0.0,0.0,0.0,0.0,0.0,0.0,0.0,0.0,0.0,0.0,0.0,0.0,0.0,0.0,0.0,0.0,0.0,0.0,0.0,0.0,0.0,0.0,0.0,0.0,0.0,0.0,0.0,0.0,0.0,0.0,0.0,0.0,0.0,0.0,0.0,0.0,0.0,0.0,0.0,0.0,0.0,0.0,0.0,0.0,2.0929,2.1411,2.1621,2.1532,2.1995,2.1628,0.0,0.0,0.0,0.0,0.0,0.0,0.0,0.0,0.0,0.0,0.0,0.0,0.0,0.0,0.0,0.0,0.0,0.0,0.0,0.0,0.0,0.0,0.0,0.0,0.0,0.0,0.0,0.0,0.0,0.0,0.0,0.0,0.0,0.0,0.0,0.0,0.0,0.0,0.0,0.0,0.0,0.0,0.0,0.0,0.0,0.0,0.0,0.0,0.0,0.0,0.0,0.0,0.0,0.0,0.0,0.0,0.0,0.0,0.0,0.0,0.0,0.0,0.0,0.0,0.0,0.0,0.0,0.0,0.0,0.0,0.0,0.0,0.0,0.0,0.0,0.0,0.0,0.0,0.0,0.0,0.0,0.0,0.0,0.0,0.0,0.0,0.0,0.0,0.0,0.0,0.0,0.0,0.0,0.0,0.0,0.0,0.0,0.0,0.0,0.0,0.0,0.0,0.0,0.0,0.0,0.0,0.0,0.0,0.0,2.13,2.2142,2.2577,2.2533,2.2719,2.2162,0.0,0.0,0.0,0.0,0.0,0.0,0.0,0.0,0.0,0.0,0.0,0.0,0.0,0.0,0.0,0.0,0.0,0.0,0.0,0.0,0.0,0.0,0.0,0.0,0.0,0.0,0.0,0.0,0.0,0.0,0.0,0.0,0.0,0.0,0.0,0.0,0.0,0.0,0.0,0.0,0.0,0.0,0.0,0.0,0.0,0.0,0.0,0.0,0.0,0.0,0.0,0.0,0.0,0.0,0.0,0.0,0.0,0.0,0.0,0.0,0.0,0.0,0.0,0.0,0.0,0.0,0.0,0.0,0.0,0.0,0.0,0.0,0.0,0.0,0.0,0.0,0.0,0.0,0.0,0.0,0.0,0.0,0.0,0.0,0.0,0.0,0.0,0.0,0.0,0.0,0.0,0.0,0.0,0.0,0.0,0.0,0.0,0.0,0.0,0.0,0.0,0.0,0.0,0.0,0.0,0.0,0.0,0.0,0.0,2.202,0.0,2.3095,2.3095,2.3095,2.2561,0.0,0.0,0.0,0.0,0.0,0.0,0.0,0.0,0.0,0.0,0.0,0.0,0.0,0.0,0.0,0.0,0.0,0.0,0.0,0.0,0.0,0.0,0.0,0.0,0.0,0.0,0.0,0.0,0.0,0.0,0.0,0.0,0.0,0.0,0.0,0.0,0.0,0.0,0.0,0.0,0.0,0.0,0.0,0.0,0.0,0.0,0.0,0.0,0.0,0.0,0.0,0.0,0.0,0.0,0.0,0.0,0.0,0.0,0.0,0.0,0.0,0.0,0.0,0.0,0.0,0.0,0.0,0.0,0.0,0.0,0.0,0.0,0.0,0.0,0.0,0.0,0.0,0.0,0.0,0.0,0.0,0.0,0.0,0.0,0.0,0.0,0.0,0.0,0.0,0.0,0.0,0.0,0.0,0.0,0.0,0.0,0.0,0.0,0.0,0.0,0.0,0.0,0.0,0.0,0.0,0.0,0.0,0.0,2.202,2.3045,2.3105,2.317,2.312,2.3145,2.2735,0.0,0.0,0.0,0.0,0.0,0.0,0.0,0.0,0.0,0.0,0.0,0.0,0.0,0.0,0.0,0.0,0.0,0.0,0.0,0.0,0.0,0.0,0.0,0.0,0.0,0.0,0.0,0.0,0.0,0.0,0.0,0.0,0.0,0.0,0.0,0.0,0.0,0.0,0.0,0.0,0.0,0.0,0.0,0.0,0.0,0.0,0.0,0.0,0.0,0.0,0.0,0.0,0.0,0.0,0.0,0.0,0.0,0.0,0.0,0.0,0.0,0.0,0.0,0.0,0.0,0.0,0.0,0.0,0.0,0.0,0.0,0.0,0.0,0.0,0.0,0.0,0.0,0.0,0.0,0.0,0.0,0.0,0.0,0.0,0.0,0.0,0.0,0.0,0.0,0.0,0.0,0.0,0.0,0.0,0.0,0.0,0.0,0.0,0.0,0.0,0.0,0.0,0.0,0.0,0.0,0.0,0.0,0.0,0.0,2.3687,2.3712,2.3888,2.4224,2.3913,2.337,0.0,0.0,0.0,0.0,0.0,0.0,0.0,0.0,0.0,0.0,0.0,0.0,0.0,0.0,0.0,0.0,0.0,0.0,0.0,0.0,0.0,0.0,0.0,0.0,0.0,0.0,0.0,0.0,0.0,0.0,0.0,0.0,0.0,0.0,0.0,0.0,0.0,0.0,0.0,0.0,0.0,0.0,0.0,0.0,0.0,0.0,0.0,0.0,0.0,0.0,0.0,0.0,0.0,0.0,0.0,0.0,0.0,0.0,0.0,0.0,0.0,0.0,0.0,0.0,0.0,0.0,0.0,0.0,0.0,0.0,0.0,0.0,0.0,0.0,0.0,0.0,0.0,0.0,0.0,0.0,0.0,0.0,0.0,0.0,0.0,0.0,0.0,0.0,0.0,0.0,0.0,0.0,0.0,0.0,0.0,0.0,0.0,0.0,0.0,0.0,0.0,0.0,0.0,0.0,0.0,0.0,0.0,0.0,0.0,2.4874,2.4531,2.4465,2.4816,2.4465,2.3935,2.3216,0.0,0.0,0.0,0.0,0.0,0.0,0.0,0.0,0.0,0.0,0.0,0.0,0.0,0.0,0.0,0.0,0.0,0.0,0.0,0.0,0.0,0.0,0.0,0.0,0.0,0.0,0.0,0.0,0.0,0.0,0.0,0.0,0.0,0.0,0.0,0.0,0.0,0.0,0.0,0.0,0.0,0.0,0.0,0.0,0.0,0.0,0.0,0.0,0.0,0.0,0.0,0.0,0.0,0.0,0.0,0.0,0.0,0.0,0.0,0.0,0.0,0.0,0.0,0.0,0.0,0.0,0.0,0.0,0.0,0.0,0.0,0.0,0.0,0.0,0.0,0.0,0.0,0.0,0.0,0.0,0.0,0.0,0.0,0.0,0.0,0.0,0.0,0.0,0.0,0.0,0.0,0.0,0.0,0.0,0.0,0.0,0.0,0.0,0.0,0.0,0.0,0.0,0.0,0.0,0.0,0.0,0.0,0.0,2.6474,2.5511,2.4992,2.4951,2.4942,2.4536,0.0,0.0,0.0,0.0,0.0,0.0,0.0,0.0,0.0,0.0,0.0,0.0,0.0,0.0,0.0,0.0,0.0,0.0,0.0,0.0,0.0,0.0,0.0,0.0,0.0,0.0,0.0,0.0,0.0,0.0,0.0,0.0,0.0,0.0,0.0,0.0,0.0,0.0,0.0,0.0,0.0,0.0,0.0,0.0,0.0,0.0,0.0,0.0,0.0,0.0,0.0,0.0,0.0,0.0,0.0,0.0,0.0,0.0,0.0,0.0,0.0,0.0,0.0,0.0,0.0,0.0,0.0,0.0,0.0,0.0,0.0,0.0,0.0,0.0,0.0,0.0,0.0,0.0,0.0,0.0,0.0,0.0,0.0,0.0,0.0,0.0,0.0,0.0,0.0,0.0,0.0,0.0,0.0,0.0,0.0,0.0,0.0,0.0,0.0,0.0,0.0,0.0,0.0,0.0,0.0,0.0,0.0,0.0,0.0,2.6474,2.6984,2.7042,2.664,2.6256,2.5762,0.0,0.0,0.0,0.0,0.0,0.0,0.0,0.0,0.0,0.0,0.0,0.0,0.0,0.0,0.0,0.0,0.0,0.0,0.0,0.0,0.0,0.0,0.0,0.0,0.0,0.0,0.0,0.0,0.0,0.0,0.0,0.0,0.0,0.0,0.0,0.0,0.0,0.0,0.0,0.0,0.0,0.0,0.0,0.0,0.0,0.0,0.0,0.0,0.0,0.0,0.0,0.0,0.0,0.0,0.0,0.0,0.0,0.0,0.0,0.0,0.0,0.0,0.0,0.0,0.0,0.0,0.0,0.0,0.0,0.0,0.0,0.0,0.0,0.0,0.0,0.0,0.0,0.0,0.0,0.0,0.0,0.0,0.0,0.0,0.0,0.0,0.0,0.0,0.0,0.0,0.0,0.0,0.0,0.0,0.0,0.0,0.0,0.0,0.0,0.0,0.0,0.0,0.0,0.0,0.0,0.0,0.0,0.0,2.6725,2.716,2.8021,2.8279,2.7971,2.7236,2.6557,0.0,0.0,0.0,0.0,0.0,0.0,0.0,0.0,0.0,0.0,0.0,0.0,0.0,0.0,0.0,0.0,0.0,0.0,0.0,0.0,0.0,0.0,0.0,0.0,0.0,0.0,0.0,0.0,0.0,0.0,0.0,0.0,0.0,0.0,0.0,0.0,0.0,0.0,0.0,0.0,0.0,0.0,0.0,0.0,0.0,0.0,0.0,0.0,0.0,0.0,0.0,0.0,0.0,0.0,0.0,0.0,0.0,0.0,0.0,0.0,0.0,0.0,0.0,0.0,0.0,0.0,0.0,0.0,0.0,0.0,0.0,0.0,0.0,0.0,0.0,0.0,0.0,0.0,0.0,0.0,0.0,0.0,0.0,0.0,0.0,0.0,0.0,0.0,0.0,0.0,0.0,0.0,0.0,0.0,0.0,0.0,0.0,0.0,0.0,0.0,0.0,0.0,0.0,0.0,0.0,0.0,0.0,0.0,2.7185,2.8247,2.8806,2.9063,2.9057,2.8047,2.7185,0.0,0.0,0.0,0.0,0.0,0.0,0.0,0.0,0.0,0.0,0.0,0.0,0.0,0.0,0.0,0.0,0.0,0.0,0.0,0.0,0.0,0.0,0.0,0.0,0.0,0.0,0.0,0.0,0.0,0.0,0.0,0.0,0.0,0.0,0.0,0.0,0.0,0.0,0.0,0.0,0.0,0.0,0.0,0.0,0.0,0.0,0.0,0.0,0.0,0.0,0.0,0.0,0.0,0.0,0.0,0.0,0.0,0.0,0.0,0.0,0.0,0.0,0.0,0.0,0.0,0.0,0.0,0.0,0.0,0.0,0.0,0.0,0.0,0.0,0.0,0.0,0.0,0.0,0.0,0.0,0.0,0.0,0.0,0.0,0.0,0.0,0.0,0.0,0.0,0.0,0.0,0.0,0.0,0.0,0.0,0.0,0.0,0.0,0.0,0.0,0.0,0.0,0.0,0.0,0.0,0.0,0.0,0.0,2.8298,2.9402,2.996,3.0236,3.0236,2.9132,2.8097,0.0,0.0,0.0,0.0,0.0,0.0,0.0,0.0,0.0,0.0,0.0,0.0,0.0,0.0,0.0,0.0,0.0,0.0,0.0,0.0,0.0,0.0,0.0,0.0,0.0,0.0,0.0,0.0,0.0,0.0,0.0,0.0,0.0,0.0,0.0,0.0,0.0,0.0,0.0,0.0,0.0,0.0,0.0,0.0,0.0,0.0,0.0,0.0,2.6147,0.0,0.0,0.0,0.0,0.0,0.0,0.0,0.0,0.0,0.0,0.0,0.0,0.0,0.0,0.0,0.0,0.0,0.0,0.0,0.0,0.0,0.0,0.0,0.0,0.0,0.0,0.0,0.0,0.0,0.0,0.0,0.0,0.0,0.0,0.0,0.0,0.0,0.0,0.0,0.0,0.0,0.0,0.0,0.0,0.0,0.0,0.0,0.0,0.0,0.0,0.0,0.0,0.0,0.0,0.0,0.0,0.0,0.0,0.0,2.8674,2.9754,3.0331,3.0588,3.0588,3.0011,2.9057,0.0,0.0,0.0,0.0,0.0,0.0,0.0,0.0,0.0,0.0,0.0,0.0,0.0,0.0,0.0,0.0,0.0,0.0,0.0,0.0,0.0,0.0,0.0,0.0,0.0,0.0,0.0,0.0,0.0,0.0,0.0,0.0,0.0,0.0,0.0,0.0,0.0,0.0,0.0,0.0,0.0,0.0,0.0,0.0,0.0,0.0,0.0,0.0,0.0,0.0,0.0,0.0,0.0,0.0,0.0,0.0,0.0,0.0,0.0,0.0,0.0,0.0,0.0,0.0,0.0,0.0,0.0,0.0,0.0,0.0,0.0,0.0,0.0,0.0,0.0,0.0,0.0,0.0,0.0,0.0,0.0,0.0,0.0,0.0,0.0,0.0,0.0,0.0,0.0,0.0,0.0,0.0,0.0,0.0,0.0,0.0,0.0,0.0,0.0,0.0,0.0,0.0,0.0,0.0,0.0,0.0,0.0,2.767,2.8825,2.998,3.0563,3.0789,3.0713,3.0713,2.9885,2.8117,0.0,0.0,0.0,0.0,0.0,0.0,0.0,0.0,0.0,0.0,0.0,0.0,0.0,0.0,0.0,0.0,0.0,0.0,0.0,0.0,0.0,0.0,0.0,0.0,0.0,0.0,0.0,0.0,0.0,0.0,0.0,0.0,0.0,0.0,0.0,0.0,0.0,0.0,2.3396,2.4808,0.0,0.0,0.0,0.0,0.0,0.0,0.0,0.0,2.6675,0.0,0.0,0.0,0.0,0.0,0.0,0.0,0.0,0.0,0.0,0.0,0.0,0.0,0.0,0.0,0.0,0.0,0.0,0.0,0.0,0.0,0.0,0.0,0.0,0.0,0.0,0.0,0.0,0.0,0.0,0.0,0.0,0.0,0.0,0.0,0.0,0.0,0.0,0.0,0.0,0.0,0.0,0.0,0.0,0.0,0.0,0.0,0.0,0.0,0.0,0.0,0.0,0.0,0.0,0.0,0.0,2.716,2.8247,2.9534,3.1085,3.1662,3.1738,3.1286,3.126,3.0197,2.7983,0.0,0.0,0.0,0.0,0.0,0.0,0.0,0.0,0.0,0.0,0.0,0.0,0.0,0.0,0.0,0.0,0.0,0.0,0.0,0.0,0.0,0.0,0.0,0.0,0.0,0.0,0.0,0.0,0.0,0.0,0.0,0.0,0.0,0.0,0.0,0.0,0.0,0.0,0.0,2.5854,2.6532,0.0,0.0,0.0,0.0,0.0,0.0,0.0,0.0,2.716,0.0,0.0,0.0,0.0,0.0,0.0,0.0,0.0,0.0,0.0,0.0,0.0,0.0,0.0,0.0,0.0,0.0,0.0,0.0,0.0,0.0,0.0,0.0,0.0,0.0,0.0,0.0,0.0,0.0,0.0,0.0,0.0,0.0,0.0,0.0,0.0,0.0,0.0,0.0,0.0,0.0,0.0,0.0,0.0,0.0,0.0,0.0,0.0,0.0,0.0,0.0,0.0,0.0,0.0,0.0,2.767,2.88,3.003,3.1356,3.1938,3.1918,3.1411,3.1284,3.0119,0.0,0.0,0.0,0.0,0.0,0.0,0.0,0.0,0.0,0.0,0.0,0.0,0.0,0.0,0.0,0.0,0.0,0.0,0.0,0.0,0.0,0.0,0.0,0.0,0.0,0.0,0.0,0.0,0.0,0.0,0.0,0.0,0.0,0.0,0.0,0.0,0.0,0.0,0.0,0.0,2.6575,2.711,2.762,0.0,0.0,0.0,0.0,0.0,0.0,2.7871,2.7713,0.0,0.0,0.0,0.0,0.0,0.0,0.0,0.0,0.0,0.0,0.0,0.0,0.0,0.0,0.0,0.0,0.0,0.0,0.0,0.0,0.0,0.0,0.0,0.0,0.0,0.0,0.0,0.0,0.0,0.0,0.0,0.0,0.0,0.0,0.0,0.0,0.0,0.0,0.0,0.0,0.0,0.0,0.0,0.0,0.0,0.0,0.0,0.0,0.0,0.0,0.0,0.0,0.0,0.0,0.0,2.8072,2.9327,3.0432,3.1361,3.1997,3.2001,3.137,3.1145,2.99,0.0,0.0,0.0,0.0,0.0,0.0,0.0,0.0,0.0,0.0,0.0,0.0,0.0,0.0,0.0,0.0,0.0,0.0,0.0,0.0,0.0,0.0,0.0,0.0,0.0,0.0,0.0,0.0,0.0,0.0,0.0,0.0,0.0,0.0,0.0,0.0,0.0,0.0,0.0,0.0,0.0,2.7663,2.8197,2.8355,0.0,0.0,0.0,0.0,2.8448,2.8348,0.0,0.0,0.0,0.0,0.0,0.0,0.0,0.0,0.0,0.0,0.0,0.0,0.0,0.0,0.0,0.0,0.0,0.0,0.0,0.0,0.0,0.0,0.0,0.0,0.0,0.0,0.0,0.0,0.0,0.0,0.0,0.0,0.0,0.0,0.0,0.0,0.0,0.0,0.0,0.0,0.0,0.0,0.0,0.0,0.0,0.0,0.0,0.0,0.0,0.0,0.0,0.0,0.0,0.0,0.0,0.0,2.8097,2.9704,3.0809,3.1411,3.2204,3.2169,3.1174,3.0943,2.9705,0.0,0.0,0.0,0.0,0.0,0.0,0.0,0.0,0.0,0.0,0.0,0.0,0.0,0.0,0.0,0.0,0.0,0.0,0.0,0.0,0.0,0.0,0.0,0.0,0.0,0.0,0.0,0.0,0.0,0.0,0.0,0.0,0.0,0.0,0.0,0.0,0.0,0.0,0.0,0.0,0.0,2.8197,2.8731,2.9258,2.9623,0.0,0.0,2.9603,2.9603,2.9157,0.0,0.0,0.0,0.0,0.0,0.0,0.0,0.0,0.0,0.0,0.0,0.0,0.0,0.0,0.0,0.0,0.0,0.0,0.0,0.0,0.0,0.0,0.0,0.0,0.0,0.0,0.0,0.0,0.0,0.0,0.0,0.0,0.0,0.0,0.0,0.0,0.0,0.0,0.0,0.0,0.0,0.0,0.0,0.0,0.0,0.0,0.0,0.0,0.0,0.0,0.0,0.0,0.0,0.0,0.0,2.7218,2.8555,3.0068,3.1127,3.1656,3.224,3.2009,3.0968,3.0691,2.9646,0.0,0.0,0.0,0.0,0.0,0.0,0.0,0.0,0.0,0.0,0.0,0.0,0.0,0.0,0.0,0.0,0.0,0.0,0.0,0.0,0.0,0.0,0.0,0.0,0.0,0.0,0.0,0.0,0.0,0.0,0.0,0.0,0.0,0.0,0.0,0.0,0.0,0.0,0.0,0.0,0.0,0.0,2.9308,2.9905,0.0,0.0,0.0,3.0708,3.0708,0.0,0.0,0.0,0.0,0.0,0.0,0.0,0.0,0.0,0.0,0.0,0.0,0.0,0.0,0.0,0.0,0.0,0.0,0.0,0.0,0.0,0.0,0.0,0.0,0.0,0.0,0.0,0.0,0.0,0.0,0.0,0.0,0.0,0.0,0.0,0.0,0.0,0.0,0.0,0.0,0.0,0.0,0.0,0.0,0.0,0.0,0.0,0.0,0.0,0.0,0.0,0.0,0.0,0.0,0.0,0.0,0.0,2.8737,3.0238,3.1274,3.1773,3.2127,3.1847,3.0915,3.0473,0.0,0.0,0.0,0.0,0.0,0.0,0.0,0.0,0.0,0.0,0.0,0.0,0.0,0.0,0.0,0.0,0.0,0.0,0.0,0.0,0.0,0.0,0.0,0.0,0.0,0.0,0.0,2.4255,0.0,0.0,0.0,0.0,0.0,0.0,0.0,0.0,0.0,0.0,0.0,0.0,0.0,0.0,2.9333,2.9905,3.0457,3.0809,0.0,0.0,3.1406,3.1406,3.1406,3.126,0.0,0.0,0.0,0.0,0.0,0.0,0.0,0.0,0.0,0.0,0.0,0.0,0.0,0.0,0.0,0.0,0.0,0.0,0.0,0.0,0.0,0.0,0.0,0.0,0.0,0.0,0.0,0.0,0.0,0.0,0.0,0.0,0.0,0.0,0.0,0.0,0.0,0.0,0.0,0.0,0.0,0.0,0.0,0.0,0.0,0.0,0.0,0.0,0.0,0.0,0.0,0.0,0.0,0.0,0.0,2.8363,2.9962,3.1044,3.1518,3.1867,3.1758,3.1171,3.0308,2.9335,0.0,0.0,0.0,0.0,0.0,0.0,0.0,0.0,0.0,0.0,0.0,0.0,0.0,0.0,0.0,0.0,0.0,0.0,0.0,0.0,0.0,0.0,0.0,0.0,0.0,0.0,0.0,0.0,0.0,0.0,0.0,0.0,0.0,0.0,0.0,0.0,0.0,0.0,0.0,0.0,0.0,2.993,3.0462,3.1009,3.1336,0.0,0.0,3.1406,3.1406,3.1406,3.1406,3.1356,0.0,0.0,0.0,0.0,0.0,0.0,0.0,0.0,0.0,0.0,0.0,0.0,0.0,0.0,0.0,0.0,0.0,0.0,0.0,0.0,0.0,0.0,0.0,0.0,0.0,0.0,0.0,0.0,0.0,0.0,0.0,0.0,0.0,0.0,0.0,0.0,0.0,0.0,0.0,0.0,0.0,0.0,0.0,0.0,0.0,0.0,0.0,0.0,0.0,0.0,0.0,0.0,0.0,2.7883,2.9263,2.9955,3.0749,3.1552,3.1466,3.1146,3.0622,3.0237,2.9536,0.0,0.0,0.0,0.0,0.0,0.0,0.0,0.0,0.0,0.0,0.0,0.0,0.0,0.0,0.0,0.0,0.0,0.0,0.0,0.0,0.0,0.0,0.0,0.0,0.0,0.0,0.0,0.0,2.5929,2.6248,2.6474,0.0,0.0,0.0,0.0,0.0,0.0,0.0,0.0,0.0,0.0,3.0482,3.1009,3.1562,0.0,0.0,3.219,3.2462,3.2462,3.2462,3.2336,3.1938,3.1738,0.0,0.0,0.0,0.0,0.0,0.0,0.0,0.0,0.0,0.0,0.0,0.0,0.0,0.0,0.0,0.0,0.0,0.0,0.0,0.0,0.0,0.0,0.0,0.0,0.0,0.0,0.0,0.0,0.0,0.0,0.0,0.0,0.0,0.0,0.0,0.0,0.0,0.0,0.0,0.0,0.0,0.0,0.0,0.0,0.0,0.0,0.0,0.0,0.0,0.0,0.0,0.0,2.8062,2.9512,2.9795,3.0462,3.1577,3.1031,3.0643,3.041,3.0063,2.9507,0.0,0.0,0.0,0.0,0.0,0.0,0.0,0.0,0.0,0.0,0.0,0.0,0.0,0.0,0.0,0.0,0.0,0.0,0.0,0.0,0.0,0.0,0.0,0.0,0.0,0.0,0.0,0.0,2.6733,2.6959,2.7002,0.0,0.0,0.0,0.0,0.0,0.0,0.0,0.0,0.0,0.0,3.1235,3.1587,3.2114,3.2466,3.2466,3.2839,3.3115,3.3115,3.3115,3.2939,3.2541,0.0,0.0,0.0,0.0,0.0,0.0,0.0,0.0,0.0,0.0,0.0,0.0,0.0,0.0,0.0,0.0,0.0,0.0,0.0,0.0,0.0,0.0,0.0,0.0,0.0,0.0,0.0,0.0,0.0,0.0,2.1509,0.0,0.0,0.0,0.0,0.0,0.0,0.0,0.0,0.0,0.0,0.0,0.0,0.0,0.0,0.0,0.0,0.0,0.0,0.0,0.0,0.0,0.0,2.7642,2.8633,2.9407,3.0299,3.1252,3.0583,3.0445,3.0812,2.9738,2.9148,2.908,0.0,0.0,0.0,0.0,0.0,0.0,0.0,0.0,0.0,0.0,0.0,0.0,0.0,0.0,0.0,0.0,0.0,0.0,0.0,0.0,0.0,0.0,0.0,0.0,0.0,0.0,2.7946,2.8047,2.8047,0.0,0.0,0.0,0.0,0.0,0.0,0.0,0.0,0.0,0.0,3.1491,3.2169,3.2215,3.2717,3.3115,3.309,3.3115,3.3115,3.314,3.314,3.309,0.0,0.0,0.0,0.0,0.0,0.0,0.0,0.0,0.0,0.0,0.0,0.0,0.0,0.0,0.0,0.0,0.0,0.0,0.0,0.0,0.0,0.0,0.0,0.0,0.0,0.0,0.0,2.415,2.3857,0.0,0.0,0.0,0.0,0.0,0.0,0.0,0.0,0.0,0.0,0.0,2.6921,2.7262,0.0,0.0,0.0,0.0,0.0,0.0,0.0,0.0,0.0,0.0,0.0,0.0,2.7766,2.9082,2.9396,3.0009,3.1005,3.061,3.0311,3.0176,2.9934,2.951,2.8835,0.0,0.0,0.0,0.0,0.0,0.0,0.0,0.0,0.0,0.0,0.0,0.0,0.0,0.0,0.0,0.0,0.0,0.0,0.0,0.0,0.0,0.0,0.0,0.0,0.0,2.7896,0.0,0.0,0.0,0.0,0.0,0.0,0.0,0.0,0.0,0.0,0.0,3.106,3.1612,3.2315,3.2918,3.3294,3.3796,3.4173,0.0,0.0,0.0,0.0,0.0,0.0,0.0,0.0,0.0,0.0,0.0,0.0,0.0,0.0,3.337,3.2663,3.2537,3.2537,3.2512,0.0,0.0,0.0,0.0,0.0,0.0,0.0,0.0,0.0,0.0,0.0,0.0,0.0,0.0,2.5365,0.0,2.489,0.0,0.0,0.0,0.0,0.0,0.0,0.0,0.0,2.7355,2.7618,2.7588,2.8099,2.8321,0.0,2.7789,2.7212,0.0,0.0,0.0,0.0,0.0,0.0,0.0,0.0,2.7801,2.9105,2.9254,2.9774,3.0703,3.0348,3.0049,2.9918,2.9761,2.9195,2.825,2.737,2.6837,0.0,0.0,0.0,0.0,0.0,0.0,0.0,0.0,0.0,0.0,0.0,0.0,0.0,0.0,0.0,0.0,0.0,0.0,0.0,0.0,0.0,0.0,0.0,2.8699,0.0,0.0,0.0,0.0,0.0,0.0,0.0,0.0,0.0,3.0382,3.1225,3.1989,3.2339,3.2974,3.3554,3.3903,0.0,0.0,0.0,0.0,0.0,0.0,0.0,3.4529,3.468,3.4705,3.483,3.5228,3.5301,3.5376,3.5527,0.0,0.0,3.39,3.3646,3.3671,3.3646,3.3646,3.3718,3.3897,3.3947,3.4148,0.0,0.0,0.0,0.0,0.0,0.0,0.0,0.0,2.6592,2.6624,0.0,2.6511,0.0,0.0,0.0,0.0,0.0,2.647,0.0,0.0,2.8232,2.8588,2.8383,2.8778,2.8881,2.8626,2.8414,2.8084,2.7593,2.6213,0.0,0.0,0.0,0.0,0.0,0.0,2.7716,2.8695,2.8981,2.9529,3.0389,2.9775,2.9629,3.0011,2.9186,2.8293,2.74,2.75,2.7297,2.6671,2.6338,0.0,0.0,0.0,0.0,0.0,0.0,0.0,0.0,0.0,0.0,0.0,0.0,0.0,0.0,0.0,0.0,0.0,0.0,0.0,0.0,2.9484,0.0,0.0,0.0,0.0,0.0,0.0,0.0,0.0,0.0,0.0,3.16,3.2233,3.2751,3.2751,0.0,0.0,0.0,0.0,3.4096,3.4121,3.4096,3.4145,3.4145,3.4145,3.4318,3.4762,0.0,0.0,3.6235,3.6407,3.6579,3.7095,3.712,3.6678,3.5092,3.4833,3.4808,3.4808,3.4833,3.4958,3.541,3.5514,3.5812,2.9069,0.0,0.0,0.0,0.0,2.7767,2.8025,2.8169,2.8215,2.8004,2.763,2.7351,0.0,0.0,0.0,0.0,0.0,0.0,2.7503,2.7998,2.8628,2.8988,2.9096,2.9222,2.9217,2.9165,2.8921,2.8736,2.8543,2.7439,2.668,2.6259,0.0,0.0,0.0,0.0,2.7944,2.8851,2.8915,2.9187,2.9844,2.9663,2.9549,2.9515,2.8911,2.8376,2.8028,2.7741,2.7508,2.7318,2.7085,0.0,0.0,0.0,0.0,0.0,0.0,0.0,0.0,0.0,0.0,0.0,0.0,0.0,0.0,0.0,0.0,0.0,0.0,0.0,3.0107,3.033,3.0429,0.0,0.0,0.0,0.0,0.0,0.0,0.0,0.0,0.0,3.3242,3.3446,3.3621,0.0,0.0,3.4588,3.454,3.5227,3.5695,3.5695,0.0,0.0,0.0,3.6284,3.6333,3.6456,3.6481,3.6579,3.6923,3.6972,3.7021,3.7168,3.7193,3.7022,3.6628,3.648,3.6455,3.648,3.6504,3.6504,3.6653,3.6702,3.685,3.1116,3.0008,2.8904,2.8423,2.8468,2.8788,2.9041,2.9225,2.9186,2.9031,2.8786,2.8451,2.805,2.7651,2.7478,0.0,0.0,0.0,2.8061,2.8617,2.9133,2.9379,2.9471,2.9796,2.9891,2.9787,2.9627,2.9446,2.926,2.8661,2.8105,2.7582,0.0,0.0,2.7212,2.7524,2.8132,2.8998,2.8951,2.9161,2.9666,2.9503,2.9271,2.8998,2.8666,2.8394,2.8111,2.7662,2.7398,2.7431,2.7148,2.6863,0.0,0.0,0.0,0.0,0.0,0.0,0.0,0.0,0.0,0.0,0.0,2.7028,2.7946,0.0,0.0,0.0,2.9533,3.0,3.0659,3.0712,0.0,0.0,0.0,0.0,0.0,0.0,0.0,3.2763,3.3278,3.3793,3.426,3.448,3.4527,3.4181,3.4721,3.5113,3.5113,0.0,3.6404,3.6404,3.6671,3.6892,3.6866,3.6791,3.6762,3.6853,3.7044,3.7165,3.7165,3.7165,3.7191,3.7344,3.737,3.7371,3.7499,3.7525,3.7455,3.7241,3.7193,3.7267,3.7438,3.7537,3.7686,3.2845,3.2243,3.0391,2.9635,2.9639,2.9639,2.9931,3.0312,2.9819,2.984,3.0197,2.9704,2.9435,2.9365,2.8967,0.0,2.9,2.8575,2.8627,2.9086,2.9684,2.9814,2.9611,3.0404,3.0625,3.0412,3.0377,3.0156,2.9728,2.968,2.9507,2.9106,2.7903,2.7307,2.7332,2.7713,2.8336,2.9159,2.9153,2.9333,2.9694,2.9313,2.8866,2.8517,2.8476,2.8276,2.7834,2.7407,2.7207,2.7218,2.6881,2.6865,2.7257,0.0,0.0,0.0,0.0,0.0,0.0,0.0,0.0,0.0,0.0,0.0,0.0,0.0,0.0,0.0,3.0723,0.0,3.0894,3.0894,0.0,0.0,0.0,3.1956,3.2934,3.3081,3.3257,3.3586,0.0,0.0,3.4847,3.5278,3.5328,3.4582,3.5137,3.5615,3.5614,3.6046,3.6408,3.6406,3.6454,3.6454,3.655,3.6371,3.6307,3.6522,3.6811,3.7076,3.7126,3.717,3.7298,3.7566,3.7664,3.7768,3.8011,3.8065,3.7885,3.7453,3.7362,3.7535,3.8048,3.8169,3.8465,3.2991,3.2222,3.1744,3.1604,3.1696,3.1674,3.1766,3.1833,3.1341,3.0987,3.0707,3.0224,2.9787,2.9375,2.937,2.9283,2.9157,2.9502,2.9609,2.9566,3.0039,3.0247,3.0213,3.0414,3.0487,3.0384,3.0183,3.0012,2.9933,2.9719,2.9577,2.9479,2.9136,2.9038,2.9066,2.898,2.9218,2.9754,2.9589,2.9353,2.9117,2.9018,2.8763,2.8377,2.8357,2.8219,2.796,2.7841,2.7762,2.7672,2.7947,2.7831,2.7275,2.7772,0.0,0.0,0.0,0.0,0.0,0.0,0.0,0.0,0.0,2.813,2.9401,0.0,2.9717,0.0,3.0979,3.1801,3.2601,3.2492,0.0,0.0,3.2386,3.2366,3.2627,3.3007,3.3434,3.386,3.4381,3.4877,3.537,3.551,3.5535,3.5326,3.5644,3.5838,3.5656,3.6055,3.6412,3.6436,3.6693,3.6953,3.6903,3.6873,3.6841,3.6905,3.7019,3.7093,3.7116,3.7445,3.7735,3.7836,3.8166,3.8429,3.8485,3.8536,3.8497,3.8373,3.8392,3.8594,3.9102,3.9198,3.9349,3.3777,3.314,3.314,3.3071,3.2923,3.2512,3.2289,3.2315,3.2052,3.1741,3.1456,3.1223,3.076,3.0265,3.0334,3.0122,2.9746,2.9964,2.9988,2.9844,3.0151,3.0322,3.0322,3.0512,3.0639,3.0611,3.0469,3.0403,3.0403,3.0242,3.0156,3.0156,3.0185,3.0209,3.0206,2.9719,2.9656,3.0069,2.9948,2.9726,2.9492,2.9074,2.8781,2.8574,2.8398,2.8263,2.816,2.7963,2.7851,2.7896,2.8006,2.7932,2.7684,2.8129,2.8166,0.0,0.0,0.0,0.0,0.0,0.0,0.0,0.0,0.0,0.0,0.0,3.0758,3.1128,3.1697,3.2292,3.2887,3.2817,3.2818,3.3055,3.3148,3.3264,3.3499,3.3992,3.4365,3.4472,3.4752,3.51,3.5483,3.5553,3.5617,3.5697,3.5825,3.5917,3.601,3.6285,3.6534,3.6557,3.6633,3.6754,3.6877,3.6873,3.6911,3.693,3.6948,3.6971,3.6971,3.7206,3.7469,3.7631,3.8003,3.833,3.8466,3.8634,3.8737,3.8953,3.906,3.9118,3.9197,3.9193,3.93,3.4593,3.4162,3.4133,3.3901,3.3487,3.2663,3.2323,3.238,3.2317,3.222,3.2075,3.2048,3.1722,3.1223,3.121,3.09,3.0429,3.0231,3.015,3.0181,3.0309,3.0391,3.0469,3.0888,3.1055,3.1084,3.0996,3.0976,3.0976,3.0918,3.0928,3.0928,3.0928,3.0928,3.0888,3.0146,2.995,3.0273,3.0293,3.0254,3.0195,2.9473,2.9023,2.8906,2.8555,2.834,2.8281,2.7976,2.7865,2.8022,2.7724,2.7742,2.8178,2.8435,2.8392,0.0,2.8213,0.0,0.0,0.0,0.0,0.0,0.0,0.0,0.0,3.148,3.1972,3.2465,3.2535,3.2628,3.2699,3.2721,3.2908,3.3376,3.3771,3.4167,3.4635,3.5102,3.5302,3.5063,3.5037,3.5143,3.5436,3.5478,3.5553,3.5681,3.5672,3.5799,3.619,3.6348,3.6472,3.6595,3.647,3.652,3.6617,3.6651,3.6675,3.6773,3.6818,3.6822,3.6812,3.6901,3.7026,3.7285,3.7691,3.7988,3.8176,3.8478,3.8759,3.9121,3.922,3.9195,3.9066,3.9057,3.9104,3.376,3.3323,3.3303,3.3262,3.3161,3.2998,3.3062,3.331,3.2927,3.227,3.147,3.1258,3.0928,3.059,3.0682,3.0664,3.0571,3.067,3.0908,3.1231,3.123,3.1465,3.1827,3.1905,3.1964,3.1925,3.1582,3.1387,3.1406,3.1055,3.0928,3.0928,3.0928,3.0928,3.0908,0.0,0.0,0.0,3.0762,3.0566,3.0215,3.0039,2.9609,2.8918,2.8848,0.0,2.8301,2.8223,2.8191,2.8244,2.8397,0.0,0.0,0.0,0.0,0.0,0.0,0.0,0.0,0.0,0.0,0.0,3.1012,3.1537,3.1855,3.1949,3.2157,3.2475,3.2841,3.3256,3.3671,3.3856,3.4002,3.4093,3.3977,3.396,3.4076,3.4189,3.4343,3.4674,3.4692,3.4895,3.5291,3.5403,3.5421,3.54,3.5312,3.5313,3.572,3.5713,3.5801,3.6139,3.6387,3.6673,3.6779,3.6722,3.671,3.6799,3.6822,3.6786,3.6802,3.7151,3.7432,3.7542,3.7945,3.8274,3.8333,3.8415,3.851,3.8557,3.8609,3.8853,3.9732,3.9912,3.9964,3.384,0.0,3.3437,3.3316,0.0,3.3095,3.3211,3.3318,3.2863,3.2238,3.1546,3.1385,3.116,3.0841,3.0917,3.0982,3.1034,3.1152,3.1426,3.1836,3.1836,3.1983,3.2198,3.2198,3.2198,3.2198,3.1953,3.1866,3.1866,3.1651,3.1523,3.1553,3.1553,3.1553,3.1553,3.1309,3.1094,3.0928,3.0928,3.0781,3.0547,3.0312,3.0,2.957,0.0,0.0,0.0,0.0,0.0,0.0,0.0,0.0,0.0,0.0,0.0,2.8135,2.8376,2.8679,2.8952,2.9673,3.0306,3.0833,3.1768,3.2447,3.263,3.2862,3.3037,3.3186,3.3407,3.3582,3.3675,3.3791,3.3789,3.3679,3.3746,3.3798,3.3847,3.4046,3.4212,3.4318,3.4334,3.4416,3.4491,3.4513,3.4644,3.4812,3.4743,3.4832,3.5179,3.5146,3.5207,3.5524,3.5729,3.5991,3.6209,3.6274,3.6384,3.6507,3.6594,3.6594,3.6594,3.682,3.7055,3.7226,3.7634,3.7938,3.8118,3.8291,3.838,3.8403,3.859,3.8897,3.9563,3.9587,3.9609,3.4135,3.3846,3.3766,3.3495,3.3155,3.3155,3.3115,3.3045,0.0,0.0,0.0,3.1942,3.1767,3.1475,3.1475,3.1525,3.1621,3.1621,3.1855,3.2296,3.2316,3.2355,3.2383,3.2433,3.2413,3.2413,3.2355,3.2296,3.2316,3.2237,3.2198,3.2198,3.2198,3.2198,3.2179,3.1816,3.1465,3.1133,3.1006,3.0928,3.0908,3.0527,3.0293,3.0195,2.9863,2.9473,2.9043,2.9043,2.8867,2.8562,2.8516,2.8542,2.8542,2.875,2.87,2.8344,2.8594,2.8799,2.8845,2.9704,3.0564,3.1322,3.2355,3.3032,3.3101,3.3435,3.3653,3.3599,3.3666,3.3604,3.3363,3.3397,3.336,3.3117,3.3464,3.3681,3.3703,3.4062,3.4218,3.4058,3.4095,3.4046,3.3841,3.3927,3.3969,3.433,3.4465,3.4469,3.4837,3.4952,3.507,3.5208,3.5422,3.5482,3.5721,3.5908,3.5967,3.6365,3.642,3.6423,3.6423,3.6423,3.6514,3.6776,3.7063,3.7305,3.7577,3.7876,3.8192,3.8222,3.8631,3.8995,3.9073,3.8994,3.9129,3.4105,3.4027,3.3623,3.3426,3.3368,3.3368,3.3152,3.2861,3.2954,3.2825,3.2465,3.2495,3.2334,3.2083,3.2083,3.2092,3.2101,3.212,3.2335,0.0,3.2715,3.2891,3.3242,3.3242,3.3242,3.3223,3.2891,3.2715,3.2676,3.2394,3.2198,3.2198,3.2198,3.2198,3.2198,3.214,3.2081,3.2003,3.1299,3.0928,3.0898,3.084,3.0605,3.0215,3.0137,2.9922,2.954,2.95,2.9481,2.9422,2.9422,2.9422,2.9422,2.943,2.9439,2.9399,2.9648,2.9774,2.9796,3.0601,3.1371,3.2013,3.259,3.2833,3.2701,3.2755,3.269,3.2502,3.2866,3.302,3.3014,3.3335,3.3499,3.3486,3.3571,3.3614,3.3564,3.3649,3.3713,3.3671,3.4026,3.4253,3.4109,3.4413,3.4625,3.4782,3.4572,3.455,3.4807,3.5221,3.5529,3.5657,3.5976,3.6231,3.6131,3.6286,3.6246,3.6401,3.6361,3.6331,3.6331,3.6331,3.6361,3.6453,3.6566,3.6649,3.674,3.6979,3.744,3.7752,3.8161,3.8613,3.9081,3.9179,3.9343,3.4414,3.4355,3.3945,3.3769,3.375,3.3516,3.3289,3.3156,3.322,3.2927,3.2411,3.2391,3.232,3.2198,3.2198,3.2335,3.2531,3.255,3.2734,3.3125,3.3144,3.3211,3.3367,3.3386,3.3386,3.3367,3.3242,3.3144,3.3125,3.2949,3.2883,3.2851,3.2851,3.2734,3.2519,3.2531,3.2433,3.2198,3.1543,3.123,3.123,3.0996,3.0781,3.0566,3.0566,3.04,2.995,2.9931,2.9833,2.9598,2.9598,2.9598,2.9598,2.9598,2.9598,2.9598,2.971,2.9849,3.0008,3.0757,3.1426,3.1932,3.2187,3.2284,3.2162,3.2754,3.3108,3.2997,3.3161,3.3211,3.3092,3.3092,3.3076,3.2905,3.2734,3.2723,3.2901,3.2942,3.3045,3.3293,3.352,3.3644,3.3644,3.3809,3.4086,3.4272,3.4348,3.4493,3.4544,3.4831,3.5076,3.525,3.5447,3.5551,3.5603,3.5572,3.5665,3.5819,3.5849,3.587,3.5849,3.5849,3.5911,3.6107,3.6337,3.6568,3.6713,3.7157,3.7475,3.7676,3.8092,3.8508,3.8828,3.9182,3.9652,3.4844,3.4824,3.4394,3.4192,3.4075,3.3711,3.3484,3.3386,3.3386,3.3047,3.2531,3.2461,3.2472,3.2472,3.2492,3.2637,3.291,3.293,3.3105,3.3367,3.3386,3.3386,3.3386,3.3386,3.3386,3.3386,3.3386,3.3386,3.3386,3.3386,3.3386,3.3386,3.3386,3.323,3.2949,3.2949,3.2773,3.2472,3.2031,3.1758,3.166,3.1348,3.1133,3.1035,3.1035,3.082,3.0391,3.0351,3.0224,2.9931,2.9891,2.9891,2.9891,2.9891,2.9891,2.9891,2.9891,3.0004,3.0277,3.0829,3.134,3.1747,3.1816,3.1828,3.2015,3.2765,3.3295,3.3211,3.3112,3.309,3.2994,3.2814,3.2605,3.2455,3.2264,3.2309,3.2532,3.2542,3.2683,3.3055,3.3196,3.3286,3.3276,3.3337,3.3619,3.3992,3.4222,3.4372,3.4392,3.4392,3.4517,3.461,3.4735,3.4828,3.4797,3.4828,3.4922,3.517,3.517,3.517,3.5201,3.5201,3.5438,3.5769,3.6186,3.6562,3.696,3.7393,3.7678,3.7826,3.8209,3.8559,3.8743,3.914,3.9769,3.5332,3.5254,3.4877,3.4414,3.4134,3.4055,3.3809,3.3476,3.3386,3.3398,3.3289,3.3269,3.3301,3.3269,3.325,3.3269,3.3308,3.3359,3.3347,3.3386,3.3386,3.3386,3.3386,3.3386,3.3386,3.3386,3.3386,3.3386,3.3386,3.3386,3.3386,3.3386,3.3386,3.3367,3.3359,3.3328,3.334,3.3269,3.2891,3.2511,3.2159,3.2101,3.1905,3.1435,3.1465,3.1269,3.0879,3.082,3.082,3.0781,3.0791,3.0762,3.0791,3.0762,3.0762,3.0742,3.0762,3.0907,3.1148,3.1245,3.145,3.1759,3.1799,3.196,3.2272,3.243,3.2385,3.2151,3.203,3.2241,3.2428,3.2459,3.26,3.2873,3.2864,3.2995,3.2975,3.3035,3.3055,3.3095,3.3437,3.3719,3.3678,3.3888,3.418,3.4138,3.4218,3.4267,3.4267,3.4267,3.4204,3.411,3.4235,3.4423,3.4454,3.4454,3.4517,3.4517,3.4517,3.4599,3.4682,3.4879,3.5106,3.5651,3.6016,3.6433,3.6797,3.7191,3.7666,3.7935,3.8306,3.8729,3.9014,3.9188,3.9528,3.5762,3.5723,3.5293,3.4844,3.4473,3.4434,3.4355,3.418,3.418,3.418,3.418,3.418,3.3906,3.3386,3.3386,3.3386,3.3386,3.3386,3.3386,3.3386,3.3386,3.3386,3.3386,3.3386,3.3386,3.3386,3.3386,3.3386,3.3386,3.3386,3.3386,3.3386,3.3386,3.3386,3.3386,3.3386,3.3386,3.3386,3.3242,3.3086,3.2871,3.2452,3.212,3.1964,3.1914,3.1836,3.171,3.169,3.167,3.167,3.1406,3.1269,3.1269,3.1035,3.0928,3.0918,3.1133,3.1426,3.18,3.182,3.1909,3.2028,3.2058,3.2137,3.2246,3.2266,3.2206,3.2127,3.2365,3.2653,3.2784,3.2655,3.2615,3.2774,3.2663,3.2691,3.2898,3.2918,3.2997,3.3223,3.3452,3.357,3.359,3.3709,3.3827,3.3796,3.3827,3.3859,3.3827,3.3796,3.3765,3.367,3.3733,3.389,3.4047,3.411,3.4173,3.4329,3.4392,3.4432,3.4765,3.4868,3.5156,3.5581,3.6114,3.6532,3.6811,3.7439,3.7968,3.8154,3.8208,3.8503,3.8847,3.8913,3.9144,3.6035,3.5942,3.5684,3.5312,3.4883,3.4883,3.4805,3.4707,3.4687,3.4687,3.4687,3.4687,3.4375,3.3796,3.3769,3.3738,3.3738,3.3738,3.3769,3.3769,3.3769,3.3769,3.3769,3.3738,3.3738,3.375,3.3652,3.3555,3.3406,3.3386,3.3386,3.3386,3.3386,3.3386,3.3386,3.3386,3.3386,3.3386,3.3386,3.3386,3.3308,3.2832,3.2492,3.2394,3.2374,3.2316,3.2198,3.2198,3.2198,3.2179,3.1885,3.1699,3.168,3.1406,3.125,3.1299,3.1523,3.1836,3.2179,3.2198,3.2198,3.2198,3.2198,3.2257,3.2335,3.2374,3.2433,3.2561,3.2929,3.3133,3.2994,3.2811,3.2729,3.2798,3.2623,3.2656,3.2941,3.2969,3.3117,3.3328,3.3391,3.3386,3.3386,3.3418,3.3449,3.3449,3.3418,3.3386,3.3386,3.3418,3.3418,3.3386,3.3386,3.3513,3.3733,3.3765,3.391,3.4175,3.4298,3.4457,3.4912,3.5024,3.53,3.5701,3.6378,3.6785,3.6953,3.7586,3.8071,3.8171,3.8225,3.8271,3.8503,3.857,3.8714,3.6035,3.6016,3.5996,3.5708,3.5371,3.5351,3.5117,3.4785,3.4746,3.4726,3.4766,3.4746,3.4687,3.4648,3.4648,3.4629,3.4609,3.457,3.457,3.457,3.459,3.4629,3.4648,3.4648,3.4609,3.4492,3.4199,3.3848,3.3464,3.3425,3.3386,3.3457,3.3464,3.3425,3.3464,3.3484,3.3437,3.3484,3.3484,3.3425,3.3406,3.3379,3.3164,3.2812,3.2773,3.2628,3.2296,3.2218,3.2218,3.2218,3.2198,3.2148,3.2159,3.214,3.2081,3.212,3.2159,3.2179,3.2237,3.2276,3.2276,3.2237,3.2296,3.2394,3.2715,3.2773,3.291,3.3269,3.3305,3.3219,3.2925,3.2897,3.2972,3.3254,3.3301,3.3289,3.3328,3.3289,3.3347,3.3386,3.3386,3.3386,3.3386,3.3386,3.3386,3.3386,3.3386,3.3386,3.3386,3.3386,3.3406,3.3425,3.3445,3.3437,3.3469,3.361,3.3767,3.4079,3.4352,3.4341,3.4648,3.4989,3.5422,3.5785,3.6249,3.6656,3.7005,3.7361,3.777,3.7937,3.8071,3.8171,3.8304,3.8258,3.8404,3.6035,3.6035,3.6035,3.5937,3.5767,3.5801,3.565,3.5513,3.5547,3.5547,3.5547,3.5547,3.5547,3.5547,3.5513,3.5234,3.4726,3.4687,3.4687,3.4687,3.4687,3.4687,3.4687,3.4687,3.4687,3.4668,3.4551,3.4394,3.4277,3.4238,3.4238,3.4238,3.4238,3.4238,3.4238,3.4238,3.4238,3.4238,3.4238,3.4121,3.3848,3.3848,3.3633,3.3223,3.3172,3.3125,3.2969,3.2969,3.2969,3.2969,3.2715,3.2578,3.257,3.2335,3.2335,3.257,3.2578,3.2695,3.293,3.2969,3.2969,3.2969,3.2969,3.2988,3.3164,3.3203,3.323,3.3347,3.3386,3.3289,3.323,3.3172,3.3242,3.3347,3.3386,3.3386,3.3386,3.3386,3.3386,3.3386,3.3386,3.3386,3.3386,3.3386,3.3386,3.3386,3.3386,3.3406,3.3406,3.3386,3.3523,3.3769,3.3848,3.3945,3.4238,3.3984,3.3997,3.4297,3.4564,3.4792,3.5079,3.5217,3.5546,3.5868,3.6222,3.6462,3.6823,3.7025,3.7381,3.7703,3.7837,3.8004,3.8158,3.8158,3.8258,3.5811,3.5845,3.5845,3.5845,3.5865,3.5947,3.6035,3.6035,3.6035,3.6035,3.6035,3.6035,3.6035,3.6035,3.6035,3.5689,3.5156,3.5117,3.5117,3.5137,3.5117,3.5117,3.5117,3.5117,3.5137,3.5098,3.498,3.4844,3.4707,3.4687,3.4687,3.4687,3.4687,3.4687,3.4687,3.4687,3.4687,3.4687,3.4687,3.4551,3.4297,3.431,3.4141,3.3887,3.3828,3.3659,3.3406,3.3386,3.3386,3.3347,3.3144,3.2988,3.2969,3.2734,3.2695,3.2949,3.3008,3.3105,3.3328,3.3386,3.3386,3.3386,3.3386,3.3386,3.3386,3.3386,3.3386,3.3386,3.3386,3.3386,3.3386,3.3386,3.3386,3.3386,3.3386,3.3386,3.3386,3.3386,3.3386,3.3386,3.3386,3.3386,3.3386,3.3386,3.3464,3.3562,3.3633,3.3652,3.3809,3.3816,3.3906,3.4231,3.431,3.4473,3.4726,3.4668,3.457,3.4844,3.4941,3.5176,3.5371,3.5508,3.5644,3.5932,3.6186,3.6336,3.6539,3.6722,3.7025,3.7348,3.7616,3.7803,3.7937,3.8125,3.8212,3.5523,3.547,3.5489,3.547,3.5523,3.5811,3.6001,3.5947,3.5982,3.6035,3.6035,3.6035,3.6035,3.6035,3.6035,3.5996,3.5884,3.5845,3.5845,3.5898,3.5918,3.5918,3.5898,3.5879,3.5879,3.5845,3.5566,3.5176,3.4844,3.4844,3.4824,3.4766,3.4824,3.4863,3.4746,3.4844,3.4785,3.4824,3.4844,3.4766,3.4707,3.4707,3.4668,3.4609,3.4609,3.4258,3.3484,3.3445,3.3445,3.3425,3.3386,3.3367,3.3328,3.3289,3.3347,3.3328,3.3367,3.3386,3.3386,3.3386,3.3386,3.3386,3.3386,3.3406,3.3464,3.3464,3.3484,3.3542,3.3523,3.3484,3.3503,3.3523,3.3464,3.3386,3.3386,3.3386,3.3425,3.3425,3.3425,3.3484,3.3542,3.3457,3.3457,3.3574,3.373,3.3984,3.4114,3.416,3.4434,3.4492,3.4629,3.4707,3.4726,3.4902,3.5156,3.5371,3.5371,3.5391,3.541,3.5508,3.5703,3.5859,3.584,3.6016,3.6016,3.6219,3.6302,3.6485,3.6654,3.6978,3.7247,3.7536,3.777,3.7958,3.8153,3.5359,3.5093,3.5093,3.5093,3.5127,3.5504,3.5641,3.5675,3.5879,3.6035,3.6035,3.6035,3.6035,3.6035,3.6035,3.6035,3.6035,3.6035,3.6035,3.6035,3.6035,3.6035,3.6035,3.6035,3.6035,3.6016,3.5898,3.5762,3.5591,3.5552,3.5625,3.5605,3.5586,3.5572,3.5566,3.5572,3.5605,3.5572,3.5605,3.5469,3.5215,3.5176,3.5019,3.4726,3.4687,3.4551,3.4284,3.4023,3.3867,3.3867,3.3594,3.3386,3.3386,3.3386,3.3386,3.3386,3.3386,3.3386,3.3386,3.3406,3.3425,3.3406,3.3406,3.3574,3.3828,3.3899,3.3984,3.4219,3.4297,3.4297,3.4297,3.4297,3.4043,3.3496,3.3386,3.3594,3.3848,3.4101,3.4277,3.4297,3.4297,3.4297,3.4277,3.4277,3.4297,3.4453,3.4512,3.459,3.4687,3.4805,3.4863,3.5078,3.5176,3.5293,3.5547,3.5703,3.5703,3.5684,3.5703,3.5703,3.5918,3.6035,3.6035,3.6035,3.6035,3.605,3.6132,3.6268,3.6437,3.6553,3.6809,3.7112,3.7482,3.7798,3.8089,3.5167,3.4922,3.4771,3.4715,3.4749,3.5127,3.5367,3.5523,3.5709,3.5879,3.6001,3.6035,3.6035,3.6035,3.6035,3.6035,3.6035,3.6035,3.6035,3.6035,3.6035,3.6035,3.6035,3.6035,3.6035,3.6035,3.6035,3.6035,3.6035,3.6035,3.6016,3.6016,3.6035,3.6016,3.6035,3.6035,3.6035,3.6035,3.6016,3.5898,3.5684,3.5625,3.5488,3.5234,3.5195,3.5195,3.5123,3.4818,3.4505,3.4297,3.4023,3.3906,3.3887,3.3906,3.3887,3.3887,3.3906,3.3874,3.3887,3.3945,3.3855,3.3874,3.3855,3.4004,3.4258,3.4316,3.4453,3.4648,3.4668,3.4687,3.4687,3.4687,3.4434,3.3984,3.3926,3.4023,3.4349,3.4531,3.4668,3.4648,3.4668,3.4687,3.4687,3.4707,3.4785,3.4883,3.4961,3.5078,3.5117,3.5215,3.5391,3.5527,3.5605,3.5762,3.5937,3.5996,3.5996,3.5976,3.5957,3.5937,3.6016,3.6035,3.6035,3.6035,3.6035,3.6035,3.6084,3.6084,3.6152,3.6268,3.6496,3.6827,3.7294,3.7787,3.8132,3.5041,3.4967,3.4575,3.4426,3.4461,3.4768,3.5093,3.5401,3.5504,3.5709,3.5967,3.6035,3.6035,3.6035,3.6035,3.6035,3.6035,3.6035,3.6035,3.6035,3.6035,3.6035,3.6035,3.6035,3.6035,3.6035,3.6035,3.6035,3.6035,3.6035,3.6035,3.6035,3.6035,3.6035,3.6035,3.6035,3.6035,3.6035,3.6035,3.5996,3.5976,3.5942,3.5942,3.5937,3.5884,3.5898,3.584,3.5527,3.5156,3.4766,3.4609,3.457,3.4648,3.4687,3.4609,3.459,3.4668,3.4609,3.4648,3.4551,3.457,3.4551,3.4551,3.4726,3.4726,3.4746,3.4805,3.4902,3.4902,3.4863,3.4863,3.4883,3.4824,3.4785,3.4707,3.4707,3.4726,3.4805,3.4922,3.4883,3.4785,3.4805,3.4902,3.4883,3.5059,3.5293,3.543,3.5566,3.5742,3.5801,3.5957,3.5942,3.5864,3.5903,3.6035,3.6035,3.6035,3.6035,3.6035,3.6035,3.6035,3.6035,3.6035,3.6035,3.6055,3.6055,3.6035,3.6035,3.6113,3.6294,3.6524,3.6753,3.72,3.7791,3.837,3.5281,3.4968,3.4563,3.4397,3.4412,3.4501,3.4715,3.5093,3.5386,3.5679,3.5967,3.6035,3.6035,3.6035,3.6035,3.6035,3.6035,3.6035,3.6035,3.6035,3.6035,3.6035,3.6035,3.6035,3.6035,3.6035,3.6035,3.6035,3.6035,3.6035,3.6035,3.6035,3.6035,3.6035,3.6035,3.6035,3.6035,3.6035,3.6035,3.6035,3.6035,3.6035,3.6035,3.6035,3.6035,3.6035,3.6035,3.5884,3.5488,3.4766,3.4687,3.4687,3.4746,3.4746,3.4785,3.4785,3.4746,3.4726,3.4726,3.4746,3.4726,3.4687,3.4785,3.4844,3.5176,3.5215,3.5351,3.5566,3.5684,3.5644,3.5644,3.5644,3.5644,3.5591,3.5371,3.5215,3.5254,3.5488,3.5684,3.5684,3.5644,3.5605,3.5586,3.5572,3.5644,3.5762,3.582,3.584,3.5976,3.6035,3.6035,3.6035,3.5996,3.6016,3.6035,3.6035,3.6035,3.6035,3.6035,3.6035,3.6035,3.6035,3.6035,3.6035,3.6133,3.6172,3.6094,3.6035,3.6191,3.6484,3.6612,3.6883,3.7471,3.8072,3.8656,3.5449,3.5211,3.4808,3.4625,3.4642,3.4669,3.4857,3.5204,3.5382,3.5705,3.5976,3.6025,3.6035,3.6035,3.6035,3.6035,3.6035,3.6035,3.6035,3.6035,3.6035,3.6035,3.6035,3.6035,3.6035,3.6035,3.6035,3.6035,3.6035,3.6035,3.6035,3.6035,3.6035,3.6035,3.6035,3.6035,3.6035,3.6035,3.6035,3.6035,3.6035,3.6035,3.6035,3.6035,3.6035,3.6035,3.6035,3.5982,3.5762,3.5351,3.5254,3.5254,3.5254,3.5254,3.5221,3.5254,3.5254,3.5273,3.5254,3.5254,3.5254,3.5273,3.5254,3.5391,3.5586,3.5664,3.5801,3.5937,3.6016,3.6035,3.6035,3.6035,3.6035,3.5923,3.5801,3.5644,3.5664,3.5859,3.5996,3.6035,3.6035,3.6035,3.6035,3.6035,3.6035,3.6016,3.5976,3.5996,3.6035,3.6035,3.6035,3.6035,3.6035,3.6035,3.6035,3.6035,3.606,3.606,3.6211,3.6172,3.6152,3.6133,3.606,3.6099,3.6177,3.6289,3.6289,3.6387,3.6699,3.6914,3.6934,3.716,3.7735,3.8231,3.8839,3.565,3.565,3.5211,3.5064,3.5046,3.5045,3.5204,3.5507,3.5614,3.5848,3.612,3.6156,3.6289,3.6152,3.6309,3.6157,3.6211,3.6289,3.625,3.6269,3.6269,3.6269,3.6255,3.606,3.6035,3.6035,3.6035,3.6035,3.6035,3.6035,3.6035,3.6035,3.6035,3.6035,3.6035,3.6035,3.6055,3.6133,3.6172,3.6172,3.6172,3.6172,3.6133,3.6035,3.6035,3.6035,3.6035,3.6035,3.5976,3.6016,3.6035,3.5937,3.5923,3.5996,3.5976,3.5903,3.5879,3.5864,3.5942,3.5898,3.5957,3.5918,3.5937,3.6035,3.5976,3.5957,3.5976,3.6016,3.6035,3.6035,3.6035,3.6035,3.6035,3.5982,3.5962,3.5982,3.6035,3.6035,3.6035,3.6035,3.6035,3.6035,3.6035,3.6035,3.6035,3.6035,3.6035,3.6035,3.6035,3.6035,3.6035,3.6035,3.6035,3.6035,3.6035,3.6035,3.6079,3.6138,3.6352,3.6445,3.6426,3.6367,3.6216,3.6255,3.6582,3.6738,3.6738,3.6934,3.7187,3.7344,3.7363,3.7598,3.7943,3.8434,3.9006,3.6091,3.6054,3.565,3.5449,3.5449,3.5138,3.5225,3.5619,3.5934,3.6197,3.6566,3.684,3.6957,3.6957,3.6883,3.7031,3.6883,3.6883,3.7031,3.7031,3.7012,3.7012,3.6821,3.6337,3.604,3.604,3.6055,3.6035,3.6021,3.6021,3.6001,3.6001,3.5991,3.6001,3.6006,3.6016,3.6211,3.6465,3.6523,3.6474,3.6454,3.6454,3.6318,3.605,3.6025,3.6021,3.6001,3.6035,3.6035,3.6001,3.6021,3.6011,3.6021,3.6035,3.6035,3.6035,3.6035,3.6035,3.6035,3.6035,3.6035,3.6035,3.6035,3.6035,3.6035,3.6035,3.6035,3.6035,3.6035,3.6035,3.6035,3.6035,3.6035,3.6035,3.6035,3.6035,3.6035,3.6035,3.6035,3.6035,3.6035,3.6035,3.6035,3.6035,3.6035,3.6035,3.6035,3.6035,3.6035,3.6035,3.6035,3.6035,3.6152,3.6191,3.6211,3.6269,3.6426,3.6484,3.666,3.6875,3.6836,3.6777,3.6719,3.6855,3.709,3.7168,3.7168,3.7266,3.75,3.7637,3.7812,3.8008,3.8256,3.8718,3.8994,3.6201,3.6182,3.5981,3.5889,3.587,3.5669,3.5705,3.5904,3.6099,3.6312,3.647,3.6693,3.6739,3.6739,3.6739,3.672,3.6739,3.6739,3.672,3.672,3.672,3.672,3.6701,3.637,3.617,3.6498,3.6406,3.6348,3.6255,3.6001,3.5859,3.5999,3.5896,3.5897,3.6047,3.6047,3.6166,3.632,3.6412,3.6412,3.6412,3.6393,3.6355,3.6089,3.6031,3.6066,3.607,3.6051,3.6031,3.6031,3.6047,3.6027,3.6025,3.6001,3.6001,3.6035,3.6035,3.6035,3.6035,3.6035,3.6035,3.6001,3.6001,3.6035,3.6035,3.6035,3.6035,3.6035,3.6035,3.6035,3.6035,3.6035,3.6035,3.6035,3.6001,3.6001,3.6035,3.6001,3.6035,3.6035,3.6035,3.6035,3.6035,3.6035,3.6035,3.6035,3.6035,3.6035,3.6035,3.6035,3.6035,3.6074,3.6269,3.6367,3.6426,3.6562,3.6816,3.6914,3.7031,3.7285,3.7422,3.7363,3.7285,3.7402,3.75,3.7578,3.7617,3.7715,3.7851,3.8066,3.8262,3.8379,3.851,3.8675,3.8895,3.6201,3.6201,3.6201,3.6201,3.6201,3.6182,3.6164,3.6201,3.6275,3.6345,3.6326,3.6278,3.6546,3.6363,3.6436,3.6344,3.6363,3.6417,3.6584,3.6565,3.6565,3.6584,3.6527,3.6525,3.6682,3.7229,3.6747,3.6553,3.6313,3.5997,3.5866,3.6023,3.5797,3.586,3.6077,3.6081,3.6188,3.6318,3.6337,3.6337,3.6321,3.6302,3.6245,3.6112,3.6093,3.6093,3.6074,3.6093,3.6079,3.61,3.61,3.6074,3.6031,3.6108,3.6142,3.6216,3.6328,3.6367,3.6387,3.6309,3.6255,3.6177,3.6216,3.625,3.6269,3.6328,3.6348,3.6328,3.6348,3.6348,3.623,3.6328,3.6309,3.6269,3.6216,3.6177,3.6211,3.6177,3.6269,3.6035,3.6035,3.6035,3.6035,3.6035,3.6035,3.6035,3.6055,3.6074,3.6113,3.6152,3.623,3.6406,3.666,3.6738,3.6797,3.7051,3.7285,3.7383,3.7461,3.7695,3.7949,3.793,3.7832,3.7754,3.7832,3.793,3.8047,3.8164,3.8356,3.8591,3.8591,3.8552,3.8571,3.8611,3.8793,3.6201,3.6201,3.6201,3.6201,3.6201,3.6201,3.6201,3.6275,3.6534,3.6719,3.6718,3.6993,3.7064,3.7083,3.7157,3.7157,3.6934,3.6879,3.699,3.699,3.6953,3.699,3.6915,3.686,3.7118,3.7095,3.6656,3.6276,3.6289,3.6091,3.596,3.6039,3.5987,3.601,3.6085,3.6138,3.6276,3.6483,3.6502,3.6557,3.6557,3.6538,3.6406,3.6163,3.6108,3.6125,3.6104,3.6102,3.61,3.61,3.61,3.6114,3.6178,3.6422,3.6665,3.6833,3.6883,3.6844,3.6934,3.7012,3.7051,3.709,3.7012,3.7012,3.7031,3.7031,3.6934,3.6973,3.6992,3.7031,3.707,3.6953,3.7031,3.7051,3.6992,3.6992,3.6992,3.6934,3.6719,3.6309,3.6172,3.6133,3.625,3.6309,3.6328,3.6367,3.6348,3.6445,3.6543,3.6621,3.6699,3.6914,3.7168,3.7187,3.7187,3.7539,3.7777,3.7891,3.7988,3.8164,3.8359,3.8474,3.8435,3.8203,3.8203,3.832,3.8493,3.8552,3.8571,3.8611,3.8611,3.8611,3.8611,3.8611,3.8611,3.6201,3.6201,3.6201,3.6201,3.6201,3.6201,3.6201,3.6201,3.6386,3.6479,3.6553,3.6701,3.6775,3.6775,3.6775,3.6775,3.6812,3.6775,3.6775,3.6775,3.6775,3.6775,3.6812,3.6812,3.6775,3.6663,3.6347,3.6266,3.6385,3.5997,3.6019,3.6079,3.5953,3.5938,3.6106,3.6144,3.6272,3.6495,3.6495,3.6514,3.6514,3.6477,3.6328,3.6235,3.6161,3.6161,3.6143,3.6143,3.6161,3.6161,3.6161,3.6252,3.6434,3.6631,3.6804,3.6961,3.7042,3.7128,3.7269,3.7305,3.7266,3.7285,3.7324,3.7305,3.7305,3.7266,3.7344,3.7324,3.7305,3.7305,3.7266,3.7324,3.7305,3.7305,3.7324,3.7344,3.7324,3.7324,3.707,3.6758,3.6797,3.6816,3.6758,3.6777,3.6719,3.668,3.666,3.6797,3.6988,3.7051,3.7129,3.7324,3.7559,3.7715,3.7715,3.793,3.8144,3.8242,3.832,3.8552,3.8611,3.8591,3.8591,3.8513,3.8591,3.8611,3.8611,3.8591,3.8611,3.8611,3.8611,3.8611,3.8611,3.8611,3.863,3.6201,3.6201,3.6201,3.6201,3.6201,3.6201,3.6201,3.6201,3.6201,3.6201,3.6201,3.6201,3.6238,3.6201,3.6238,3.6238,3.6201,3.6238,3.6275,3.6275,3.6275,3.6238,3.6201,3.6201,3.6275,3.6349,3.6257,3.6349,3.6419,3.6085,3.5976,3.6052,3.5852,3.587,3.6128,3.6183,3.6201,3.6201,3.6201,3.6201,3.6201,3.6201,3.6201,3.6201,3.6201,3.6201,3.6183,3.6165,3.6183,3.6183,3.622,3.6312,3.6608,3.6701,3.6678,3.6711,3.6863,3.7148,3.7365,3.7617,3.7695,3.7715,3.7598,3.7578,3.7598,3.7695,3.7637,3.7559,3.7598,3.7637,3.7695,3.7598,3.7598,3.7617,3.7637,3.7578,3.7656,3.7695,3.7734,3.7559,3.7559,3.7402,3.7226,3.709,3.7012,3.7012,3.6973,3.7187,3.7344,3.7402,3.7519,3.7695,3.791,3.8164,3.8262,3.8356,3.8437,3.8437,3.8493,3.8591,3.8611,3.8611,3.8611,3.8611,3.8611,3.8611,3.8611,3.8611,3.8611,3.8611,3.8611,3.8611,3.8611,3.865,3.8669,3.6201,3.6201,3.6201,3.6201,3.6201,3.6201,3.6201,3.6201,3.6201,3.6201,3.6201,3.6201,3.6201,3.6201,3.6201,3.6201,3.6201,3.6201,3.6201,3.6201,3.6201,3.6163,3.6163,3.6201,3.6089,3.6052,3.6089,3.6238,3.6183,3.6073,3.6054,3.6054,3.5998,3.6127,3.5997,3.6015,3.6201,3.6163,3.6163,3.6126,3.6126,3.6126,3.6126,3.6126,3.6126,3.6089,3.6052,3.6052,3.6089,3.6089,3.6163,3.6201,3.6275,3.6275,3.6497,3.6866,3.738,3.7855,3.7887,3.8064,3.8262,3.8262,3.8337,3.8435,3.8301,3.8281,3.8317,3.8454,3.8396,3.8337,3.8298,3.8396,3.8398,3.834,3.8278,3.8317,3.8356,3.8066,3.8105,3.8164,3.8102,3.7773,3.7519,3.7402,3.7285,3.7285,3.7344,3.7578,3.7734,3.7812,3.7891,3.8066,3.818,3.8379,3.8457,3.8591,3.8611,3.8611,3.8611,3.8611,3.8611,3.8611,3.8611,3.8611,3.8611,3.8611,3.8611,3.8611,3.8611,3.8611,3.8611,3.8611,3.8611,3.8669,3.8769,3.6201,3.6201,3.6201,3.6201,3.6201,3.6201,3.6201,3.6201,3.6201,3.6201,3.6201,3.6201,3.6201,3.6201,3.6201,3.6201,3.6201,3.6163,3.6201,3.6163,3.6126,3.6052,3.5903,3.5829,3.5791,3.5605,3.553,3.5456,3.5568,3.5717,3.5791,3.5568,3.553,3.5475,3.5605,3.553,3.5493,3.5493,3.5493,3.553,3.553,3.553,3.553,3.553,3.553,3.5568,3.5568,3.553,3.553,3.5568,3.5717,3.5866,3.594,3.6052,3.6312,3.6423,3.6978,3.7476,3.7916,3.8155,3.8355,3.8574,3.8611,3.8571,3.8611,3.8611,3.8611,3.8591,3.8611,3.8611,3.8611,3.8611,3.8611,3.8611,3.8611,3.8611,3.8611,3.8611,3.8532,3.8591,3.8591,3.8203,3.7949,3.793,3.7891,3.791,3.7949,3.8066,3.8203,3.8262,3.8396,3.8474,3.8513,3.8571,3.8571,3.8611,3.8611,3.8611,3.8611,3.8611,3.8611,3.8611,3.863,3.863,3.863,3.863,3.865,3.865,3.8689,3.865,3.8611,3.8767,3.8887,3.8984,3.916,3.6201,3.6201,3.6201,3.6201,3.6201,3.6201,3.6201,3.6201,3.6201,3.6201,3.6201,3.6201,3.6201,3.6163,3.6089,3.5978,3.6033,3.5959,3.5903,3.5903,3.5866,3.568,3.553,3.5418,3.5306,3.5007,3.5119,3.5044,3.4969,3.5082,3.5157,3.5007,3.5119,3.5082,3.5044,3.5082,3.5119,3.5119,3.5082,3.5082,3.5082,3.5082,3.5044,3.5044,3.5007,3.5007,3.5007,3.5044,3.5044,3.5119,3.5306,3.5456,3.5493,3.5791,3.5978,3.6126,3.646,3.696,3.7495,3.7862,3.8155,3.8355,3.8574,3.8611,3.8611,3.8611,3.8611,3.8611,3.8611,3.8611,3.8611,3.8611,3.8611,3.8611,3.8611,3.8611,3.8611,3.8611,3.8611,3.8611,3.8611,3.8611,3.8454,3.8532,3.8552,3.8571,3.8611,3.8611,3.8611,3.8591,3.8591,3.8611,3.8611,3.8611,3.8611,3.8611,3.8611,3.865,3.865,3.865,3.8689,3.8689,3.8689,3.8689,3.8767,3.8926,3.9141,3.8926,3.873,3.8848,3.8984,3.9141,3.9277,3.9394,3.957,3.6201,3.6201,3.6201,3.6201,3.6201,3.6201,3.6201,3.6201,3.6163,3.6126,3.6089,3.6163,3.6089,3.6052,3.5791,3.5642,3.5642,3.5269,3.5231,3.5194,3.5082,3.5119,3.5044,3.5044,3.4969,3.4857,3.4744,3.4556,3.4461,3.4273,3.4612,3.4932,3.4744,3.4894,3.4819,3.4594,3.4632,3.4632,3.4632,3.4707,3.4744,3.4782,3.4782,3.4819,3.4914,3.5007,3.4969,3.4819,3.4782,3.4782,3.4932,3.5044,3.5119,3.5418,3.5642,3.5829,3.6015,3.6479,3.6923,3.7495,3.7936,3.8155,3.8375,3.8611,3.8611,3.8611,3.8611,3.8611,3.8611,3.8611,3.8611,3.8611,3.8611,3.8611,3.8611,3.8611,3.8611,3.8611,3.8611,3.8611,3.8611,3.8611,3.8611,3.8611,3.8611,3.8611,3.8611,3.8611,3.8611,3.8611,3.8611,3.8611,3.8611,3.8611,3.8611,3.863,3.865,3.8747,3.8806,3.8806,3.8769,3.8769,3.8965,3.9043,3.9199,3.9434,3.9609,3.9453,3.9355,3.9316,3.9375,3.9531,3.9824,4.0039,4.0195,3.6201,3.6163,3.594,3.5978,3.6201,3.6201,3.6201,3.6126,3.594,3.568,3.5493,3.5456,3.5456,3.5418,3.5344,3.5231,3.5231,3.5119,3.4969,3.5007,3.5007,3.4857,3.4762,3.4499,3.4386,3.4029,3.3916,3.3689,3.3327,3.3441,3.3365,3.3575,3.4029,3.3991,3.3954,3.3765,3.3651,3.3613,3.3575,3.3538,3.3538,3.3538,3.3538,3.3538,3.3538,3.3538,3.3538,3.3765,3.384,3.4029,3.4368,3.4536,3.4687,3.5007,3.5306,3.553,3.5791,3.6052,3.6423,3.6997,3.7458,3.8045,3.8375,3.8574,3.8538,3.8574,3.8611,3.8611,3.8611,3.8611,3.8611,3.8611,3.8611,3.8611,3.8611,3.8611,3.8611,3.8611,3.8611,3.8611,3.8611,3.8611,3.8611,3.8611,3.8611,3.8611,3.8611,3.8611,3.8611,3.8611,3.8611,3.8669,3.8689,3.8708,3.8708,3.8708,3.8728,3.8865,3.8965,3.9043,3.9141,3.9394,3.9551,3.9609,3.9648,3.9785,3.9902,3.998,3.9922,3.9766,3.9785,3.9922,4.0254,4.0625,4.0723,3.5829,3.5829,3.553,3.5642,3.5978,3.5903,3.5829,3.5791,3.553,3.5306,3.5007,3.5007,3.5007,3.4969,3.4857,3.4819,3.4782,3.4632,3.4519,3.4444,3.4331,3.4218,3.4009,3.3782,3.3517,3.3082,3.3006,3.2909,3.2757,3.2626,3.274,3.293,3.3099,3.3213,3.3099,3.2795,3.2588,3.2588,3.2588,3.2588,3.2626,3.2664,3.2702,3.2702,3.274,3.2778,3.2854,3.3006,3.3082,3.331,3.363,3.3971,3.4197,3.4536,3.4969,3.5306,3.5568,3.5791,3.6163,3.6608,3.7107,3.7715,3.8155,3.8338,3.8428,3.8501,3.8611,3.8611,3.8611,3.8611,3.8611,3.8611,3.8611,3.8611,3.8611,3.8611,3.8611,3.8611,3.8611,3.8611,3.8611,3.8611,3.863,3.863,3.865,3.863,3.8611,3.8611,3.8611,3.8611,3.8611,3.8689,3.875,3.8806,3.8826,3.906,3.9275,3.9316,3.9453,3.9531,3.9668,3.9902,4.0039,4.0059,4.0098,4.0137,4.0293,4.0508,4.0371,4.0156,4.0273,4.043,4.0586,4.0918,4.0996,3.5064,3.5044,3.5007,3.5231,3.553,3.5194,3.5082,3.5157,3.5044,3.4969,3.4857,3.4857,3.4857,3.4744,3.4368,3.4197,3.416,3.3933,3.3706,3.3462,3.3462,3.3082,3.293,3.2816,3.2871,3.2681,3.2604,3.2566,3.2473,3.2413,3.2452,3.2435,3.2528,3.2642,3.2588,3.2588,3.2588,3.255,3.2512,3.2473,3.2435,3.2397,3.2397,3.2397,3.2397,3.2359,3.2359,3.2512,3.2588,3.2719,3.3044,3.3365,3.3479,3.4009,3.4536,3.4969,3.5344,3.5754,3.6163,3.6553,3.696,3.7365,3.777,3.8009,3.8119,3.8338,3.8574,3.8574,3.8611,3.8611,3.8611,3.8611,3.8611,3.8611,3.8611,3.8611,3.8611,3.8611,3.8611,3.8611,3.8611,3.8611,3.863,3.8594,3.8633,3.8633,3.863,3.863,3.8689,3.8747,3.8806,3.8984,3.9121,3.916,3.9277,3.959,3.9785,3.9844,3.9922,4.0019,4.0078,4.0215,4.0332,4.0449,4.0527,4.0566,4.0878,4.1152,4.082,4.0586,4.0878,4.1035,4.1113,4.1133,4.1191,3.4671,3.467,3.4619,3.4687,3.4799,3.4932,3.5007,3.4969,3.4724,3.4461,3.416,3.3954,3.3802,3.3689,3.3462,3.3289,3.3213,3.3137,3.2854,3.2816,3.2778,3.274,3.2588,3.2473,3.2413,3.2261,3.2184,3.2031,3.1763,3.1878,3.184,3.1801,3.1955,3.1955,3.2031,3.1993,3.1801,3.1801,3.1763,3.1801,3.1817,3.1856,3.1888,3.1926,3.1943,3.1943,3.1981,3.2151,3.2233,3.2255,3.2637,3.2892,3.312,3.363,3.3971,3.4536,3.5025,3.553,3.5978,3.6386,3.6571,3.696,3.7329,3.7679,3.7972,3.8082,3.8302,3.8501,3.8574,3.8574,3.8611,3.8611,3.8611,3.8611,3.8611,3.8611,3.8611,3.8611,3.8611,3.8611,3.8611,3.865,3.865,3.8926,3.9004,3.8926,3.8943,3.8982,3.9041,3.9062,3.9141,3.9453,3.9629,3.9648,3.9766,4.0019,4.0215,4.0293,4.0391,4.0488,4.0547,4.0605,4.0741,4.084,4.0918,4.1016,4.1132,4.1191,4.1152,4.1074,4.1191,4.1211,4.1191,4.1191,4.1211,3.3804,3.3654,3.3776,3.3724,3.3703,3.4166,3.4293,3.4142,3.3895,3.3609,3.3382,3.3099,3.3006,3.293,3.274,3.2588,3.2588,3.2588,3.2452,3.2413,3.2413,3.2261,3.2184,3.2184,3.1955,3.184,3.1763,3.1664,3.151,3.1433,3.1472,3.1472,3.1395,3.1683,3.1776,3.166,3.1472,3.1542,3.1606,3.1679,3.1727,3.1736,3.1815,3.1831,3.1831,3.1815,3.1806,3.1882,3.1995,3.2078,3.2282,3.2621,3.2871,3.3213,3.3592,3.4273,3.495,3.5456,3.5829,3.6163,3.6349,3.659,3.696,3.7292,3.7605,3.7826,3.8082,3.8302,3.8521,3.8574,3.8611,3.8611,3.8611,3.8611,3.8611,3.8611,3.8611,3.8611,3.865,3.865,3.8708,3.8708,3.8828,3.916,3.9453,3.9336,3.9238,3.9316,3.9394,3.9453,3.9551,3.9824,4.0078,4.0098,4.0195,4.0391,4.0566,4.0723,4.0781,4.084,4.0918,4.0957,4.1113,4.1211,4.1152,4.1132,4.1172,4.1191,4.1172,4.1172,4.1191,4.1211,4.1211,4.1211,4.1211,3.2453,3.2137,3.249,3.2471,3.2313,3.2881,3.2973,3.2664,3.2664,3.2664,3.2626,3.2642,3.2588,3.255,3.2512,3.2435,3.2435,3.2435,3.2261,3.2069,3.1993,3.1763,3.1625,3.1549,3.1587,3.151,3.1472,3.151,3.1395,3.1395,3.1395,3.1458,3.1506,3.1704,3.1783,3.1767,3.1601,3.1681,3.1808,3.1903,3.1951,3.2158,3.2205,3.2221,3.2221,3.2237,3.2213,3.2141,3.2045,3.1996,3.2052,3.2292,3.2632,3.3002,3.3647,3.4348,3.51,3.5344,3.568,3.5978,3.6163,3.6312,3.659,3.6738,3.7034,3.7439,3.7789,3.8082,3.8302,3.8465,3.8574,3.8574,3.8611,3.8611,3.8611,3.8611,3.8594,3.8613,3.8708,3.8747,3.8789,3.8926,3.9238,3.957,3.9902,3.9922,3.9883,4.0019,4.0039,3.9883,4.0,4.0156,4.0371,4.0527,4.0644,4.0742,4.082,4.0937,4.1016,4.1055,4.1191,4.1211,4.1211,4.1211,4.1211,4.1211,4.1211,4.1211,4.1211,4.1211,4.1211,4.1211,4.1211,4.1211,4.1211,3.168,3.1387,3.1752,3.1845,3.1783,3.1926,3.2189,3.2571,3.2588,3.2588,3.2604,3.2299,3.2184,3.2146,3.1878,3.1801,3.1763,3.1725,3.1702,3.1625,3.1648,3.151,3.1433,3.1395,3.1395,3.1395,3.1395,3.1395,3.1395,3.1395,3.1586,3.1729,3.176,3.1967,3.211,3.2158,3.2126,3.2126,3.2253,3.2253,3.2285,3.2428,3.2491,3.2507,3.2507,3.2523,3.2459,3.2364,3.2285,3.2261,3.2292,3.2503,3.2872,3.3094,3.3473,3.427,3.4704,3.4912,3.5456,3.5717,3.592,3.6236,3.6404,3.6553,3.6775,3.7127,3.7534,3.7979,3.8292,3.8515,3.8735,3.8809,3.8845,3.8809,3.8809,3.8828,3.8848,3.8965,3.9041,3.9082,3.916,3.9434,3.9746,4.0059,4.0351,4.043,4.0527,4.0625,4.0625,4.0449,4.041,4.0566,4.0664,4.082,4.0918,4.1054,4.1113,4.1191,4.1211,4.1211,4.1211,4.1211,4.1211,4.1211,4.1211,4.1211,4.1211,4.1211,4.1211,4.1211,4.1211,4.1211,4.1211,4.1211,4.1211,3.0916,3.0625,3.0986,3.1105,3.1083,3.1238,3.155,3.1896,3.2081,3.2108,3.2108,3.1878,3.1763,3.1725,3.1533,3.1433,3.1472,3.151,3.1472,3.1472,3.1395,3.1433,3.1395,3.1395,3.1395,3.1395,3.1395,3.1395,3.1427,3.1586,3.1776,3.2078,3.211,3.2332,3.2523,3.2618,3.2714,3.2714,3.273,3.265,3.2666,3.2745,3.2825,3.2793,3.2809,3.2809,3.2777,3.273,3.2634,3.2587,3.2539,3.261,3.3046,3.3329,3.3681,3.4427,3.4849,3.5155,3.5574,3.5995,3.6168,3.6414,3.6546,3.6845,3.696,3.7222,3.7727,3.8175,3.8436,3.864,3.8917,3.9101,3.9121,3.9141,3.9141,3.9141,3.9238,3.9375,3.9453,3.9551,3.9746,4.0,4.0293,4.0586,4.0781,4.084,4.0879,4.0976,4.0996,4.0859,4.084,4.0976,4.1054,4.1132,4.1211,4.1211,4.1211,4.1211,4.1211,4.1211,4.1211,4.1211,4.1211,4.1211,4.1211,4.1211,4.1211,4.1211,4.1211,4.1211,4.1211,4.1211,4.1211,4.1211,4.1211,3.0157,2.9903,3.0175,3.0332,3.0299,3.067,3.0898,3.094,3.1313,3.1433,3.1472,3.1433,3.1433,3.1456,3.1433,3.1395,3.1395,3.1395,3.1395,3.1395,3.1395,3.1395,3.1395,3.1395,3.1395,3.1395,3.1411,3.1443,3.1538,3.1729,3.2015,3.2412,3.2459,3.265,3.2976,3.3024,3.3079,3.3206,3.3151,3.304,3.3079,3.327,3.3533,3.347,3.3413,3.3454,3.3349,3.3206,3.304,3.2913,3.2842,3.2786,3.3183,3.372,3.416,3.4491,3.4912,3.5301,3.5614,3.6038,3.6459,3.6764,3.7104,3.7279,3.7324,3.7273,3.7708,3.8198,3.8462,3.8838,3.9138,3.9437,3.9531,3.9531,3.9531,3.9531,3.959,3.9766,4.0,4.0117,4.0332,4.0566,4.0625,4.0898,4.0957,4.1132,4.1172,4.1211,4.1191,4.1113,4.1172,4.1211,4.1211,4.1211,4.1211,4.1211,4.1211,4.1211,4.1211,4.1211,4.1211,4.1211,4.1211,4.1211,4.1211,4.1211,4.1211,4.1211,4.1211,4.1211,4.1211,4.1211,4.1211,4.1211,4.1211,2.9799,2.9441,2.9537,2.9688,2.9965,3.0299,3.0616,3.0924,3.1236,3.1379,3.1395,3.1395,3.1395,3.1395,3.1395,3.1395,3.1395,3.1395,3.1395,3.1395,3.1395,3.1395,3.1395,3.1395,3.1395,3.1395,3.1427,3.1554,3.1792,3.1967,3.2253,3.2801,3.2865,3.304,3.331,3.3342,3.3381,3.3476,3.3438,3.3342,3.3374,3.3422,3.3533,3.3533,3.3533,3.3533,3.3444,3.3454,3.3349,3.3301,3.3326,3.3354,3.3499,3.3947,3.4196,3.4407,3.4935,3.5361,3.5635,3.6004,3.6337,3.6731,3.702,3.7379,3.7515,3.7449,3.7682,3.8157,3.8633,3.907,3.945,3.9734,3.998,3.9961,3.9961,3.9961,3.9961,4.0215,4.0508,4.0703,4.0898,4.0976,4.1016,4.1055,4.1172,4.1211,4.1191,4.1211,4.1211,4.1191,4.1191,4.1211,4.1211,4.1211,4.1211,4.1211,4.1211,4.1211,4.1211,4.1211,4.1211,4.1211,4.1211,4.1211,4.1211,4.1211,4.1211,4.1211,4.1211,4.1211,4.1211,4.1211,4.1211,4.1211,4.1211,2.9513,2.9298,2.9298,2.9409,2.9631,2.9912,3.0299,3.0686,3.0998,3.1252,3.1379,3.1395,3.1395,3.1395,3.1395,3.1395,3.1395,3.1395,3.1395,3.1395,3.1395,3.1395,3.1395,3.1395,3.1395,3.1411,3.1601,3.1808,3.2078,3.2396,3.2754,3.3135,3.3231,3.331,3.3533,3.3533,3.3533,3.3533,3.3533,3.3533,3.3533,3.3533,3.3533,3.3533,3.3533,3.3533,3.3533,3.3533,3.3517,3.3476,3.3485,3.3463,3.3653,3.4147,3.4468,3.4729,3.5117,3.5582,3.5763,3.6005,3.632,3.6795,3.7279,3.7768,3.81,3.8131,3.8268,3.8771,3.9159,3.9604,4.0029,4.0337,4.0548,4.0625,4.0625,4.0605,4.0625,4.0742,4.0879,4.0996,4.1113,4.1113,4.1152,4.1152,4.1211,4.1211,4.1211,4.1211,4.1211,4.1211,4.1211,4.1211,4.1211,4.1211,4.1211,4.1211,4.1211,4.1211,4.1211,4.1211,4.1211,4.1211,4.1211,4.1211,4.1211,4.1211,4.1211,4.1211,4.1211,4.1211,4.1211,4.1211,4.123,4.1289,4.1387,2.9298,2.9298,2.9298,2.9262,2.9273,2.957,2.9881,3.0176,3.0561,3.0963,3.1248,3.1279,3.1356,3.1395,3.1395,3.1395,3.1395,3.1395,3.1395,3.1395,3.1395,3.1395,3.1395,3.1395,3.1395,3.1506,3.1713,3.203,3.2348,3.265,3.3024,3.3438,3.3533,3.3533,3.3533,3.3533,3.3533,3.3533,3.3533,3.3533,3.3533,3.3533,3.3533,3.3533,3.3533,3.3533,3.3533,3.3533,3.3533,3.3533,3.3533,3.3501,3.3674,3.4132,3.4514,3.4837,3.5345,3.5765,3.6058,3.6247,3.6722,3.7255,3.7725,3.8066,3.8423,3.8643,3.8822,3.908,3.9492,3.9963,4.0374,4.0822,4.1016,4.1132,4.1132,4.1132,4.1152,4.1172,4.1191,4.1211,4.1211,4.1211,4.1211,4.1211,4.1211,4.1211,4.1211,4.1211,4.1211,4.1211,4.1211,4.1211,4.1211,4.1211,4.1211,4.1211,4.1211,4.1211,4.1211,4.1211,4.1211,4.1211,4.1211,4.1211,4.1211,4.1211,4.1211,4.1211,4.1211,4.125,4.1387,4.1406,4.1445,4.1523,4.1641,2.9298,2.9298,2.9298,2.9102,2.8898,2.9138,2.9297,2.9392,2.9791,3.0298,3.0793,3.0933,3.1048,3.1395,3.1395,3.1395,3.1395,3.1395,3.1395,3.1395,3.1395,3.1395,3.1395,3.1395,3.1395,3.1538,3.1776,3.2094,3.2459,3.2833,3.3167,3.346,3.3533,3.3533,3.3533,3.3533,3.3533,3.3533,3.3533,3.3533,3.3533,3.3533,3.3533,3.3533,3.3533,3.3533,3.3533,3.3533,3.3533,3.3533,3.3533,3.3533,3.3681,3.4009,3.4417,3.4824,3.5352,3.5774,3.6057,3.6218,3.6644,3.7285,3.7685,3.7924,3.8225,3.86,3.874,3.8859,3.9254,3.9765,4.0236,4.0821,4.1152,4.1191,4.1191,4.1191,4.1191,4.1191,4.1211,4.1211,4.1211,4.1211,4.1211,4.1211,4.1211,4.1211,4.1211,4.1211,4.1211,4.1211,4.1211,4.1211,4.1211,4.1211,4.1211,4.1211,4.1211,4.1211,4.1211,4.1211,4.1211,4.1211,4.1211,4.1211,4.1211,4.1211,4.1211,4.1269,4.1308,4.1328,4.1582,4.1719,4.1758,4.1855,4.2012]},{"header":{"parameterUnit":"m.s-1","parameterCategory":1,"la1":31.0,"la2":29.5877,"lo1":-88.7671,"lo2":-86.6584,"dy":0.0162,"dx":0.0185,"nx":115,"ny":88,"refTime":"2023-11-01T06:00:00:Z","depth":0,"parameterNumber":3,"parameterNumberName":"V-component_of_WINDS"},"data":[0.0,0.0,0.0,0.0,0.0,0.0,0.0,0.0,0.0,0.0,0.0,0.0,0.0,0.0,0.0,0.0,0.0,0.0,0.0,0.0,0.0,0.0,0.0,0.0,0.0,0.0,0.0,0.0,0.0,0.0,0.0,0.0,0.0,0.0,0.0,0.0,0.0,0.0,0.0,0.0,0.0,0.0,0.0,0.0,0.0,0.0,0.0,0.0,0.0,0.0,0.0,0.0,0.0,0.0,0.0,0.0,0.0,0.0,0.0,0.0,0.0,0.0,0.0,0.0,0.0,0.0,0.0,0.0,0.0,0.0,0.0,0.0,0.0,0.0,0.0,0.0,0.0,0.0,0.0,0.0,0.0,0.0,0.0,0.0,0.0,0.0,0.0,0.0,0.0,0.0,0.0,0.0,0.0,0.0,0.0,0.0,0.0,0.0,0.0,0.0,0.0,0.0,0.0,0.0,0.0,0.0,0.0,0.0,0.0,0.0,0.0,0.0,0.0,0.0,0.0,0.0,0.0,0.0,0.0,0.0,0.0,0.0,0.0,0.0,0.0,0.0,0.0,0.0,0.0,0.0,0.0,0.0,0.0,0.0,0.0,0.0,0.0,0.0,0.0,0.0,0.0,0.0,0.0,0.0,0.0,0.0,0.0,0.0,0.0,0.0,0.0,0.0,0.0,0.0,0.0,0.0,0.0,0.0,0.0,0.0,0.0,0.0,0.0,0.0,0.0,0.0,0.0,0.0,0.0,0.0,0.0,0.0,0.0,0.0,0.0,0.0,0.0,0.0,0.0,0.0,0.0,0.0,0.0,0.0,0.0,0.0,0.0,0.0,0.0,0.0,0.0,0.0,0.0,0.0,0.0,0.0,0.0,0.0,0.0,0.0,0.0,0.0,0.0,0.0,0.0,0.0,0.0,0.0,0.0,0.0,0.0,0.0,0.0,0.0,0.0,0.0,0.0,0.0,0.0,0.0,0.0,0.0,0.0,0.0,0.0,0.0,0.0,0.0,0.0,0.0,0.0,0.0,0.0,0.0,0.0,0.0,0.0,0.0,0.0,0.0,0.0,0.0,0.0,0.0,0.0,0.0,0.0,0.0,0.0,0.0,0.0,0.0,0.0,0.0,0.0,0.0,0.0,0.0,0.0,0.0,0.0,0.0,0.0,0.0,0.0,0.0,0.0,0.0,0.0,0.0,0.0,0.0,0.0,0.0,0.0,0.0,0.0,0.0,0.0,0.0,0.0,0.0,0.0,0.0,0.0,0.0,0.0,0.0,0.0,0.0,0.0,0.0,0.0,0.0,0.0,0.0,0.0,0.0,0.0,0.0,0.0,0.0,0.0,0.0,0.0,0.0,0.0,0.0,0.0,0.0,0.0,0.0,0.0,0.0,0.0,0.0,0.0,0.0,0.0,0.0,0.0,0.0,0.0,0.0,0.0,0.0,0.0,0.0,0.0,0.0,0.0,0.0,0.0,0.0,0.0,0.0,0.0,0.0,0.0,0.0,0.0,0.0,0.0,0.0,0.0,0.0,0.0,0.0,0.0,0.0,0.0,0.0,0.0,0.0,0.0,0.0,0.0,0.0,0.0,0.0,0.0,0.0,0.0,0.0,0.0,0.0,0.0,0.0,0.0,0.0,0.0,0.0,0.0,0.0,0.0,0.0,0.0,0.0,0.0,0.0,0.0,0.0,0.0,0.0,0.0,0.0,0.0,0.0,0.0,0.0,0.0,0.0,0.0,0.0,0.0,0.0,0.0,0.0,0.0,0.0,0.0,0.0,0.0,0.0,0.0,0.0,0.0,0.0,0.0,0.0,0.0,0.0,0.0,0.0,0.0,0.0,0.0,0.0,0.0,0.0,0.0,0.0,0.0,0.0,0.0,0.0,0.0,0.0,0.0,0.0,0.0,0.0,0.0,0.0,0.0,0.0,0.0,0.0,0.0,0.0,0.0,0.0,0.0,0.0,0.0,0.0,0.0,0.0,0.0,0.0,0.0,0.0,0.0,0.0,0.0,0.0,0.0,0.0,0.0,0.0,0.0,0.0,0.0,0.0,0.0,0.0,0.0,0.0,0.0,0.0,0.0,0.0,0.0,0.0,0.0,0.0,0.0,0.0,0.0,0.0,0.0,0.0,0.0,0.0,0.0,0.0,0.0,0.0,0.0,0.0,0.0,0.0,0.0,0.0,0.0,0.0,0.0,0.0,0.0,0.0,0.0,0.0,0.0,0.0,0.0,0.0,0.0,0.0,0.0,0.0,0.0,0.0,0.0,0.0,0.0,0.0,0.0,0.0,0.0,0.0,0.0,0.0,0.0,0.0,0.0,0.0,0.0,0.0,0.0,0.0,0.0,0.0,0.0,0.0,0.0,0.0,0.0,0.0,0.0,0.0,0.0,0.0,0.0,0.0,0.0,0.0,0.0,0.0,0.0,0.0,0.0,0.0,0.0,0.0,0.0,0.0,0.0,0.0,0.0,0.0,0.0,0.0,0.0,0.0,0.0,0.0,0.0,0.0,0.0,0.0,0.0,0.0,0.0,0.0,0.0,0.0,0.0,0.0,0.0,0.0,0.0,0.0,0.0,0.0,0.0,0.0,0.0,0.0,0.0,0.0,0.0,0.0,0.0,0.0,0.0,0.0,0.0,0.0,0.0,0.0,0.0,0.0,0.0,0.0,0.0,0.0,0.0,0.0,0.0,0.0,0.0,0.0,0.0,0.0,0.0,0.0,0.0,0.0,0.0,0.0,0.0,0.0,0.0,0.0,0.0,0.0,0.0,0.0,0.0,0.0,0.0,0.0,0.0,0.0,0.0,0.0,0.0,0.0,0.0,0.0,0.0,0.0,0.0,0.0,0.0,0.0,0.0,0.0,0.0,0.0,0.0,0.0,0.0,0.0,0.0,0.0,0.0,0.0,0.0,0.0,0.0,0.0,0.0,0.0,0.0,0.0,0.0,0.0,0.0,0.0,0.0,0.0,0.0,0.0,0.0,0.0,0.0,0.0,0.0,0.0,0.0,0.0,0.0,0.0,0.0,0.0,0.0,0.0,0.0,0.0,0.0,0.0,0.0,0.0,0.0,0.0,0.0,0.0,0.0,0.0,0.0,0.0,0.0,0.0,0.0,0.0,0.0,0.0,0.0,0.0,0.0,0.0,0.0,0.0,0.0,0.0,0.0,0.0,0.0,0.0,0.0,0.0,0.0,0.0,0.0,0.0,0.0,0.0,0.0,0.0,0.0,0.0,0.0,0.0,0.0,0.0,0.0,0.0,0.0,0.0,0.0,0.0,0.0,0.0,0.0,0.0,0.0,0.0,0.0,0.0,0.0,0.0,0.0,0.0,0.0,0.0,0.0,0.0,0.0,0.0,0.0,0.0,0.0,0.0,0.0,0.0,0.0,0.0,0.0,0.0,0.0,0.0,0.0,0.0,0.0,0.0,0.0,0.0,0.0,0.0,0.0,0.0,0.0,0.0,0.0,0.0,0.0,0.0,0.0,0.0,0.0,0.0,0.0,0.0,0.0,0.0,0.0,0.0,0.0,0.0,0.0,0.0,0.0,0.0,0.0,0.0,0.0,0.0,0.0,0.0,0.0,0.0,0.0,0.0,0.0,0.0,0.0,0.0,0.0,0.0,0.0,0.0,0.0,0.0,0.0,0.0,0.0,0.0,0.0,0.0,0.0,0.0,0.0,0.0,0.0,0.0,0.0,0.0,0.0,0.0,0.0,0.0,0.0,0.0,0.0,0.0,0.0,0.0,0.0,0.0,0.0,0.0,0.0,0.0,0.0,0.0,0.0,0.0,0.0,0.0,0.0,0.0,0.0,0.0,0.0,0.0,0.0,0.0,0.0,0.0,0.0,0.0,0.0,0.0,0.0,0.0,0.0,0.0,0.0,0.0,0.0,0.0,0.0,0.0,0.0,0.0,0.0,0.0,0.0,0.0,0.0,0.0,0.0,0.0,0.0,0.0,0.0,0.0,0.0,0.0,0.0,0.0,0.0,0.0,0.0,0.0,0.0,0.0,0.0,0.0,0.0,0.0,0.0,0.0,0.0,0.0,0.0,0.0,0.0,0.0,0.0,0.0,0.0,0.0,0.0,0.0,0.0,0.0,0.0,0.0,0.0,0.0,0.0,0.0,0.0,0.0,0.0,0.0,0.0,0.0,0.0,0.0,0.0,0.0,0.0,0.0,0.0,0.0,0.0,0.0,0.0,0.0,0.0,0.0,0.0,0.0,0.0,0.0,0.0,0.0,0.0,0.0,0.0,0.0,0.0,0.0,2.1665,0.0,0.0,0.0,0.0,0.0,0.0,0.0,0.0,0.0,0.0,0.0,0.0,0.0,0.0,0.0,0.0,0.0,0.0,0.0,0.0,0.0,0.0,0.0,0.0,0.0,0.0,0.0,0.0,0.0,0.0,0.0,0.0,0.0,0.0,0.0,0.0,0.0,0.0,0.0,0.0,0.0,0.0,0.0,0.0,0.0,0.0,0.0,0.0,0.0,0.0,0.0,0.0,0.0,0.0,0.0,0.0,0.0,0.0,0.0,0.0,0.0,0.0,0.0,0.0,0.0,0.0,0.0,0.0,0.0,0.0,0.0,0.0,0.0,0.0,0.0,0.0,0.0,0.0,0.0,0.0,0.0,0.0,0.0,0.0,0.0,0.0,0.0,0.0,0.0,0.0,0.0,0.0,0.0,0.0,0.0,0.0,0.0,0.0,0.0,0.0,0.0,0.0,0.0,0.0,0.0,0.0,0.0,0.0,0.0,0.0,2.2299,2.2427,2.2522,2.2627,2.2742,0.0,0.0,0.0,0.0,0.0,0.0,0.0,0.0,0.0,0.0,0.0,0.0,0.0,0.0,0.0,0.0,0.0,0.0,0.0,0.0,0.0,0.0,0.0,0.0,0.0,0.0,0.0,0.0,0.0,0.0,0.0,0.0,0.0,0.0,0.0,0.0,0.0,0.0,0.0,0.0,0.0,0.0,0.0,0.0,0.0,0.0,0.0,0.0,0.0,0.0,0.0,0.0,0.0,0.0,0.0,0.0,0.0,0.0,0.0,0.0,0.0,0.0,0.0,0.0,0.0,0.0,0.0,0.0,0.0,0.0,0.0,0.0,0.0,0.0,0.0,0.0,0.0,0.0,0.0,0.0,0.0,0.0,0.0,0.0,0.0,0.0,0.0,0.0,0.0,0.0,0.0,0.0,0.0,0.0,0.0,0.0,0.0,0.0,0.0,0.0,0.0,0.0,0.0,0.0,0.0,0.0,0.0,0.0,0.0,0.0,0.0,0.0,2.3525,2.3566,2.3685,0.0,0.0,0.0,0.0,0.0,0.0,0.0,0.0,0.0,0.0,0.0,0.0,0.0,0.0,0.0,0.0,0.0,0.0,0.0,0.0,0.0,0.0,0.0,0.0,0.0,0.0,0.0,0.0,0.0,0.0,0.0,0.0,0.0,0.0,0.0,0.0,0.0,0.0,0.0,0.0,0.0,0.0,0.0,0.0,0.0,0.0,0.0,0.0,0.0,0.0,0.0,0.0,0.0,0.0,0.0,0.0,0.0,0.0,0.0,0.0,0.0,0.0,0.0,0.0,0.0,0.0,0.0,0.0,0.0,0.0,0.0,0.0,0.0,0.0,0.0,0.0,0.0,0.0,0.0,0.0,0.0,0.0,0.0,0.0,0.0,0.0,0.0,0.0,0.0,0.0,0.0,0.0,0.0,0.0,0.0,0.0,0.0,0.0,0.0,0.0,0.0,0.0,0.0,0.0,0.0,0.0,0.0,0.0,0.0,0.0,2.364,2.4345,2.3892,0.0,2.3961,0.0,0.0,0.0,0.0,0.0,0.0,0.0,0.0,0.0,0.0,0.0,0.0,0.0,0.0,0.0,0.0,0.0,0.0,0.0,0.0,0.0,0.0,0.0,0.0,0.0,0.0,0.0,0.0,0.0,0.0,0.0,0.0,0.0,0.0,0.0,0.0,0.0,0.0,0.0,0.0,0.0,0.0,0.0,0.0,0.0,0.0,0.0,0.0,0.0,0.0,0.0,0.0,0.0,0.0,0.0,0.0,0.0,0.0,0.0,0.0,0.0,0.0,0.0,0.0,0.0,0.0,0.0,0.0,0.0,0.0,0.0,0.0,0.0,0.0,0.0,0.0,0.0,0.0,0.0,0.0,0.0,0.0,0.0,0.0,0.0,0.0,0.0,0.0,0.0,0.0,0.0,0.0,0.0,0.0,0.0,0.0,0.0,0.0,0.0,0.0,0.0,0.0,0.0,0.0,0.0,0.0,0.0,0.0,0.0,0.0,2.4352,2.501,2.4858,2.4721,0.0,0.0,0.0,0.0,0.0,0.0,0.0,0.0,0.0,0.0,0.0,0.0,0.0,0.0,0.0,0.0,0.0,0.0,0.0,0.0,0.0,0.0,0.0,0.0,0.0,0.0,0.0,0.0,0.0,0.0,0.0,0.0,0.0,0.0,0.0,0.0,0.0,0.0,0.0,0.0,0.0,0.0,0.0,0.0,0.0,0.0,0.0,0.0,0.0,0.0,0.0,0.0,0.0,0.0,0.0,0.0,0.0,0.0,0.0,0.0,0.0,0.0,0.0,0.0,0.0,0.0,0.0,0.0,0.0,0.0,0.0,0.0,0.0,0.0,0.0,0.0,0.0,0.0,0.0,0.0,0.0,0.0,0.0,0.0,0.0,0.0,0.0,0.0,0.0,0.0,0.0,0.0,0.0,0.0,0.0,0.0,0.0,0.0,0.0,0.0,0.0,0.0,0.0,0.0,0.0,0.0,0.0,0.0,0.0,0.0,2.4619,2.4974,2.5455,2.5747,2.5581,2.5025,0.0,0.0,0.0,0.0,0.0,0.0,0.0,0.0,0.0,0.0,0.0,0.0,0.0,0.0,0.0,0.0,0.0,0.0,0.0,0.0,0.0,0.0,0.0,0.0,0.0,0.0,0.0,0.0,0.0,0.0,0.0,0.0,0.0,0.0,0.0,0.0,0.0,0.0,0.0,0.0,0.0,0.0,0.0,0.0,0.0,0.0,0.0,0.0,0.0,0.0,0.0,0.0,0.0,0.0,0.0,0.0,0.0,0.0,0.0,0.0,0.0,0.0,0.0,0.0,0.0,0.0,0.0,0.0,0.0,0.0,0.0,0.0,0.0,0.0,0.0,0.0,0.0,0.0,0.0,0.0,0.0,0.0,0.0,0.0,0.0,0.0,0.0,0.0,0.0,0.0,0.0,0.0,0.0,0.0,0.0,0.0,0.0,0.0,0.0,0.0,0.0,0.0,0.0,0.0,0.0,0.0,0.0,0.0,2.4505,2.507,2.5455,2.5633,2.6213,2.6062,0.0,0.0,0.0,0.0,0.0,0.0,0.0,0.0,0.0,0.0,0.0,0.0,0.0,0.0,0.0,0.0,0.0,0.0,0.0,0.0,0.0,0.0,0.0,0.0,0.0,0.0,0.0,0.0,0.0,0.0,0.0,0.0,0.0,0.0,0.0,0.0,0.0,0.0,0.0,0.0,0.0,0.0,0.0,0.0,0.0,0.0,0.0,0.0,0.0,0.0,0.0,0.0,0.0,0.0,0.0,0.0,0.0,0.0,0.0,0.0,0.0,0.0,0.0,0.0,0.0,0.0,0.0,0.0,0.0,0.0,0.0,0.0,0.0,0.0,0.0,0.0,0.0,0.0,0.0,0.0,0.0,0.0,0.0,0.0,0.0,0.0,0.0,0.0,0.0,0.0,0.0,0.0,0.0,0.0,0.0,0.0,0.0,0.0,0.0,0.0,0.0,0.0,0.0,0.0,0.0,0.0,0.0,0.0,0.0,2.5216,2.6243,2.6847,2.6884,2.7136,2.6735,0.0,0.0,0.0,0.0,0.0,0.0,0.0,0.0,0.0,0.0,0.0,0.0,0.0,0.0,0.0,0.0,0.0,0.0,0.0,0.0,0.0,0.0,0.0,0.0,0.0,0.0,0.0,0.0,0.0,0.0,0.0,0.0,0.0,0.0,0.0,0.0,0.0,0.0,0.0,0.0,0.0,0.0,0.0,0.0,0.0,0.0,0.0,0.0,0.0,0.0,0.0,0.0,0.0,0.0,0.0,0.0,0.0,0.0,0.0,0.0,0.0,0.0,0.0,0.0,0.0,0.0,0.0,0.0,0.0,0.0,0.0,0.0,0.0,0.0,0.0,0.0,0.0,0.0,0.0,0.0,0.0,0.0,0.0,0.0,0.0,0.0,0.0,0.0,0.0,0.0,0.0,0.0,0.0,0.0,0.0,0.0,0.0,0.0,0.0,0.0,0.0,0.0,0.0,0.0,0.0,0.0,0.0,0.0,0.0,2.6243,0.0,2.7585,2.7585,2.7585,2.7217,0.0,0.0,0.0,0.0,0.0,0.0,0.0,0.0,0.0,0.0,0.0,0.0,0.0,0.0,0.0,0.0,0.0,0.0,0.0,0.0,0.0,0.0,0.0,0.0,0.0,0.0,0.0,0.0,0.0,0.0,0.0,0.0,0.0,0.0,0.0,0.0,0.0,0.0,0.0,0.0,0.0,0.0,0.0,0.0,0.0,0.0,0.0,0.0,0.0,0.0,0.0,0.0,0.0,0.0,0.0,0.0,0.0,0.0,0.0,0.0,0.0,0.0,0.0,0.0,0.0,0.0,0.0,0.0,0.0,0.0,0.0,0.0,0.0,0.0,0.0,0.0,0.0,0.0,0.0,0.0,0.0,0.0,0.0,0.0,0.0,0.0,0.0,0.0,0.0,0.0,0.0,0.0,0.0,0.0,0.0,0.0,0.0,0.0,0.0,0.0,0.0,0.0,0.0,0.0,0.0,0.0,0.0,0.0,2.6243,2.7525,2.7627,2.7675,2.7615,2.7645,2.7427,0.0,0.0,0.0,0.0,0.0,0.0,0.0,0.0,0.0,0.0,0.0,0.0,0.0,0.0,0.0,0.0,0.0,0.0,0.0,0.0,0.0,0.0,0.0,0.0,0.0,0.0,0.0,0.0,0.0,0.0,0.0,0.0,0.0,0.0,0.0,0.0,0.0,0.0,0.0,0.0,0.0,0.0,0.0,0.0,0.0,0.0,0.0,0.0,0.0,0.0,0.0,0.0,0.0,0.0,0.0,0.0,0.0,0.0,0.0,0.0,0.0,0.0,0.0,0.0,0.0,0.0,0.0,0.0,0.0,0.0,0.0,0.0,0.0,0.0,0.0,0.0,0.0,0.0,0.0,0.0,0.0,0.0,0.0,0.0,0.0,0.0,0.0,0.0,0.0,0.0,0.0,0.0,0.0,0.0,0.0,0.0,0.0,0.0,0.0,0.0,0.0,0.0,0.0,0.0,0.0,0.0,0.0,0.0,0.0,2.8261,2.8291,2.85,2.8933,2.853,2.8068,0.0,0.0,0.0,0.0,0.0,0.0,0.0,0.0,0.0,0.0,0.0,0.0,0.0,0.0,0.0,0.0,0.0,0.0,0.0,0.0,0.0,0.0,0.0,0.0,0.0,0.0,0.0,0.0,0.0,0.0,0.0,0.0,0.0,0.0,0.0,0.0,0.0,0.0,0.0,0.0,0.0,0.0,0.0,0.0,0.0,0.0,0.0,0.0,0.0,0.0,0.0,0.0,0.0,0.0,0.0,0.0,0.0,0.0,0.0,0.0,0.0,0.0,0.0,0.0,0.0,0.0,0.0,0.0,0.0,0.0,0.0,0.0,0.0,0.0,0.0,0.0,0.0,0.0,0.0,0.0,0.0,0.0,0.0,0.0,0.0,0.0,0.0,0.0,0.0,0.0,0.0,0.0,0.0,0.0,0.0,0.0,0.0,0.0,0.0,0.0,0.0,0.0,0.0,0.0,0.0,0.0,0.0,0.0,0.0,2.9611,2.9235,2.9189,2.9608,2.9189,2.8715,2.8195,0.0,0.0,0.0,0.0,0.0,0.0,0.0,0.0,0.0,0.0,0.0,0.0,0.0,0.0,0.0,0.0,0.0,0.0,0.0,0.0,0.0,0.0,0.0,0.0,0.0,0.0,0.0,0.0,0.0,0.0,0.0,0.0,0.0,0.0,0.0,0.0,0.0,0.0,0.0,0.0,0.0,0.0,0.0,0.0,0.0,0.0,0.0,0.0,0.0,0.0,0.0,0.0,0.0,0.0,0.0,0.0,0.0,0.0,0.0,0.0,0.0,0.0,0.0,0.0,0.0,0.0,0.0,0.0,0.0,0.0,0.0,0.0,0.0,0.0,0.0,0.0,0.0,0.0,0.0,0.0,0.0,0.0,0.0,0.0,0.0,0.0,0.0,0.0,0.0,0.0,0.0,0.0,0.0,0.0,0.0,0.0,0.0,0.0,0.0,0.0,0.0,0.0,0.0,0.0,0.0,0.0,0.0,0.0,3.1481,3.0402,2.9817,2.9801,2.9758,2.9435,0.0,0.0,0.0,0.0,0.0,0.0,0.0,0.0,0.0,0.0,0.0,0.0,0.0,0.0,0.0,0.0,0.0,0.0,0.0,0.0,0.0,0.0,0.0,0.0,0.0,0.0,0.0,0.0,0.0,0.0,0.0,0.0,0.0,0.0,0.0,0.0,0.0,0.0,0.0,0.0,0.0,0.0,0.0,0.0,0.0,0.0,0.0,0.0,0.0,0.0,0.0,0.0,0.0,0.0,0.0,0.0,0.0,0.0,0.0,0.0,0.0,0.0,0.0,0.0,0.0,0.0,0.0,0.0,0.0,0.0,0.0,0.0,0.0,0.0,0.0,0.0,0.0,0.0,0.0,0.0,0.0,0.0,0.0,0.0,0.0,0.0,0.0,0.0,0.0,0.0,0.0,0.0,0.0,0.0,0.0,0.0,0.0,0.0,0.0,0.0,0.0,0.0,0.0,0.0,0.0,0.0,0.0,0.0,0.0,3.1481,3.2123,3.2228,3.1749,3.1256,3.0702,0.0,0.0,0.0,0.0,0.0,0.0,0.0,0.0,0.0,0.0,0.0,0.0,0.0,0.0,0.0,0.0,0.0,0.0,0.0,0.0,0.0,0.0,0.0,0.0,0.0,0.0,0.0,0.0,0.0,0.0,0.0,0.0,0.0,0.0,0.0,0.0,0.0,0.0,0.0,0.0,0.0,0.0,0.0,0.0,0.0,0.0,0.0,0.0,0.0,0.0,0.0,0.0,0.0,0.0,0.0,0.0,0.0,0.0,0.0,0.0,0.0,0.0,0.0,0.0,0.0,0.0,0.0,0.0,0.0,0.0,0.0,0.0,0.0,0.0,0.0,0.0,0.0,0.0,0.0,0.0,0.0,0.0,0.0,0.0,0.0,0.0,0.0,0.0,0.0,0.0,0.0,0.0,0.0,0.0,0.0,0.0,0.0,0.0,0.0,0.0,0.0,0.0,0.0,0.0,0.0,0.0,0.0,0.0,3.178,3.2333,3.3395,3.3739,3.3335,3.2422,3.1615,0.0,0.0,0.0,0.0,0.0,0.0,0.0,0.0,0.0,0.0,0.0,0.0,0.0,0.0,0.0,0.0,0.0,0.0,0.0,0.0,0.0,0.0,0.0,0.0,0.0,0.0,0.0,0.0,0.0,0.0,0.0,0.0,0.0,0.0,0.0,0.0,0.0,0.0,0.0,0.0,0.0,0.0,0.0,0.0,0.0,0.0,0.0,0.0,0.0,0.0,0.0,0.0,0.0,0.0,0.0,0.0,0.0,0.0,0.0,0.0,0.0,0.0,0.0,0.0,0.0,0.0,0.0,0.0,0.0,0.0,0.0,0.0,0.0,0.0,0.0,0.0,0.0,0.0,0.0,0.0,0.0,0.0,0.0,0.0,0.0,0.0,0.0,0.0,0.0,0.0,0.0,0.0,0.0,0.0,0.0,0.0,0.0,0.0,0.0,0.0,0.0,0.0,0.0,0.0,0.0,0.0,0.0,0.0,3.2362,3.3664,3.4368,3.4713,3.4667,3.3425,3.2362,0.0,0.0,0.0,0.0,0.0,0.0,0.0,0.0,0.0,0.0,0.0,0.0,0.0,0.0,0.0,0.0,0.0,0.0,0.0,0.0,0.0,0.0,0.0,0.0,0.0,0.0,0.0,0.0,0.0,0.0,0.0,0.0,0.0,0.0,0.0,0.0,0.0,0.0,0.0,0.0,0.0,0.0,0.0,0.0,0.0,0.0,0.0,0.0,0.0,0.0,0.0,0.0,0.0,0.0,0.0,0.0,0.0,0.0,0.0,0.0,0.0,0.0,0.0,0.0,0.0,0.0,0.0,0.0,0.0,0.0,0.0,0.0,0.0,0.0,0.0,0.0,0.0,0.0,0.0,0.0,0.0,0.0,0.0,0.0,0.0,0.0,0.0,0.0,0.0,0.0,0.0,0.0,0.0,0.0,0.0,0.0,0.0,0.0,0.0,0.0,0.0,0.0,0.0,0.0,0.0,0.0,0.0,0.0,3.3724,3.504,3.5745,3.6074,3.6074,3.4757,3.3484,0.0,0.0,0.0,0.0,0.0,0.0,0.0,0.0,0.0,0.0,0.0,0.0,0.0,0.0,0.0,0.0,0.0,0.0,0.0,0.0,0.0,0.0,0.0,0.0,0.0,0.0,0.0,0.0,0.0,0.0,0.0,0.0,0.0,0.0,0.0,0.0,0.0,0.0,0.0,0.0,0.0,0.0,0.0,0.0,0.0,0.0,0.0,0.0,3.1092,0.0,0.0,0.0,0.0,0.0,0.0,0.0,0.0,0.0,0.0,0.0,0.0,0.0,0.0,0.0,0.0,0.0,0.0,0.0,0.0,0.0,0.0,0.0,0.0,0.0,0.0,0.0,0.0,0.0,0.0,0.0,0.0,0.0,0.0,0.0,0.0,0.0,0.0,0.0,0.0,0.0,0.0,0.0,0.0,0.0,0.0,0.0,0.0,0.0,0.0,0.0,0.0,0.0,0.0,0.0,0.0,0.0,0.0,0.0,3.4173,3.5459,3.6148,3.6493,3.6493,3.5805,3.4667,0.0,0.0,0.0,0.0,0.0,0.0,0.0,0.0,0.0,0.0,0.0,0.0,0.0,0.0,0.0,0.0,0.0,0.0,0.0,0.0,0.0,0.0,0.0,0.0,0.0,0.0,0.0,0.0,0.0,0.0,0.0,0.0,0.0,0.0,0.0,0.0,0.0,0.0,0.0,0.0,0.0,0.0,0.0,0.0,0.0,0.0,0.0,0.0,0.0,0.0,0.0,0.0,0.0,0.0,0.0,0.0,0.0,0.0,0.0,0.0,0.0,0.0,0.0,0.0,0.0,0.0,0.0,0.0,0.0,0.0,0.0,0.0,0.0,0.0,0.0,0.0,0.0,0.0,0.0,0.0,0.0,0.0,0.0,0.0,0.0,0.0,0.0,0.0,0.0,0.0,0.0,0.0,0.0,0.0,0.0,0.0,0.0,0.0,0.0,0.0,0.0,0.0,0.0,0.0,0.0,0.0,0.0,3.2976,3.4352,3.5729,3.6464,3.6733,3.6643,3.6643,3.5655,3.362,0.0,0.0,0.0,0.0,0.0,0.0,0.0,0.0,0.0,0.0,0.0,0.0,0.0,0.0,0.0,0.0,0.0,0.0,0.0,0.0,0.0,0.0,0.0,0.0,0.0,0.0,0.0,0.0,0.0,0.0,0.0,0.0,0.0,0.0,0.0,0.0,0.0,0.0,2.7944,2.9564,0.0,0.0,0.0,0.0,0.0,0.0,0.0,0.0,3.172,0.0,0.0,0.0,0.0,0.0,0.0,0.0,0.0,0.0,0.0,0.0,0.0,0.0,0.0,0.0,0.0,0.0,0.0,0.0,0.0,0.0,0.0,0.0,0.0,0.0,0.0,0.0,0.0,0.0,0.0,0.0,0.0,0.0,0.0,0.0,0.0,0.0,0.0,0.0,0.0,0.0,0.0,0.0,0.0,0.0,0.0,0.0,0.0,0.0,0.0,0.0,0.0,0.0,0.0,0.0,0.0,3.2333,3.3664,3.5236,3.7045,3.7734,3.7823,3.7285,3.7255,3.6107,3.3833,0.0,0.0,0.0,0.0,0.0,0.0,0.0,0.0,0.0,0.0,0.0,0.0,0.0,0.0,0.0,0.0,0.0,0.0,0.0,0.0,0.0,0.0,0.0,0.0,0.0,0.0,0.0,0.0,0.0,0.0,0.0,0.0,0.0,0.0,0.0,0.0,0.0,0.0,0.0,3.0777,3.1585,0.0,0.0,0.0,0.0,0.0,0.0,0.0,0.0,3.2333,0.0,0.0,0.0,0.0,0.0,0.0,0.0,0.0,0.0,0.0,0.0,0.0,0.0,0.0,0.0,0.0,0.0,0.0,0.0,0.0,0.0,0.0,0.0,0.0,0.0,0.0,0.0,0.0,0.0,0.0,0.0,0.0,0.0,0.0,0.0,0.0,0.0,0.0,0.0,0.0,0.0,0.0,0.0,0.0,0.0,0.0,0.0,0.0,0.0,0.0,0.0,0.0,0.0,0.0,0.0,3.2976,3.4322,3.5789,3.7327,3.8063,3.808,3.7434,3.749,3.6375,0.0,0.0,0.0,0.0,0.0,0.0,0.0,0.0,0.0,0.0,0.0,0.0,0.0,0.0,0.0,0.0,0.0,0.0,0.0,0.0,0.0,0.0,0.0,0.0,0.0,0.0,0.0,0.0,0.0,0.0,0.0,0.0,0.0,0.0,0.0,0.0,0.0,0.0,0.0,0.0,3.16,3.2273,3.2916,0.0,0.0,0.0,0.0,0.0,0.0,3.3215,3.2991,0.0,0.0,0.0,0.0,0.0,0.0,0.0,0.0,0.0,0.0,0.0,0.0,0.0,0.0,0.0,0.0,0.0,0.0,0.0,0.0,0.0,0.0,0.0,0.0,0.0,0.0,0.0,0.0,0.0,0.0,0.0,0.0,0.0,0.0,0.0,0.0,0.0,0.0,0.0,0.0,0.0,0.0,0.0,0.0,0.0,0.0,0.0,0.0,0.0,0.0,0.0,0.0,0.0,0.0,0.0,3.3455,3.4951,3.6267,3.7375,3.8217,3.8265,3.7469,3.7656,3.6556,0.0,0.0,0.0,0.0,0.0,0.0,0.0,0.0,0.0,0.0,0.0,0.0,0.0,0.0,0.0,0.0,0.0,0.0,0.0,0.0,0.0,0.0,0.0,0.0,0.0,0.0,0.0,0.0,0.0,0.0,0.0,0.0,0.0,0.0,0.0,0.0,0.0,0.0,0.0,0.0,0.0,3.2931,3.3604,3.3829,0.0,0.0,0.0,0.0,3.3903,3.3784,0.0,0.0,0.0,0.0,0.0,0.0,0.0,0.0,0.0,0.0,0.0,0.0,0.0,0.0,0.0,0.0,0.0,0.0,0.0,0.0,0.0,0.0,0.0,0.0,0.0,0.0,0.0,0.0,0.0,0.0,0.0,0.0,0.0,0.0,0.0,0.0,0.0,0.0,0.0,0.0,0.0,0.0,0.0,0.0,0.0,0.0,0.0,0.0,0.0,0.0,0.0,0.0,0.0,0.0,0.0,0.0,3.3484,3.54,3.6716,3.7434,3.8808,3.8938,3.7733,3.7873,3.6765,0.0,0.0,0.0,0.0,0.0,0.0,0.0,0.0,0.0,0.0,0.0,0.0,0.0,0.0,0.0,0.0,0.0,0.0,0.0,0.0,0.0,0.0,0.0,0.0,0.0,0.0,0.0,0.0,0.0,0.0,0.0,0.0,0.0,0.0,0.0,0.0,0.0,0.0,0.0,0.0,0.0,3.3604,3.4278,3.4907,3.5264,0.0,0.0,3.528,3.528,3.4787,0.0,0.0,0.0,0.0,0.0,0.0,0.0,0.0,0.0,0.0,0.0,0.0,0.0,0.0,0.0,0.0,0.0,0.0,0.0,0.0,0.0,0.0,0.0,0.0,0.0,0.0,0.0,0.0,0.0,0.0,0.0,0.0,0.0,0.0,0.0,0.0,0.0,0.0,0.0,0.0,0.0,0.0,0.0,0.0,0.0,0.0,0.0,0.0,0.0,0.0,0.0,0.0,0.0,0.0,0.0,3.2437,3.4069,3.6113,3.7468,3.8146,3.9285,3.9221,3.7903,3.8027,3.7063,0.0,0.0,0.0,0.0,0.0,0.0,0.0,0.0,0.0,0.0,0.0,0.0,0.0,0.0,0.0,0.0,0.0,0.0,0.0,0.0,0.0,0.0,0.0,0.0,0.0,0.0,0.0,0.0,0.0,0.0,0.0,0.0,0.0,0.0,0.0,0.0,0.0,0.0,0.0,0.0,0.0,0.0,3.4967,3.5639,0.0,0.0,0.0,3.6596,3.6596,0.0,0.0,0.0,0.0,0.0,0.0,0.0,0.0,0.0,0.0,0.0,0.0,0.0,0.0,0.0,0.0,0.0,0.0,0.0,0.0,0.0,0.0,0.0,0.0,0.0,0.0,0.0,0.0,0.0,0.0,0.0,0.0,0.0,0.0,0.0,0.0,0.0,0.0,0.0,0.0,0.0,0.0,0.0,0.0,0.0,0.0,0.0,0.0,0.0,0.0,0.0,0.0,0.0,0.0,0.0,0.0,0.0,3.4629,3.6682,3.8107,3.8758,3.9629,3.9504,3.8348,3.8352,0.0,0.0,0.0,0.0,0.0,0.0,0.0,0.0,0.0,0.0,0.0,0.0,0.0,0.0,0.0,0.0,0.0,0.0,0.0,0.0,0.0,0.0,0.0,0.0,0.0,0.0,0.0,2.8906,0.0,0.0,0.0,0.0,0.0,0.0,0.0,0.0,0.0,0.0,0.0,0.0,0.0,0.0,3.4997,3.5639,3.6297,3.6716,0.0,0.0,3.7387,3.7387,3.7387,3.7255,0.0,0.0,0.0,0.0,0.0,0.0,0.0,0.0,0.0,0.0,0.0,0.0,0.0,0.0,0.0,0.0,0.0,0.0,0.0,0.0,0.0,0.0,0.0,0.0,0.0,0.0,0.0,0.0,0.0,0.0,0.0,0.0,0.0,0.0,0.0,0.0,0.0,0.0,0.0,0.0,0.0,0.0,0.0,0.0,0.0,0.0,0.0,0.0,0.0,0.0,0.0,0.0,0.0,0.0,0.0,3.4986,3.6959,3.8294,3.8965,3.9838,3.9925,3.9144,3.8879,3.8101,0.0,0.0,0.0,0.0,0.0,0.0,0.0,0.0,0.0,0.0,0.0,0.0,0.0,0.0,0.0,0.0,0.0,0.0,0.0,0.0,0.0,0.0,0.0,0.0,0.0,0.0,0.0,0.0,0.0,0.0,0.0,0.0,0.0,0.0,0.0,0.0,0.0,0.0,0.0,0.0,0.0,3.5669,3.6344,3.6956,3.7345,0.0,0.0,3.7387,3.7387,3.7387,3.7387,3.7327,0.0,0.0,0.0,0.0,0.0,0.0,0.0,0.0,0.0,0.0,0.0,0.0,0.0,0.0,0.0,0.0,0.0,0.0,0.0,0.0,0.0,0.0,0.0,0.0,0.0,0.0,0.0,0.0,0.0,0.0,0.0,0.0,0.0,0.0,0.0,0.0,0.0,0.0,0.0,0.0,0.0,0.0,0.0,0.0,0.0,0.0,0.0,0.0,0.0,0.0,0.0,0.0,0.0,3.4471,3.6218,3.7616,3.8831,3.9889,4.0502,4.0453,3.9772,3.9674,3.8931,0.0,0.0,0.0,0.0,0.0,0.0,0.0,0.0,0.0,0.0,0.0,0.0,0.0,0.0,0.0,0.0,0.0,0.0,0.0,0.0,0.0,0.0,0.0,0.0,0.0,0.0,0.0,0.0,3.0867,3.1212,3.1481,0.0,0.0,0.0,0.0,0.0,0.0,0.0,0.0,0.0,0.0,3.6327,3.6956,3.7614,0.0,0.0,3.8362,3.8644,3.8644,3.8644,3.8494,3.8063,3.7823,0.0,0.0,0.0,0.0,0.0,0.0,0.0,0.0,0.0,0.0,0.0,0.0,0.0,0.0,0.0,0.0,0.0,0.0,0.0,0.0,0.0,0.0,0.0,0.0,0.0,0.0,0.0,0.0,0.0,0.0,0.0,0.0,0.0,0.0,0.0,0.0,0.0,0.0,0.0,0.0,0.0,0.0,0.0,0.0,0.0,0.0,0.0,0.0,0.0,0.0,0.0,0.0,3.5477,3.7269,3.8437,3.9699,4.1059,4.118,4.1129,4.0864,4.0489,3.9831,0.0,0.0,0.0,0.0,0.0,0.0,0.0,0.0,0.0,0.0,0.0,0.0,0.0,0.0,0.0,0.0,0.0,0.0,0.0,0.0,0.0,0.0,0.0,0.0,0.0,0.0,0.0,0.0,3.1824,3.2093,3.2108,0.0,0.0,0.0,0.0,0.0,0.0,0.0,0.0,0.0,0.0,3.7225,3.7644,3.8272,3.8691,3.8691,3.9092,3.9421,3.9421,3.9421,3.9212,3.8781,0.0,0.0,0.0,0.0,0.0,0.0,0.0,0.0,0.0,0.0,0.0,0.0,0.0,0.0,0.0,0.0,0.0,0.0,0.0,0.0,0.0,0.0,0.0,0.0,0.0,0.0,0.0,0.0,0.0,0.0,2.7561,0.0,0.0,0.0,0.0,0.0,0.0,0.0,0.0,0.0,0.0,0.0,0.0,0.0,0.0,0.0,0.0,0.0,0.0,0.0,0.0,0.0,0.0,3.6641,3.7997,3.9516,4.0946,4.2282,4.1853,4.1953,4.2555,4.1452,4.0769,4.0722,0.0,0.0,0.0,0.0,0.0,0.0,0.0,0.0,0.0,0.0,0.0,0.0,0.0,0.0,0.0,0.0,0.0,0.0,0.0,0.0,0.0,0.0,0.0,0.0,0.0,0.0,3.3305,3.3425,3.3425,0.0,0.0,0.0,0.0,0.0,0.0,0.0,0.0,0.0,0.0,3.7571,3.838,3.8392,3.899,3.9421,3.9391,3.9421,3.9421,3.9451,3.9451,3.9391,0.0,0.0,0.0,0.0,0.0,0.0,0.0,0.0,0.0,0.0,0.0,0.0,0.0,0.0,0.0,0.0,0.0,0.0,0.0,0.0,0.0,0.0,0.0,0.0,0.0,0.0,0.0,3.1296,3.0881,0.0,0.0,0.0,0.0,0.0,0.0,0.0,0.0,0.0,0.0,0.0,3.7655,3.8132,0.0,0.0,0.0,0.0,0.0,0.0,0.0,0.0,0.0,0.0,0.0,0.0,3.7912,3.9708,4.0928,4.2266,4.3619,4.3563,4.3439,4.3247,4.2701,4.1949,4.0991,0.0,0.0,0.0,0.0,0.0,0.0,0.0,0.0,0.0,0.0,0.0,0.0,0.0,0.0,0.0,0.0,0.0,0.0,0.0,0.0,0.0,0.0,0.0,0.0,0.0,3.3245,0.0,0.0,0.0,0.0,0.0,0.0,0.0,0.0,0.0,0.0,0.0,3.7015,3.7674,3.8512,3.923,3.9679,4.0277,4.0726,0.0,0.0,0.0,0.0,0.0,0.0,0.0,0.0,0.0,0.0,0.0,0.0,0.0,0.0,3.9768,3.8883,3.8733,3.8733,3.8703,0.0,0.0,0.0,0.0,0.0,0.0,0.0,0.0,0.0,0.0,0.0,0.0,0.0,0.0,3.3319,0.0,3.2992,0.0,0.0,0.0,0.0,0.0,0.0,0.0,0.0,3.8306,3.9124,3.9861,4.0599,4.0968,0.0,4.0576,3.9409,0.0,0.0,0.0,0.0,0.0,0.0,0.0,0.0,3.9474,4.1278,4.2318,4.3525,4.483,4.4835,4.4707,4.4513,4.3864,4.2879,4.1491,4.0058,3.9003,0.0,0.0,0.0,0.0,0.0,0.0,0.0,0.0,0.0,0.0,0.0,0.0,0.0,0.0,0.0,0.0,0.0,0.0,0.0,0.0,0.0,0.0,0.0,3.4203,0.0,0.0,0.0,0.0,0.0,0.0,0.0,0.0,0.0,3.6207,3.7336,3.8377,3.8797,3.9691,4.0479,4.09,0.0,0.0,0.0,0.0,0.0,0.0,0.0,4.1701,4.193,4.1961,4.2111,4.2593,4.2634,4.2724,4.2954,0.0,0.0,4.0445,4.0098,4.0127,4.0098,4.0098,4.0139,4.0397,4.0457,4.0696,0.0,0.0,0.0,0.0,0.0,0.0,0.0,0.0,3.5329,3.5452,0.0,3.5341,0.0,0.0,0.0,0.0,0.0,3.7497,0.0,0.0,4.0555,4.1306,4.1589,4.2266,4.2668,4.2792,4.298,4.2683,4.1837,3.8908,0.0,0.0,0.0,0.0,0.0,0.0,4.1333,4.2793,4.3682,4.4772,4.6076,4.5685,4.5733,4.6323,4.4996,4.362,4.2243,4.1945,4.1143,3.9635,3.8728,0.0,0.0,0.0,0.0,0.0,0.0,0.0,0.0,0.0,0.0,0.0,0.0,0.0,0.0,0.0,0.0,0.0,0.0,0.0,0.0,3.5176,0.0,0.0,0.0,0.0,0.0,0.0,0.0,0.0,0.0,0.0,3.7785,3.8885,3.9775,3.9775,0.0,0.0,0.0,0.0,4.2105,4.2136,4.2105,4.2166,4.2166,4.2166,4.2379,4.3024,0.0,0.0,4.4797,4.5009,4.5172,4.586,4.5839,4.5041,4.2147,4.1651,4.1621,4.1621,4.1651,4.1801,4.234,4.2559,4.2869,4.0056,0.0,0.0,0.0,0.0,3.689,3.7233,3.7467,3.7871,3.7931,3.7769,3.7731,0.0,0.0,0.0,0.0,0.0,0.0,4.0393,4.1803,4.2744,4.3537,4.4168,4.4413,4.451,4.459,4.4749,4.4729,4.4481,4.3332,4.1778,3.9909,0.0,0.0,0.0,0.0,4.3287,4.4747,4.5772,4.6709,4.7588,4.7471,4.7173,4.6779,4.5821,4.4865,4.3837,4.3232,4.2359,4.1176,4.0298,0.0,0.0,0.0,0.0,0.0,0.0,0.0,0.0,0.0,0.0,0.0,0.0,0.0,0.0,0.0,0.0,0.0,0.0,0.0,3.6891,3.7163,3.7284,0.0,0.0,0.0,0.0,0.0,0.0,0.0,0.0,0.0,4.0686,4.1073,4.1334,0.0,0.0,4.2713,4.2701,4.3502,4.4128,4.4128,0.0,0.0,0.0,4.4857,4.4918,4.512,4.5151,4.5272,4.5647,4.5708,4.5768,4.6001,4.5981,4.5667,4.493,4.4699,4.4668,4.4699,4.4679,4.4729,4.491,4.4971,4.5002,4.3875,4.1208,3.9692,3.9076,3.9092,3.9487,3.9834,4.0087,4.0357,4.042,4.0356,4.021,3.9967,3.9674,3.9794,0.0,0.0,0.0,4.2698,4.4015,4.5077,4.5894,4.6484,4.711,4.7374,4.7439,4.7586,4.7468,4.7169,4.6942,4.5863,4.398,0.0,0.0,4.3337,4.4155,4.5295,4.6689,4.736,4.8055,4.8708,4.8441,4.7942,4.7147,4.6664,4.6052,4.5262,4.4483,4.3635,4.2595,4.1755,4.0634,0.0,0.0,0.0,0.0,0.0,0.0,0.0,0.0,0.0,0.0,0.0,3.4055,3.4821,0.0,0.0,0.0,3.6552,3.7129,3.7903,3.801,0.0,0.0,0.0,0.0,0.0,0.0,0.0,4.0822,4.151,4.2199,4.2926,4.325,4.3213,4.2589,4.3407,4.4044,4.4044,0.0,4.5613,4.5613,4.5999,4.6224,4.6244,4.6304,4.6476,4.6852,4.7149,4.7302,4.7302,4.7302,4.7282,4.7211,4.7191,4.714,4.7038,4.7017,4.6773,4.6143,4.5981,4.6072,4.6336,4.6406,4.6487,4.7291,4.6425,4.3859,4.2719,4.2526,4.2526,4.2894,4.339,4.2734,4.2815,4.3327,4.2719,4.243,4.2478,4.2845,0.0,4.4232,4.4692,4.5261,4.5988,4.7504,4.8297,4.8559,4.9859,5.0593,5.0676,5.0743,5.0374,4.972,4.9703,4.9351,4.8681,4.6669,4.5615,4.56,4.6237,4.7275,4.8649,4.8699,4.9,4.9604,4.8967,4.8279,4.7577,4.751,4.7175,4.6438,4.5783,4.4946,4.3931,4.3175,4.2169,4.0841,0.0,0.0,0.0,0.0,0.0,0.0,0.0,0.0,0.0,0.0,0.0,0.0,0.0,0.0,0.0,3.8152,0.0,3.8365,3.8365,0.0,0.0,0.0,3.9817,4.1035,4.1218,4.1577,4.2414,0.0,0.0,4.4702,4.5357,4.5218,4.3818,4.4822,4.5688,4.5738,4.6293,4.6705,4.6755,4.6817,4.6817,4.694,4.7079,4.7424,4.8193,4.8905,4.9146,4.9157,4.927,4.9272,4.9068,4.914,4.9109,4.8872,4.883,4.8327,4.6875,4.6448,4.6559,4.7249,4.7452,4.7766,5.0022,4.8798,4.8131,4.691,4.5425,4.5393,4.5472,4.5568,4.4863,4.4824,4.5205,4.4494,4.4318,4.4592,4.5389,4.5909,4.6267,4.7617,4.8377,4.8723,4.9624,5.0092,5.0158,5.0493,5.0677,5.0693,5.0859,5.0823,5.0689,5.0769,5.0716,5.0548,5.0024,4.9357,4.8614,4.8893,4.9478,5.0386,5.0483,5.0395,4.999,4.9821,4.9382,4.8658,4.8624,4.8207,4.7408,4.7206,4.6663,4.5714,4.5272,4.4378,4.302,4.2561,0.0,0.0,0.0,0.0,0.0,0.0,0.0,0.0,0.0,3.6909,3.81,0.0,3.825,0.0,3.9296,4.0339,4.14,4.1634,0.0,0.0,4.2111,4.2324,4.2665,4.3113,4.372,4.4427,4.5111,4.5813,4.6567,4.6804,4.6784,4.6404,4.6505,4.6652,4.6889,4.7469,4.7884,4.7915,4.8309,4.8651,4.864,4.8711,4.8834,4.903,4.9237,4.928,4.9311,4.9748,5.0019,5.004,5.0476,5.0767,5.0725,5.0735,5.0569,5.0122,4.9417,4.9011,4.9656,4.9778,4.9858,5.2075,5.1092,5.1092,5.0203,4.8753,4.8087,4.7814,4.7796,4.7408,4.7335,4.7525,4.7117,4.7141,4.7507,4.8018,4.8381,4.8659,4.9624,5.0156,5.0288,5.1059,5.1412,5.1412,5.1799,5.195,5.1967,5.205,5.2134,5.2134,5.2183,5.2232,5.2232,5.2216,5.193,5.1344,5.0769,5.0851,5.156,5.1676,5.1488,5.1082,5.0421,4.9914,4.9492,4.9187,4.8769,4.8287,4.795,4.7518,4.6947,4.638,4.5693,4.4791,4.4421,4.3423,0.0,0.0,0.0,0.0,0.0,0.0,0.0,0.0,0.0,0.0,0.0,4.0357,4.0566,4.1262,4.2036,4.2811,4.2962,4.3158,4.3469,4.3839,4.4193,4.4505,4.516,4.5759,4.6216,4.6592,4.7112,4.7898,4.7992,4.8188,4.8517,4.8471,4.8208,4.7895,4.8372,4.8869,4.89,4.9282,4.9727,5.0122,5.0173,5.034,5.0713,5.0796,5.0828,5.0828,5.1092,5.1335,5.1264,5.1476,5.1623,5.157,5.1444,5.1464,5.1693,5.1367,5.0979,5.0967,5.102,5.0986,5.378,5.3175,5.3193,5.2832,5.2123,5.0841,5.0131,4.9861,4.9763,4.9733,4.9687,4.9705,4.9913,5.0272,5.0373,5.0609,5.0894,5.1193,5.1377,5.1494,5.2234,5.2638,5.2773,5.3433,5.3788,5.3771,5.3687,5.3653,5.3653,5.3551,5.3501,5.3501,5.3501,5.3501,5.3433,5.2148,5.181,5.2435,5.2469,5.2401,5.23,5.1048,5.027,5.0067,4.9458,4.9086,4.8984,4.8394,4.7961,4.787,4.7184,4.6629,4.6321,4.6118,4.5271,0.0,4.3392,0.0,0.0,0.0,0.0,0.0,0.0,0.0,0.0,4.1917,4.2573,4.3327,4.347,4.3546,4.364,4.3769,4.4069,4.4645,4.5277,4.5859,4.6435,4.7061,4.7546,4.782,4.7839,4.8148,4.8998,4.9112,4.9443,5.0023,5.0126,4.9843,4.9076,4.9347,4.9741,4.9796,5.0081,5.0672,5.1276,5.1443,5.1714,5.2457,5.2521,5.2709,5.2573,5.2701,5.2756,5.2574,5.2476,5.2406,5.2125,5.1999,5.2082,5.2689,5.2762,5.2488,5.1901,5.1713,5.1775,5.5362,5.4713,5.468,5.4613,5.4446,5.4179,5.3039,5.1354,5.0764,5.0351,5.0119,5.0205,5.0409,5.066,5.138,5.1799,5.19,5.2657,5.3332,5.3957,5.4093,5.4499,5.5056,5.5192,5.5293,5.5225,5.4702,5.4363,5.4397,5.3788,5.3501,5.3501,5.3501,5.3501,5.3467,0.0,0.0,0.0,5.3281,5.2942,5.2334,5.2029,5.1285,5.015,4.9965,0.0,4.9018,4.8883,4.8766,4.8735,4.851,0.0,0.0,0.0,0.0,0.0,0.0,0.0,0.0,0.0,0.0,0.0,4.4188,4.3959,4.305,4.3078,4.3507,4.4341,4.4944,4.5511,4.6079,4.6814,4.7286,4.7413,4.7689,4.7941,4.8049,4.8209,4.8482,4.9062,4.9145,4.9432,5.0109,5.0269,5.0352,5.0557,5.0666,5.0903,5.1191,5.0767,5.0657,5.1136,5.1726,5.2193,5.2405,5.2445,5.2549,5.2677,5.2709,5.2781,5.2865,5.3242,5.3521,5.3492,5.3877,5.4219,5.4177,5.4167,5.4051,5.4305,5.4316,5.4094,5.3208,5.3025,5.3034,5.6318,0.0,5.5649,5.5448,0.0,5.508,5.4462,5.3385,5.2656,5.2033,5.1542,5.1594,5.1731,5.1967,5.2421,5.2927,5.3349,5.3822,5.4431,5.5141,5.5141,5.5327,5.5699,5.5699,5.5699,5.5699,5.5344,5.5124,5.5124,5.4752,5.46,5.4583,5.4583,5.4583,5.4583,5.4228,5.3856,5.3501,5.3501,5.3315,5.2909,5.2503,5.1961,5.1217,0.0,0.0,0.0,0.0,0.0,0.0,0.0,0.0,0.0,0.0,0.0,4.694,4.6704,4.6289,4.561,4.6077,4.6224,4.5874,4.6657,4.6664,4.5482,4.5701,4.6104,4.6525,4.6943,4.7298,4.7759,4.8203,4.8537,4.8661,4.9043,4.9291,4.9305,4.9595,4.9954,5.0402,5.0486,5.0666,5.1135,5.1167,5.1361,5.1672,5.1813,5.2129,5.2649,5.2106,5.1829,5.2605,5.3032,5.3421,5.3745,5.3842,5.4004,5.4251,5.4381,5.4381,5.4381,5.4652,5.4871,5.4802,5.495,5.5072,5.4948,5.4875,5.4813,5.4845,5.5048,5.5166,5.4642,5.4238,5.3835,5.7234,5.6679,5.6545,5.616,5.559,5.559,5.5523,5.5337,0.0,0.0,0.0,5.3357,5.3462,5.3634,5.3634,5.4057,5.4769,5.4769,5.5175,5.5868,5.5902,5.5969,5.6089,5.6105,5.6071,5.6071,5.5969,5.5868,5.5902,5.5767,5.5699,5.5699,5.5699,5.5699,5.5665,5.5108,5.4499,5.3923,5.3636,5.3501,5.3467,5.2875,5.2469,5.23,5.1725,5.1048,5.0304,5.0304,4.9999,4.9409,4.939,4.9375,4.9375,4.9299,4.8967,4.836,4.8122,4.7635,4.6783,4.7768,4.815,4.766,4.871,4.8915,4.7826,4.8308,4.868,4.8717,4.8813,4.8951,4.9115,4.9281,4.94,4.9563,5.0083,5.0408,5.044,5.0858,5.1271,5.1517,5.1634,5.1806,5.1987,5.2118,5.237,5.2927,5.3072,5.3396,5.3902,5.3501,5.3237,5.3893,5.4221,5.4508,5.5005,5.5162,5.545,5.5797,5.5948,5.6086,5.6086,5.6086,5.6026,5.5761,5.5665,5.5503,5.5319,5.5304,5.5182,5.5161,5.5686,5.6146,5.5997,5.5432,5.4857,5.8702,5.8567,5.7944,5.7606,5.7504,5.7504,5.7133,5.6489,5.5391,5.4968,5.5046,5.5028,5.5168,5.536,5.536,5.5445,5.553,5.5564,5.5936,0.0,5.6664,5.6968,5.7577,5.7577,5.7577,5.7543,5.6968,5.6664,5.6596,5.6037,5.5699,5.5699,5.5699,5.5699,5.5699,5.5597,5.5496,5.5361,5.4143,5.3501,5.3518,5.3416,5.301,5.2334,5.2198,5.1826,5.11,5.1032,5.0998,5.0897,5.0897,5.0897,5.0897,5.0847,5.0797,5.0729,5.0584,5.042,5.027,5.0059,4.9719,4.9355,5.0005,5.0079,4.923,4.9195,4.9331,4.9456,5.0011,5.0424,5.0474,5.0965,5.1277,5.1379,5.151,5.1576,5.1561,5.1692,5.179,5.1911,5.2333,5.2744,5.2838,5.3245,5.3574,5.3751,5.4072,5.4364,5.5033,5.4955,5.471,5.4907,5.5398,5.5791,5.5903,5.5942,5.6014,5.6053,5.6126,5.6145,5.6145,5.6145,5.6126,5.6066,5.6039,5.6032,5.5972,5.6469,5.6633,5.6567,5.7045,5.7448,5.713,5.6873,5.6713,5.9607,5.9505,5.8795,5.849,5.8457,5.8051,5.773,5.7356,5.6822,5.6179,5.5576,5.5542,5.5628,5.5699,5.5699,5.5936,5.6274,5.6308,5.6697,5.7374,5.7408,5.7595,5.7866,5.79,5.79,5.7866,5.7577,5.7408,5.7374,5.707,5.6883,5.69,5.69,5.6697,5.6325,5.6274,5.6105,5.5699,5.4634,5.4093,5.4093,5.3687,5.3315,5.2942,5.2942,5.2588,5.181,5.1776,5.1607,5.1201,5.1201,5.1201,5.1201,5.1201,5.1201,5.1201,5.1136,5.1055,5.1007,5.1062,5.1157,5.135,5.1697,5.1729,5.1345,5.0922,5.0739,5.0812,5.1124,5.1325,5.1448,5.1819,5.2107,5.2215,5.2322,5.256,5.2909,5.2975,5.3141,5.3539,5.3904,5.4103,5.4103,5.4369,5.4748,5.5047,5.5505,5.6012,5.644,5.6355,5.6202,5.6139,5.6385,5.655,5.6564,5.6583,5.6525,5.6427,5.6408,5.6441,5.6408,5.6408,5.6369,5.6336,5.656,5.6783,5.6736,5.7286,5.7638,5.774,5.8169,5.8456,5.8385,5.8571,5.8443,6.0351,6.0317,5.9573,5.9148,5.8945,5.8389,5.8069,5.79,5.79,5.7239,5.6274,5.6224,5.6172,5.6172,5.6206,5.6528,5.7002,5.7036,5.734,5.7866,5.79,5.79,5.79,5.79,5.79,5.79,5.79,5.79,5.79,5.79,5.79,5.79,5.79,5.7629,5.707,5.707,5.6765,5.6172,5.548,5.5006,5.4837,5.4296,5.3923,5.3754,5.3754,5.3382,5.2638,5.257,5.2283,5.1776,5.1708,5.1708,5.1708,5.1708,5.1708,5.1708,5.1708,5.1643,5.1529,5.1883,5.2352,5.2836,5.2886,5.297,5.3085,5.2626,5.22,5.2068,5.2038,5.2191,5.2482,5.2641,5.2817,5.3092,5.33,5.3638,5.4142,5.4227,5.4461,5.5013,5.5247,5.5329,5.5381,5.5481,5.5813,5.6363,5.6955,5.7275,5.7308,5.7308,5.7233,5.7176,5.7101,5.7044,5.7063,5.7044,5.6987,5.6834,5.6834,5.6834,5.6815,5.6815,5.6851,5.6828,5.7212,5.7529,5.7599,5.8203,5.8577,5.8667,5.9118,5.9589,5.9516,5.977,5.9729,6.1197,6.1061,6.0332,5.9607,5.9047,5.8912,5.8558,5.7983,5.79,5.7848,5.773,5.7697,5.7679,5.7697,5.7663,5.7697,5.7764,5.778,5.7832,5.79,5.79,5.79,5.79,5.79,5.79,5.79,5.79,5.79,5.79,5.79,5.79,5.79,5.79,5.7866,5.778,5.7798,5.7746,5.7697,5.6968,5.624,5.5631,5.553,5.5192,5.4516,5.4499,5.416,5.3484,5.3382,5.3382,5.3315,5.3264,5.3281,5.3264,5.3281,5.3281,5.3247,5.3281,5.3197,5.3011,5.3044,5.3059,5.2921,5.2987,5.3255,5.3842,5.3839,5.3501,5.3049,5.2848,5.3131,5.3703,5.3821,5.4055,5.4575,5.4763,5.4912,5.5015,5.4979,5.5013,5.508,5.5786,5.6118,5.6188,5.6608,5.7025,5.7096,5.723,5.7383,5.7383,5.7383,5.742,5.7476,5.7402,5.7289,5.7271,5.7271,5.7233,5.7233,5.7233,5.7229,5.7224,5.7196,5.7148,5.7822,5.7918,5.8164,5.8674,5.9302,5.9696,5.9618,5.9984,6.0501,6.0365,6.0345,6.0076,6.1941,6.1873,6.1129,6.0351,5.9708,5.9641,5.9505,5.9201,5.9201,5.9201,5.9201,5.9201,5.8727,5.79,5.79,5.79,5.79,5.79,5.79,5.79,5.79,5.79,5.79,5.79,5.79,5.79,5.79,5.79,5.79,5.79,5.79,5.79,5.79,5.79,5.79,5.79,5.79,5.79,5.7577,5.7306,5.6934,5.6139,5.5564,5.5293,5.5277,5.5141,5.4853,5.482,5.4786,5.4786,5.4397,5.416,5.416,5.3754,5.3501,5.3551,5.3923,5.4295,5.4665,5.4699,5.4647,5.4577,5.456,5.4695,5.4948,5.4982,5.4881,5.461,5.4333,5.4343,5.4629,5.4751,5.4957,5.5226,5.5382,5.5638,5.606,5.6093,5.6228,5.6684,5.7003,5.7205,5.7239,5.7441,5.7643,5.7662,5.7643,5.7625,5.7643,5.7662,5.768,5.7735,5.7698,5.7606,5.7514,5.7476,5.7439,5.7346,5.7308,5.7375,5.7859,5.7888,5.8079,5.8781,5.9005,5.9252,5.9631,6.0207,6.0614,6.0543,6.0555,6.0877,6.0612,6.0569,6.042,6.2415,6.2333,6.1806,6.1163,6.0419,6.0419,6.0283,6.0114,6.008,6.008,6.008,6.008,5.9539,5.861,5.849,5.8509,5.8509,5.8509,5.849,5.849,5.849,5.849,5.849,5.8509,5.8509,5.8457,5.8287,5.8118,5.7934,5.79,5.79,5.79,5.79,5.79,5.79,5.79,5.79,5.79,5.79,5.79,5.7764,5.6867,5.6206,5.6037,5.6003,5.5902,5.5699,5.5699,5.5699,5.5665,5.5158,5.4905,5.4871,5.4397,5.4126,5.4143,5.46,5.5141,5.5665,5.5699,5.5699,5.5699,5.5699,5.58,5.5936,5.6003,5.6105,5.6256,5.6042,5.583,5.5595,5.5703,5.5842,5.6028,5.622,5.6562,5.6984,5.7103,5.7288,5.7798,5.7762,5.79,5.79,5.7881,5.7863,5.7863,5.7881,5.79,5.79,5.7881,5.7881,5.79,5.79,5.7827,5.7698,5.768,5.764,5.7801,5.7865,5.8133,5.8681,5.8796,5.9041,5.9711,6.017,6.0471,6.0598,6.1035,6.1148,6.1086,6.1098,6.1023,6.0877,6.0835,6.0696,6.2415,6.2381,6.2347,6.1927,6.1264,6.1231,6.0825,6.025,6.0182,6.0148,6.0216,6.0182,6.008,6.0013,6.0013,5.9979,5.9945,5.9877,5.9877,5.9877,5.9911,5.9979,6.0013,6.0013,5.9945,5.9742,5.9235,5.8626,5.8035,5.7967,5.79,5.7949,5.8035,5.7967,5.8035,5.8069,5.7915,5.8069,5.8069,5.7967,5.7934,5.7814,5.7442,5.6833,5.6765,5.6443,5.5868,5.5733,5.5733,5.5733,5.5699,5.5683,5.5631,5.5597,5.5496,5.5564,5.5631,5.5665,5.5767,5.5834,5.5834,5.5767,5.5868,5.6037,5.6664,5.6765,5.7002,5.7697,5.7541,5.732,5.6813,5.6693,5.6966,5.7525,5.7679,5.773,5.7798,5.773,5.7832,5.79,5.79,5.79,5.79,5.79,5.79,5.79,5.79,5.79,5.79,5.79,5.7934,5.7967,5.8001,5.7915,5.7897,5.7996,5.8266,5.8582,5.883,5.9107,5.9561,5.9996,6.0285,6.0525,6.0703,6.1006,6.1434,6.1493,6.1334,6.1231,6.1148,6.1086,6.1002,6.1077,6.094,6.2415,6.2415,6.2415,6.2245,6.2028,6.2009,6.1825,6.1588,6.1569,6.1569,6.1569,6.1569,6.1569,6.1569,6.1588,6.1028,6.0148,6.008,6.008,6.008,6.008,6.008,6.008,6.008,6.008,6.0047,5.9844,5.9573,5.937,5.9302,5.9302,5.9302,5.9302,5.9302,5.9302,5.9302,5.9302,5.9302,5.9302,5.9099,5.8626,5.8626,5.8254,5.7543,5.7527,5.7374,5.7103,5.7103,5.7103,5.7103,5.6664,5.6427,5.6341,5.5936,5.5936,5.6341,5.6427,5.663,5.7036,5.7103,5.7103,5.7103,5.7103,5.7137,5.7442,5.7509,5.7629,5.7832,5.79,5.773,5.7629,5.7527,5.7577,5.7832,5.79,5.79,5.79,5.79,5.79,5.79,5.79,5.79,5.79,5.79,5.79,5.79,5.79,5.7934,5.7934,5.79,5.8137,5.849,5.8626,5.8795,5.9302,5.8863,5.881,5.9404,5.9791,6.011,6.053,6.0767,6.1028,6.1427,6.1492,6.144,6.1817,6.1696,6.1526,6.1375,6.1293,6.119,6.114,6.114,6.1077,6.2498,6.2479,6.2479,6.2479,6.2513,6.242,6.2415,6.2415,6.2415,6.2415,6.2415,6.2415,6.2415,6.2415,6.2415,6.1893,6.0892,6.0825,6.0825,6.0858,6.0825,6.0825,6.0825,6.0825,6.0858,6.0791,6.0588,6.0351,6.0114,6.008,6.008,6.008,6.008,6.008,6.008,6.008,6.008,6.008,6.008,5.9844,5.9404,5.9351,5.9133,5.8693,5.8592,5.8373,5.7934,5.79,5.79,5.7832,5.7408,5.7137,5.7103,5.6697,5.663,5.707,5.7171,5.734,5.7798,5.79,5.79,5.79,5.79,5.79,5.79,5.79,5.79,5.79,5.79,5.79,5.79,5.79,5.79,5.79,5.79,5.79,5.79,5.79,5.79,5.79,5.79,5.79,5.79,5.79,5.8035,5.8204,5.8254,5.8287,5.8558,5.8644,5.8727,5.9216,5.9351,5.9708,6.0148,6.0047,5.9877,6.0351,6.052,6.0926,6.1264,6.1501,6.1738,6.2158,6.2282,6.215,6.203,6.1877,6.1696,6.1547,6.1383,6.1314,6.1231,6.1161,6.1152,6.2707,6.2693,6.2727,6.2693,6.2707,6.2498,6.2434,6.242,6.24,6.2415,6.2415,6.2415,6.2415,6.2415,6.2415,6.2347,6.2231,6.2164,6.2164,6.2178,6.2212,6.2212,6.2178,6.2144,6.2144,6.2164,6.1603,6.0926,6.0351,6.0351,6.0317,6.0216,6.0317,6.0385,6.0182,6.0351,6.025,6.0317,6.0351,6.0216,6.0114,6.0114,6.0047,5.9945,5.9945,5.9336,5.8069,5.8001,5.8001,5.7967,5.79,5.7866,5.7798,5.773,5.7832,5.7798,5.7866,5.79,5.79,5.79,5.79,5.79,5.79,5.7934,5.8035,5.8035,5.8069,5.817,5.8137,5.8069,5.8103,5.8137,5.8035,5.79,5.79,5.79,5.7967,5.7967,5.7967,5.8069,5.817,5.7949,5.7949,5.8152,5.8423,5.8863,5.9013,5.9167,5.9641,5.9742,5.9979,6.0114,6.0148,6.0452,6.0892,6.1264,6.1264,6.1298,6.1332,6.1501,6.1839,6.211,6.2076,6.2381,6.2381,6.2263,6.2169,6.2017,6.1917,6.177,6.1608,6.1478,6.1334,6.1264,6.1281,6.3382,6.2904,6.2904,6.2904,6.2885,6.2673,6.2596,6.2576,6.2459,6.2415,6.2415,6.2415,6.2415,6.2415,6.2415,6.2415,6.2415,6.2415,6.2415,6.2415,6.2415,6.2415,6.2415,6.2415,6.2415,6.2381,6.2178,6.1941,6.1724,6.1656,6.1704,6.167,6.1637,6.169,6.1603,6.169,6.167,6.169,6.167,6.1434,6.0994,6.0926,6.0655,6.0148,6.008,5.9844,5.9456,5.893,5.866,5.866,5.8186,5.79,5.79,5.79,5.79,5.79,5.79,5.79,5.79,5.7934,5.7967,5.7934,5.7934,5.8152,5.8592,5.8641,5.8863,5.9268,5.9404,5.9404,5.9404,5.9404,5.8964,5.8017,5.79,5.8186,5.8626,5.9066,5.937,5.9404,5.9404,5.9404,5.937,5.937,5.9404,5.9674,5.9776,5.9911,6.008,6.0283,6.0385,6.0757,6.0926,6.1129,6.1569,6.1839,6.1839,6.1806,6.1839,6.1839,6.2212,6.2415,6.2415,6.2415,6.2415,6.2361,6.2268,6.2189,6.209,6.1977,6.187,6.1689,6.1465,6.1455,6.1551,6.3935,6.349,6.3216,6.3114,6.3095,6.2885,6.2751,6.2707,6.2557,6.2459,6.2434,6.2415,6.2415,6.2415,6.2415,6.2415,6.2415,6.2415,6.2415,6.2415,6.2415,6.2415,6.2415,6.2415,6.2415,6.2415,6.2415,6.2415,6.2415,6.2415,6.2381,6.2381,6.2415,6.2381,6.2415,6.2415,6.2415,6.2415,6.2381,6.2178,6.1806,6.1704,6.1467,6.1028,6.096,6.096,6.0911,6.0231,5.9689,5.9404,5.893,5.8727,5.8693,5.8727,5.8693,5.8693,5.8727,5.8746,5.8693,5.8795,5.8712,5.8746,5.8712,5.8896,5.9336,5.9438,5.9674,6.0013,6.0047,6.008,6.008,6.008,5.9641,5.8863,5.8761,5.893,5.9419,5.981,6.0047,6.0013,6.0047,6.008,6.008,6.0114,6.025,6.0419,6.0554,6.0757,6.0825,6.0994,6.1298,6.1535,6.167,6.1941,6.2245,6.2347,6.2347,6.2313,6.2279,6.2245,6.2381,6.2415,6.2415,6.2415,6.2415,6.2415,6.2341,6.2341,6.2302,6.2189,6.2191,6.2132,6.199,6.1965,6.2074,6.4538,6.4401,6.368,6.3405,6.3386,6.3129,6.2904,6.2731,6.2673,6.2557,6.2454,6.2415,6.2415,6.2415,6.2415,6.2415,6.2415,6.2415,6.2415,6.2415,6.2415,6.2415,6.2415,6.2415,6.2415,6.2415,6.2415,6.2415,6.2415,6.2415,6.2415,6.2415,6.2415,6.2415,6.2415,6.2415,6.2415,6.2415,6.2415,6.2347,6.2313,6.2333,6.2333,6.2245,6.2231,6.2178,6.2076,6.1535,6.0892,6.0216,5.9945,5.9877,6.0013,6.008,5.9945,5.9911,6.0047,5.9945,6.0013,5.9844,5.9877,5.9844,5.9844,6.0148,6.0148,6.0182,6.0283,6.0452,6.0452,6.0385,6.0385,6.0419,6.0317,6.025,6.0114,6.0114,6.0148,6.0283,6.0486,6.0419,6.025,6.0283,6.0452,6.0419,6.0723,6.1129,6.1366,6.1603,6.1907,6.2009,6.2279,6.2333,6.2197,6.2265,6.2415,6.2415,6.2415,6.2415,6.2415,6.2415,6.2415,6.2415,6.2415,6.2415,6.2448,6.2448,6.2415,6.2415,6.255,6.2626,6.2628,6.2629,6.2683,6.2739,6.2845,6.6006,6.542,6.4663,6.4353,6.4212,6.3542,6.3114,6.2904,6.2785,6.2664,6.2454,6.2415,6.2415,6.2415,6.2415,6.2415,6.2415,6.2415,6.2415,6.2415,6.2415,6.2415,6.2415,6.2415,6.2415,6.2415,6.2415,6.2415,6.2415,6.2415,6.2415,6.2415,6.2415,6.2415,6.2415,6.2415,6.2415,6.2415,6.2415,6.2415,6.2415,6.2415,6.2415,6.2415,6.2415,6.2415,6.2415,6.2231,6.1467,6.0216,6.008,6.008,6.0182,6.0182,6.025,6.025,6.0182,6.0148,6.0148,6.0182,6.0148,6.008,6.025,6.0351,6.0926,6.0994,6.1231,6.1603,6.1806,6.1738,6.1738,6.1738,6.1738,6.1724,6.1264,6.0994,6.1061,6.1467,6.1806,6.1806,6.1738,6.167,6.1637,6.169,6.1738,6.1941,6.2042,6.2076,6.2313,6.2415,6.2415,6.2415,6.2347,6.2381,6.2415,6.2415,6.2415,6.2415,6.2415,6.2415,6.2415,6.2415,6.2415,6.2415,6.2584,6.2651,6.2516,6.2415,6.2685,6.3193,6.3254,6.3323,6.3612,6.3755,6.386,6.6758,6.6309,6.555,6.5205,6.5152,6.4606,6.4282,6.4004,6.3504,6.3188,6.2944,6.2555,6.2415,6.2415,6.2415,6.2415,6.2415,6.2415,6.2415,6.2415,6.2415,6.2415,6.2415,6.2415,6.2415,6.2415,6.2415,6.2415,6.2415,6.2415,6.2415,6.2415,6.2415,6.2415,6.2415,6.2415,6.2415,6.2415,6.2415,6.2415,6.2415,6.2415,6.2415,6.2415,6.2415,6.2415,6.2415,6.24,6.1941,6.1231,6.1061,6.1061,6.1061,6.1061,6.1081,6.1061,6.1061,6.1095,6.1061,6.1061,6.1061,6.1095,6.1061,6.1298,6.1637,6.1772,6.2009,6.2245,6.2381,6.2415,6.2415,6.2415,6.2415,6.2299,6.2009,6.1738,6.1772,6.211,6.2347,6.2415,6.2415,6.2415,6.2415,6.2415,6.2415,6.2381,6.2313,6.2347,6.2415,6.2415,6.2415,6.2415,6.2415,6.2415,6.2415,6.2415,6.2536,6.2536,6.2719,6.2651,6.2618,6.2584,6.2536,6.2603,6.2739,6.2854,6.2854,6.3024,6.3565,6.3937,6.3971,6.4201,6.4544,6.4661,6.4799,6.7137,6.7049,6.6309,6.6033,6.5999,6.5911,6.5604,6.5396,6.4581,6.4093,6.3761,6.3021,6.2854,6.2618,6.2888,6.2705,6.2719,6.2854,6.2787,6.2821,6.2821,6.2821,6.2874,6.2536,6.2415,6.2415,6.2415,6.2415,6.2415,6.2415,6.2415,6.2415,6.2415,6.2415,6.2415,6.2415,6.2448,6.2584,6.2651,6.2651,6.2651,6.2651,6.2584,6.2415,6.2415,6.2415,6.2415,6.2415,6.2313,6.2381,6.2415,6.2245,6.2299,6.2347,6.2313,6.2265,6.2144,6.2197,6.2333,6.2178,6.2279,6.2212,6.2245,6.2415,6.2313,6.2279,6.2313,6.2381,6.2415,6.2415,6.2415,6.2415,6.2415,6.24,6.2367,6.24,6.2415,6.2415,6.2415,6.2415,6.2415,6.2415,6.2415,6.2415,6.2415,6.2415,6.2415,6.2415,6.2415,6.2415,6.2415,6.2415,6.2415,6.2415,6.2415,6.2415,6.257,6.2671,6.3043,6.3125,6.3091,6.299,6.2806,6.2874,6.3362,6.3632,6.3632,6.3971,6.441,6.4681,6.4715,6.5121,6.5553,6.5493,6.5563,6.7876,6.7807,6.7049,6.6758,6.6669,6.6171,6.5815,6.5602,6.5162,6.4883,6.4631,6.4295,6.4092,6.4092,6.4045,6.414,6.4045,6.4045,6.414,6.414,6.4106,6.4106,6.3855,6.3097,6.2502,6.2502,6.2448,6.2415,6.2468,6.2468,6.2434,6.2434,6.2575,6.2434,6.2522,6.2696,6.2719,6.3159,6.326,6.3334,6.33,6.33,6.3063,6.2677,6.2555,6.2468,6.2434,6.2415,6.2415,6.2434,6.2468,6.2609,6.2468,6.2415,6.2415,6.2415,6.2415,6.2415,6.2415,6.2415,6.2415,6.2415,6.2415,6.2415,6.2415,6.2415,6.2415,6.2415,6.2415,6.2415,6.2415,6.2415,6.2415,6.2415,6.2415,6.2415,6.2415,6.2415,6.2415,6.2415,6.2415,6.2415,6.2415,6.2415,6.2415,6.2415,6.2415,6.2415,6.2415,6.2415,6.2415,6.2415,6.2618,6.2685,6.2719,6.2821,6.3091,6.3193,6.3497,6.3869,6.3802,6.37,6.3599,6.3835,6.4241,6.4377,6.4377,6.4546,6.4952,6.5189,6.5493,6.5831,6.6094,6.6141,6.6115,6.8083,6.8049,6.7669,6.7497,6.7463,6.7083,6.6887,6.6647,6.6141,6.5847,6.5625,6.5187,6.4937,6.4937,6.4937,6.4903,6.4937,6.4937,6.4903,6.4903,6.4903,6.4903,6.4869,6.4203,6.3688,6.3455,6.3057,6.2956,6.2874,6.275,6.2741,6.3066,6.3124,6.3528,6.3713,6.3713,6.4004,6.4276,6.4359,6.4359,6.4359,6.4325,6.4257,6.3868,6.3766,6.3747,6.3834,6.38,6.3766,6.3766,6.3713,6.3275,6.2555,6.2434,6.2434,6.2415,6.2415,6.2415,6.2415,6.2415,6.2415,6.2434,6.2434,6.2415,6.2415,6.2415,6.2415,6.2415,6.2415,6.2415,6.2415,6.2415,6.2415,6.2415,6.2434,6.2434,6.2415,6.2434,6.2415,6.2415,6.2415,6.2415,6.2415,6.2415,6.2415,6.2415,6.2415,6.2415,6.2415,6.2415,6.2415,6.2482,6.2821,6.299,6.3091,6.3328,6.3768,6.3937,6.414,6.458,6.4816,6.4715,6.458,6.4783,6.4952,6.5087,6.5155,6.5324,6.5561,6.5933,6.6271,6.6474,6.6534,6.6483,6.6445,6.8083,6.8083,6.8083,6.8083,6.8083,6.8049,6.8014,6.7906,6.7246,6.6853,6.673,6.5955,6.5761,6.5684,6.5733,6.565,6.5684,6.5699,6.583,6.5796,6.5796,6.583,6.5727,6.5639,6.5417,6.4972,6.4213,6.3874,6.3696,6.3382,6.3635,6.3995,6.4167,6.4444,6.5084,6.526,6.5201,6.5352,6.5386,6.5386,6.544,6.5406,6.5303,6.5064,6.503,6.503,6.4996,6.503,6.5172,6.5294,6.5294,6.4415,6.3362,6.2778,6.2759,6.2806,6.2922,6.299,6.3024,6.2888,6.2874,6.2739,6.2806,6.2787,6.2821,6.2922,6.2956,6.2922,6.2956,6.2956,6.2753,6.2922,6.2888,6.2821,6.2806,6.2739,6.2719,6.2739,6.2821,6.2415,6.2415,6.2415,6.2415,6.2415,6.2415,6.2415,6.2448,6.2482,6.255,6.2618,6.2753,6.3057,6.3497,6.3632,6.3734,6.4174,6.458,6.4749,6.4884,6.529,6.573,6.5696,6.5527,6.5392,6.5527,6.5696,6.5899,6.6102,6.6352,6.6757,6.6757,6.669,6.6724,6.6791,6.6686,6.8083,6.8083,6.8083,6.8083,6.8083,6.8083,6.8083,6.8044,6.7727,6.7628,6.7539,6.7255,6.7038,6.7072,6.712,6.712,6.6975,6.6961,6.6989,6.6989,6.701,6.6989,6.6941,6.6927,6.6963,6.6663,6.579,6.5107,6.4965,6.4942,6.4791,6.5016,6.5089,6.5299,6.5436,6.5362,6.5866,6.6243,6.6277,6.6291,6.6291,6.6257,6.6018,6.5661,6.5647,6.5593,6.547,6.5382,6.5294,6.5294,6.5294,6.5152,6.4849,6.4622,6.4395,6.4119,6.4045,6.3977,6.3971,6.4106,6.4174,6.4241,6.4106,6.4106,6.414,6.414,6.3971,6.4038,6.4072,6.414,6.4208,6.4005,6.414,6.4174,6.4072,6.4072,6.4072,6.3971,6.3599,6.2888,6.2651,6.2584,6.2787,6.2888,6.2922,6.299,6.2956,6.3125,6.3294,6.3429,6.3565,6.3937,6.4377,6.441,6.441,6.5019,6.5514,6.5628,6.5797,6.6102,6.644,6.6555,6.6487,6.617,6.617,6.6373,6.6588,6.669,6.6724,6.6791,6.6791,6.6791,6.6791,6.6791,6.6791,6.8083,6.8083,6.8083,6.8083,6.8083,6.8083,6.8083,6.8083,6.7984,6.7979,6.7939,6.7859,6.7819,6.7819,6.7819,6.7819,6.7799,6.7819,6.7819,6.7819,6.7819,6.7819,6.7799,6.7799,6.7819,6.7613,6.7029,6.6362,6.5895,6.5529,6.574,6.6019,6.6132,6.6362,6.6671,6.6829,6.6892,6.7216,6.7216,6.725,6.725,6.727,6.6995,6.6823,6.6686,6.6775,6.674,6.674,6.6775,6.6775,6.6775,6.6681,6.6582,6.634,6.5886,6.508,6.481,6.4715,6.4634,6.4613,6.4546,6.458,6.4647,6.4613,6.4613,6.4546,6.4681,6.4647,6.4613,6.4613,6.4546,6.4647,6.4613,6.4613,6.4647,6.4681,6.4647,6.4647,6.4208,6.3666,6.3734,6.3768,6.3666,6.37,6.3599,6.3531,6.3497,6.3734,6.3984,6.4174,6.4309,6.4647,6.5053,6.5324,6.5324,6.5696,6.6068,6.6237,6.6373,6.669,6.6791,6.6757,6.6757,6.6622,6.6757,6.6791,6.6791,6.6757,6.6791,6.6791,6.6791,6.6791,6.6791,6.6791,6.6825,6.8083,6.8083,6.8083,6.8083,6.8083,6.8083,6.8083,6.8083,6.8083,6.8083,6.8083,6.8083,6.8064,6.8083,6.8064,6.8064,6.8083,6.8064,6.8044,6.8044,6.8044,6.8064,6.8083,6.8083,6.8044,6.8004,6.7921,6.7649,6.6901,6.646,6.6519,6.6834,6.7163,6.7463,6.7857,6.7783,6.8083,6.8083,6.8083,6.8083,6.8083,6.8083,6.8083,6.8083,6.8083,6.7995,6.7871,6.7837,6.7871,6.7871,6.794,6.7935,6.7865,6.7859,6.7116,6.5804,6.5405,6.5243,6.521,6.5155,6.529,6.5324,6.5121,6.5087,6.5121,6.529,6.5189,6.5053,6.5121,6.5189,6.529,6.5121,6.5121,6.5155,6.5189,6.5087,6.5222,6.529,6.5358,6.5053,6.5053,6.4783,6.4478,6.4241,6.4106,6.4106,6.4038,6.441,6.4681,6.4783,6.4986,6.529,6.5662,6.6102,6.6271,6.6352,6.6576,6.6576,6.6588,6.6757,6.6791,6.6791,6.6791,6.6791,6.6791,6.6791,6.6791,6.6791,6.6791,6.6791,6.6791,6.6791,6.6791,6.6859,6.6893,6.8083,6.8083,6.8083,6.8083,6.8083,6.8083,6.8083,6.8083,6.8083,6.8083,6.8083,6.8083,6.8083,6.8083,6.8083,6.8083,6.8083,6.8083,6.8083,6.8083,6.8083,6.8103,6.8103,6.8083,6.8143,6.8162,6.8143,6.8064,6.7783,6.7665,6.7719,6.7896,6.7881,6.8034,6.8147,6.8182,6.8083,6.8103,6.8103,6.8123,6.8123,6.8123,6.8123,6.8123,6.8123,6.8143,6.8162,6.8162,6.8143,6.8143,6.8103,6.8083,6.8044,6.8044,6.7925,6.7459,6.7175,6.6908,6.6711,6.643,6.6271,6.6271,6.6318,6.6487,6.6339,6.6305,6.6284,6.6521,6.6419,6.6318,6.625,6.6419,6.6508,6.6406,6.6216,6.6284,6.6352,6.5933,6.6,6.6102,6.5912,6.5425,6.4986,6.4783,6.458,6.458,6.4681,6.5087,6.5358,6.5493,6.5628,6.5933,6.6047,6.6474,6.6609,6.6757,6.6791,6.6791,6.6791,6.6791,6.6791,6.6791,6.6791,6.6791,6.6791,6.6791,6.6791,6.6791,6.6791,6.6791,6.6791,6.6791,6.6791,6.6893,6.7151,6.8083,6.8083,6.8083,6.8083,6.8083,6.8083,6.8083,6.8083,6.8083,6.8083,6.8083,6.8083,6.8083,6.8083,6.8083,6.8083,6.8083,6.8103,6.8083,6.8103,6.8123,6.8162,6.8241,6.828,6.8299,6.8397,6.8435,6.8474,6.8416,6.8338,6.8299,6.8416,6.8435,6.842,6.8397,6.8435,6.8455,6.8455,6.8455,6.8435,6.8435,6.8435,6.8435,6.8435,6.8435,6.8416,6.8416,6.8435,6.8435,6.8416,6.8338,6.826,6.8221,6.8162,6.8024,6.7965,6.7664,6.7435,6.7188,6.7097,6.6938,6.6812,6.6791,6.6724,6.6791,6.6791,6.6791,6.6757,6.6791,6.6791,6.6791,6.6791,6.6791,6.6791,6.6791,6.6791,6.6791,6.6791,6.6656,6.6757,6.6757,6.617,6.573,6.5696,6.5628,6.5662,6.573,6.5933,6.617,6.6271,6.6419,6.6555,6.6622,6.6724,6.6724,6.6791,6.6791,6.6791,6.6791,6.6791,6.6791,6.6791,6.6825,6.6825,6.6825,6.6825,6.6859,6.6859,6.6927,6.6859,6.6791,6.7062,6.7354,6.7523,6.7827,6.8083,6.8083,6.8083,6.8083,6.8083,6.8083,6.8083,6.8083,6.8083,6.8083,6.8083,6.8083,6.8083,6.8103,6.8143,6.8201,6.8216,6.8256,6.8241,6.8241,6.826,6.8358,6.8435,6.8494,6.8551,6.8705,6.8647,6.8686,6.8724,6.8667,6.8628,6.8705,6.8647,6.8667,6.8686,6.8667,6.8647,6.8647,6.8667,6.8667,6.8667,6.8667,6.8686,6.8686,6.8705,6.8705,6.8705,6.8686,6.8686,6.8647,6.8551,6.8474,6.8455,6.8299,6.8201,6.8123,6.7945,6.7719,6.7469,6.7263,6.7097,6.6938,6.6812,6.6791,6.6791,6.6791,6.6791,6.6791,6.6791,6.6791,6.6791,6.6791,6.6791,6.6791,6.6791,6.6791,6.6791,6.6791,6.6791,6.6791,6.6791,6.6791,6.6521,6.6656,6.669,6.6724,6.6791,6.6791,6.6791,6.6757,6.6757,6.6791,6.6791,6.6791,6.6791,6.6791,6.6791,6.6859,6.6859,6.6859,6.6927,6.6927,6.6927,6.6927,6.7062,6.7421,6.7793,6.7421,6.7083,6.7286,6.7523,6.7793,6.803,6.8233,6.8538,6.8083,6.8083,6.8083,6.8083,6.8083,6.8083,6.8083,6.8083,6.8103,6.8123,6.8143,6.8103,6.8143,6.8162,6.8299,6.8377,6.8377,6.8571,6.859,6.8609,6.8667,6.8647,6.8686,6.8686,6.8724,6.8781,6.8838,6.8932,6.9024,6.9118,6.8948,6.8743,6.8838,6.8762,6.88,6.8914,6.8895,6.8895,6.8895,6.8857,6.8838,6.8819,6.8819,6.88,6.8708,6.8705,6.8724,6.88,6.8819,6.8819,6.8743,6.8686,6.8647,6.8494,6.8377,6.828,6.8182,6.7979,6.7739,6.7469,6.7222,6.7097,6.6972,6.6791,6.6791,6.6791,6.6791,6.6791,6.6791,6.6791,6.6791,6.6791,6.6791,6.6791,6.6791,6.6791,6.6791,6.6791,6.6791,6.6791,6.6791,6.6791,6.6791,6.6791,6.6791,6.6791,6.6791,6.6791,6.6791,6.6791,6.6791,6.6791,6.6791,6.6791,6.6791,6.6825,6.6859,6.7028,6.7129,6.7129,6.7151,6.7151,6.7489,6.7624,6.7895,6.8301,6.8605,6.8335,6.8166,6.8098,6.8199,6.847,6.8977,6.935,6.962,6.8083,6.8103,6.8221,6.8201,6.8083,6.8083,6.8083,6.8123,6.8221,6.8358,6.8455,6.8474,6.8474,6.8494,6.8532,6.859,6.859,6.8647,6.8724,6.8705,6.8705,6.8781,6.8873,6.9005,6.9061,6.9194,6.925,6.9361,6.9578,6.9524,6.956,6.9416,6.9194,6.9213,6.9231,6.9324,6.9379,6.9397,6.9416,6.9434,6.9434,6.9434,6.9434,6.9434,6.9434,6.9434,6.9434,6.9324,6.9287,6.9194,6.9026,6.8986,6.8911,6.8705,6.8551,6.8435,6.8299,6.8162,6.7965,6.7699,6.7489,6.716,6.6972,6.6812,6.6833,6.6812,6.6791,6.6791,6.6791,6.6791,6.6791,6.6791,6.6791,6.6791,6.6791,6.6791,6.6791,6.6791,6.6791,6.6791,6.6791,6.6791,6.6791,6.6791,6.6791,6.6791,6.6791,6.6791,6.6791,6.6791,6.6791,6.6893,6.6927,6.696,6.696,6.696,6.6994,6.7231,6.7489,6.7624,6.7793,6.8233,6.8504,6.8605,6.8673,6.891,6.9113,6.9248,6.9147,6.8876,6.891,6.9147,6.9722,7.0364,7.0534,6.828,6.828,6.8435,6.8377,6.8201,6.8241,6.828,6.8299,6.8435,6.8551,6.8705,6.8705,6.8705,6.8724,6.8781,6.88,6.8819,6.8895,6.8951,6.8989,6.9045,6.9101,6.9248,6.9359,6.9487,6.9652,6.9688,6.9777,6.9849,6.9867,6.9813,6.9724,6.9687,6.9633,6.9687,6.9831,6.9885,6.9885,6.9885,6.9885,6.9867,6.9849,6.9831,6.9831,6.9813,6.9796,6.976,6.9688,6.9652,6.9543,6.9432,6.9266,6.9155,6.8986,6.8724,6.8551,6.8416,6.8299,6.8103,6.7865,6.7638,6.7346,6.7097,6.6993,6.6896,6.6854,6.6791,6.6791,6.6791,6.6791,6.6791,6.6791,6.6791,6.6791,6.6791,6.6791,6.6791,6.6791,6.6791,6.6791,6.6791,6.6791,6.6825,6.6825,6.6859,6.6825,6.6791,6.6791,6.6791,6.6791,6.6791,6.6927,6.7117,6.7129,6.7163,6.7569,6.7941,6.8098,6.8335,6.847,6.8707,6.9113,6.935,6.9383,6.9451,6.9519,6.9789,7.0161,6.9925,6.9553,6.9755,7.0026,7.0297,7.0872,7.1007,6.8632,6.8686,6.8705,6.859,6.8435,6.8609,6.8667,6.8628,6.8686,6.8724,6.8781,6.8781,6.8781,6.8838,6.9026,6.9155,6.9174,6.9285,6.9396,6.947,6.947,6.9652,6.9724,6.9778,6.9795,6.9884,6.992,6.9938,6.9938,7.0009,6.9991,6.9956,6.9956,6.9902,6.9885,6.9885,6.9885,6.9902,6.992,6.9938,6.9956,6.9973,6.9973,6.9973,6.9973,6.9991,6.9991,6.992,6.9885,6.9867,6.967,6.956,6.9506,6.9248,6.8986,6.8724,6.8532,6.8319,6.8103,6.7939,6.7719,6.7496,6.727,6.718,6.7118,6.6993,6.6812,6.6812,6.6791,6.6791,6.6791,6.6791,6.6791,6.6791,6.6791,6.6791,6.6791,6.6791,6.6791,6.6791,6.6791,6.6791,6.6825,6.6846,6.6914,6.6914,6.6825,6.6825,6.6927,6.7028,6.7129,6.7523,6.776,6.7827,6.803,6.8571,6.891,6.9011,6.9147,6.9316,6.9417,6.9654,6.9857,7.006,7.0195,7.0263,7.0714,7.1188,7.0703,7.0297,7.0714,7.0985,7.121,7.1244,7.1255,6.7955,6.8044,6.8682,6.8911,6.8854,6.8743,6.8705,6.8724,6.8892,6.9024,6.9174,6.9231,6.9305,6.9361,6.947,6.9597,6.9633,6.9669,6.976,6.9778,6.9796,6.9813,6.9885,6.9938,7.0009,7.0079,7.0114,7.0184,7.0306,7.0254,7.0272,7.0289,7.0219,7.0219,7.0184,7.0202,7.0289,7.0289,7.0306,7.0289,7.0325,7.0307,7.0378,7.0361,7.0396,7.0396,7.0379,7.0345,7.0221,7.0168,6.9991,6.9742,6.9634,6.9432,6.9266,6.8986,6.874,6.8435,6.8201,6.7984,6.7885,6.7719,6.7516,6.7366,6.7201,6.7139,6.7014,6.6854,6.6812,6.6812,6.6791,6.6791,6.6791,6.6791,6.6791,6.6791,6.6791,6.6791,6.6791,6.6791,6.6791,6.6859,6.6859,6.7421,6.7557,6.7421,6.7366,6.7434,6.7535,6.7658,6.7793,6.8335,6.8639,6.8673,6.8876,6.9316,6.9654,6.9789,6.9958,7.0128,7.0229,7.0241,7.0478,7.0737,7.0872,7.1041,7.1154,7.1255,7.1188,7.1142,7.1255,7.1289,7.1255,7.1255,7.1289,6.7431,6.7593,6.8491,6.8953,6.9006,6.8996,6.9064,6.9139,6.9303,6.9486,6.9595,6.9687,6.9688,6.9724,6.9813,6.9885,6.9885,6.9885,6.9991,7.0009,7.0009,7.0079,7.0114,7.0114,7.0219,7.0272,7.0306,7.0394,7.0463,7.0497,7.048,7.048,7.0514,7.0642,7.0643,7.0695,7.048,7.0534,7.0677,7.0944,7.1051,7.1175,7.1353,7.1389,7.1389,7.1353,7.1229,7.0981,7.0716,7.0592,7.0327,6.9955,6.9795,6.9633,6.9451,6.9118,6.8778,6.8474,6.828,6.8103,6.8004,6.7919,6.7719,6.7536,6.7407,6.7284,6.7139,6.7014,6.6888,6.6812,6.6791,6.6791,6.6791,6.6791,6.6791,6.6791,6.6791,6.6791,6.6859,6.6859,6.696,6.696,6.7252,6.7827,6.8335,6.8132,6.7963,6.8098,6.8233,6.8335,6.8504,6.8977,6.9417,6.9451,6.962,6.9958,7.0263,7.0534,7.0635,7.0737,7.0872,7.085,7.112,7.1289,7.1188,7.1154,7.1222,7.1255,7.1222,7.1222,7.1255,7.1289,7.1289,7.1289,7.1289,6.7095,6.7376,6.8117,6.8558,6.8806,6.9228,6.9617,6.9849,6.9849,6.9849,6.9867,6.9902,6.9885,6.9902,6.992,6.9956,6.9956,6.9956,7.0079,7.0167,7.0202,7.0306,7.0411,7.0445,7.0428,7.0463,7.048,7.0463,7.0514,7.0514,7.0514,7.0657,7.0764,7.1103,7.1282,7.1246,7.0978,7.1156,7.1442,7.1656,7.1763,7.2227,7.2334,7.237,7.237,7.2405,7.2245,7.1978,7.1764,7.1444,7.0947,7.0452,7.0079,6.9777,6.9468,6.908,6.8701,6.8532,6.8358,6.8201,6.8103,6.8024,6.7919,6.7839,6.7678,6.7455,6.7304,6.7139,6.7014,6.6875,6.6812,6.6812,6.6791,6.6791,6.6791,6.6791,6.6846,6.688,6.696,6.7028,6.7184,6.7421,6.7963,6.8538,6.9113,6.9147,6.9079,6.9316,6.935,6.9079,6.9282,6.9553,6.9925,7.0195,7.0398,7.0567,7.0703,7.0906,7.1041,7.1109,7.1255,7.1289,7.1289,7.1289,7.1289,7.1289,7.1289,7.1289,7.1289,7.1289,7.1289,7.1289,7.1289,7.1289,7.1289,6.6512,6.6738,6.7515,6.7904,6.8062,6.8857,6.9424,6.9849,6.9885,6.9885,6.992,7.0062,7.0114,7.0132,7.0254,7.0289,7.0306,7.0324,7.0376,7.0411,7.0358,7.0463,7.0497,7.0514,7.0514,7.0514,7.0514,7.0514,7.0514,7.0514,7.0942,7.1264,7.1335,7.1799,7.212,7.2227,7.2156,7.2156,7.2441,7.2441,7.2513,7.2834,7.2976,7.3012,7.3012,7.3048,7.2905,7.2691,7.2513,7.2352,7.221,7.1944,7.1819,7.1071,7.0375,6.9206,6.8946,6.8797,6.8474,6.8338,6.8364,6.833,6.8196,6.7939,6.7819,6.7761,6.7626,6.7556,6.7424,6.7387,6.7261,6.7218,6.7197,6.7218,6.7218,6.7252,6.7286,6.7489,6.7535,6.7692,6.7827,6.8301,6.8842,6.9383,6.9891,7.0026,7.0195,7.0364,7.0364,7.006,6.9992,7.0263,7.0432,7.0703,7.0872,7.1019,7.112,7.1255,7.1289,7.1289,7.1289,7.1289,7.1289,7.1289,7.1289,7.1289,7.1289,7.1289,7.1289,7.1289,7.1289,7.1289,7.1289,7.1289,7.1289,6.5923,6.6145,6.6925,6.7472,6.7912,6.8743,6.9331,6.9688,6.999,7.0149,7.0149,7.0254,7.0306,7.0324,7.041,7.0497,7.048,7.0463,7.048,7.048,7.0514,7.0497,7.0514,7.0514,7.0514,7.0514,7.0514,7.0514,7.0585,7.0942,7.1371,7.2049,7.212,7.262,7.3048,7.3262,7.3476,7.3476,7.3512,7.3333,7.3369,7.3547,7.3726,7.3654,7.369,7.369,7.3619,7.3512,7.3298,7.3191,7.3083,7.2709,7.2512,7.178,7.1313,7.0391,7.0183,7.0031,6.9819,6.9515,6.9293,6.912,6.9006,6.9023,6.8785,6.8643,6.8501,6.8342,6.8195,6.8035,6.7832,6.7726,6.776,6.7793,6.7793,6.7793,6.7963,6.8199,6.8335,6.8504,6.8842,6.9282,6.9789,7.0297,7.0635,7.0737,7.0804,7.0883,7.0917,7.077,7.0737,7.0883,7.1019,7.1154,7.1289,7.1289,7.1289,7.1289,7.1289,7.1289,7.1289,7.1289,7.1289,7.1289,7.1289,7.1289,7.1289,7.1289,7.1289,7.1289,7.1289,7.1289,7.1289,7.1289,7.1289,6.5415,6.5617,6.6308,6.7138,6.8052,6.8785,6.9196,6.9391,7.0123,7.0497,7.048,7.0497,7.0497,7.0444,7.0497,7.0514,7.0514,7.0514,7.0514,7.0514,7.0514,7.0514,7.0514,7.0514,7.0514,7.0514,7.055,7.0621,7.0835,7.1264,7.1906,7.2798,7.2905,7.3333,7.3958,7.4065,7.4297,7.4582,7.435,7.41,7.4297,7.4725,7.5206,7.5064,7.5046,7.5028,7.4903,7.4582,7.41,7.3815,7.3547,7.3101,7.2708,7.2417,7.2124,7.1706,7.1285,7.1093,7.0849,7.0634,7.0506,7.0436,7.0522,7.0297,6.9919,6.9459,6.9269,6.9178,6.9032,6.8821,6.8651,6.8479,6.847,6.847,6.847,6.847,6.8571,6.8876,6.9282,6.9485,6.9857,7.0263,7.0364,7.0838,7.0939,7.1154,7.1222,7.1289,7.1255,7.121,7.1222,7.1289,7.1289,7.1289,7.1289,7.1289,7.1289,7.1289,7.1289,7.1289,7.1289,7.1289,7.1289,7.1289,7.1289,7.1289,7.1289,7.1289,7.1289,7.1289,7.1289,7.1289,7.1289,7.1289,7.1289,6.5578,6.574,6.5953,6.6485,6.7302,6.8052,6.8766,6.9355,7.0157,7.0478,7.0514,7.0514,7.0514,7.0514,7.0514,7.0514,7.0514,7.0514,7.0514,7.0514,7.0514,7.0514,7.0514,7.0514,7.0514,7.0514,7.0585,7.0871,7.1406,7.1799,7.2441,7.3565,7.3708,7.41,7.4707,7.4778,7.4975,7.5189,7.4992,7.4778,7.485,7.4957,7.5206,7.5206,7.5206,7.5206,7.5118,7.5028,7.4903,7.4796,7.4743,7.4259,7.3508,7.3216,7.2712,7.2136,7.1926,7.1804,7.1668,7.1528,7.1315,7.0937,7.0831,7.0951,7.0835,7.0339,7.0038,7.0003,6.9875,6.9676,6.9462,6.9345,6.9248,6.9214,6.9214,6.9214,6.9214,6.9654,7.0161,7.05,7.0838,7.0973,7.1041,7.1109,7.1222,7.1289,7.1255,7.1289,7.1289,7.1255,7.1255,7.1289,7.1289,7.1289,7.1289,7.1289,7.1289,7.1289,7.1289,7.1289,7.1289,7.1289,7.1289,7.1289,7.1289,7.1289,7.1289,7.1289,7.1289,7.1289,7.1289,7.1289,7.1289,7.1289,7.1289,6.5707,6.5804,6.5804,6.6053,6.6553,6.7283,6.8052,6.882,6.9622,7.0193,7.0478,7.0514,7.0514,7.0514,7.0514,7.0514,7.0514,7.0514,7.0514,7.0514,7.0514,7.0514,7.0514,7.0514,7.0514,7.055,7.0978,7.1442,7.2049,7.2762,7.3458,7.4314,7.4528,7.4707,7.5206,7.5206,7.5206,7.5206,7.5206,7.5206,7.5206,7.5206,7.5206,7.5206,7.5206,7.5206,7.5206,7.5206,7.5171,7.5189,7.5099,7.4938,7.4382,7.407,7.3706,7.3324,7.3009,7.2653,7.252,7.2313,7.2156,7.1827,7.1709,7.2071,7.194,7.1525,7.1408,7.1314,7.1101,7.0899,7.066,7.0485,7.0409,7.0364,7.0364,7.0331,7.0364,7.0567,7.0804,7.0917,7.112,7.112,7.1188,7.1188,7.1289,7.1289,7.1289,7.1289,7.1289,7.1289,7.1289,7.1289,7.1289,7.1289,7.1289,7.1289,7.1289,7.1289,7.1289,7.1289,7.1289,7.1289,7.1289,7.1289,7.1289,7.1289,7.1289,7.1289,7.1289,7.1289,7.1289,7.1289,7.1323,7.1424,7.1594,6.5804,6.5804,6.5804,6.582,6.5943,6.6709,6.7511,6.8277,6.9046,6.9851,7.0494,7.0565,7.0531,7.0514,7.0514,7.0514,7.0514,7.0514,7.0514,7.0514,7.0514,7.0514,7.0514,7.0514,7.0514,7.0764,7.1228,7.1942,7.2655,7.3333,7.4065,7.4992,7.5206,7.5206,7.5206,7.5206,7.5206,7.5206,7.5206,7.5206,7.5206,7.5206,7.5206,7.5206,7.5206,7.5206,7.5206,7.5206,7.5206,7.5206,7.5206,7.5135,7.4972,7.4679,7.4546,7.418,7.3896,7.3737,7.3725,7.3501,7.3352,7.3215,7.315,7.2929,7.2741,7.2581,7.244,7.2257,7.2077,7.1817,7.1542,7.1333,7.1221,7.1154,7.1154,7.1154,7.1188,7.1222,7.1255,7.1289,7.1289,7.1289,7.1289,7.1289,7.1289,7.1289,7.1289,7.1289,7.1289,7.1289,7.1289,7.1289,7.1289,7.1289,7.1289,7.1289,7.1289,7.1289,7.1289,7.1289,7.1289,7.1289,7.1289,7.1289,7.1289,7.1289,7.1289,7.1289,7.1289,7.1357,7.1594,7.1718,7.1785,7.1921,7.2124,6.5804,6.5804,6.5804,6.5848,6.6066,6.6813,6.7681,6.8618,6.934,7.0099,7.0609,7.0718,7.0667,7.0514,7.0514,7.0514,7.0514,7.0514,7.0514,7.0514,7.0514,7.0514,7.0514,7.0514,7.0514,7.0835,7.1371,7.2084,7.2905,7.3637,7.4386,7.5153,7.5206,7.5206,7.5206,7.5206,7.5206,7.5206,7.5206,7.5206,7.5206,7.5206,7.5206,7.5206,7.5206,7.5206,7.5206,7.5206,7.5206,7.5206,7.5206,7.5206,7.5097,7.495,7.4763,7.4574,7.4325,7.4167,7.403,7.3951,7.3697,7.3375,7.317,7.3046,7.2846,7.2692,7.2573,7.2509,7.2296,7.2016,7.1754,7.1423,7.1278,7.1255,7.1255,7.1255,7.1255,7.1255,7.1289,7.1289,7.1289,7.1289,7.1289,7.1289,7.1289,7.1289,7.1289,7.1289,7.1289,7.1289,7.1289,7.1289,7.1289,7.1289,7.1289,7.1289,7.1289,7.1289,7.1289,7.1289,7.1289,7.1289,7.1289,7.1289,7.1289,7.1289,7.1289,7.1391,7.1458,7.1582,7.2022,7.2259,7.2326,7.2496,7.2766]}]]